[[{"header":{"parameterUnit":"m.s-1","parameterCategory":1,"la1":31.0,"la2":29.5877,"lo1":-88.7671,"lo2":-86.6584,"dy":0.0162,"dx":0.0185,"nx":115,"ny":88,"refTime":"2024-03-03T06:00:00:Z","depth":0,"parameterNumber":2,"parameterNumberName":"U-component_of_WINDS"},"data":[0.0,0.0,0.0,0.0,0.0,0.0,0.0,0.0,0.0,0.0,0.0,0.0,0.0,0.0,0.0,0.0,0.0,0.0,0.0,0.0,0.0,0.0,0.0,0.0,0.0,0.0,0.0,0.0,0.0,0.0,0.0,0.0,0.0,0.0,0.0,0.0,0.0,0.0,0.0,0.0,0.0,0.0,0.0,0.0,0.0,0.0,0.0,0.0,0.0,0.0,0.0,0.0,0.0,0.0,0.0,0.0,0.0,0.0,0.0,0.0,0.0,0.0,0.0,0.0,0.0,0.0,0.0,0.0,0.0,0.0,0.0,0.0,0.0,0.0,0.0,0.0,0.0,0.0,0.0,0.0,0.0,0.0,0.0,0.0,0.0,0.0,0.0,0.0,0.0,0.0,0.0,0.0,0.0,0.0,0.0,0.0,0.0,0.0,0.0,0.0,0.0,0.0,0.0,0.0,0.0,0.0,0.0,0.0,0.0,0.0,0.0,0.0,0.0,0.0,0.0,0.0,0.0,0.0,0.0,0.0,0.0,0.0,0.0,0.0,0.0,0.0,0.0,0.0,0.0,0.0,0.0,0.0,0.0,0.0,0.0,0.0,0.0,0.0,0.0,0.0,0.0,0.0,0.0,0.0,0.0,0.0,0.0,0.0,0.0,0.0,0.0,0.0,0.0,0.0,0.0,0.0,0.0,0.0,0.0,0.0,0.0,0.0,0.0,0.0,0.0,0.0,0.0,0.0,0.0,0.0,0.0,0.0,0.0,0.0,0.0,0.0,0.0,0.0,0.0,0.0,0.0,0.0,0.0,0.0,0.0,0.0,0.0,0.0,0.0,0.0,0.0,0.0,0.0,0.0,0.0,0.0,0.0,0.0,0.0,0.0,0.0,0.0,0.0,0.0,0.0,0.0,0.0,0.0,0.0,0.0,0.0,0.0,0.0,0.0,0.0,0.0,0.0,0.0,0.0,0.0,0.0,0.0,0.0,0.0,0.0,0.0,0.0,0.0,0.0,0.0,0.0,0.0,0.0,0.0,0.0,0.0,0.0,0.0,0.0,0.0,0.0,0.0,0.0,0.0,0.0,0.0,0.0,0.0,0.0,0.0,0.0,0.0,0.0,0.0,0.0,0.0,0.0,0.0,0.0,0.0,0.0,0.0,0.0,0.0,0.0,0.0,0.0,0.0,0.0,0.0,0.0,0.0,0.0,0.0,0.0,0.0,0.0,0.0,0.0,0.0,0.0,0.0,0.0,0.0,0.0,0.0,0.0,0.0,0.0,0.0,0.0,0.0,0.0,0.0,0.0,0.0,0.0,0.0,0.0,0.0,0.0,0.0,0.0,0.0,0.0,0.0,0.0,0.0,0.0,0.0,0.0,0.0,0.0,0.0,0.0,0.0,0.0,0.0,0.0,0.0,0.0,0.0,0.0,0.0,0.0,0.0,0.0,0.0,0.0,0.0,0.0,0.0,0.0,0.0,0.0,0.0,0.0,0.0,0.0,0.0,0.0,0.0,0.0,0.0,0.0,0.0,0.0,0.0,0.0,0.0,0.0,0.0,0.0,0.0,0.0,0.0,0.0,0.0,0.0,0.0,0.0,0.0,0.0,0.0,0.0,0.0,0.0,0.0,0.0,0.0,0.0,0.0,0.0,0.0,0.0,0.0,0.0,0.0,0.0,0.0,0.0,0.0,0.0,0.0,0.0,0.0,0.0,0.0,0.0,0.0,0.0,0.0,0.0,0.0,0.0,0.0,0.0,0.0,0.0,0.0,0.0,0.0,0.0,0.0,0.0,0.0,0.0,0.0,0.0,0.0,0.0,0.0,0.0,0.0,0.0,0.0,0.0,0.0,0.0,0.0,0.0,0.0,0.0,0.0,0.0,0.0,0.0,0.0,0.0,0.0,0.0,0.0,0.0,0.0,0.0,0.0,0.0,0.0,0.0,0.0,0.0,0.0,0.0,0.0,0.0,0.0,0.0,0.0,0.0,0.0,0.0,0.0,0.0,0.0,0.0,0.0,0.0,0.0,0.0,0.0,0.0,0.0,0.0,0.0,0.0,0.0,0.0,0.0,0.0,0.0,0.0,0.0,0.0,0.0,0.0,0.0,0.0,0.0,0.0,0.0,0.0,0.0,0.0,0.0,0.0,0.0,0.0,0.0,0.0,0.0,0.0,0.0,0.0,0.0,0.0,0.0,0.0,0.0,0.0,0.0,0.0,0.0,0.0,0.0,0.0,0.0,0.0,0.0,0.0,0.0,0.0,0.0,0.0,0.0,0.0,0.0,0.0,0.0,0.0,0.0,0.0,0.0,0.0,0.0,0.0,0.0,0.0,0.0,0.0,0.0,0.0,0.0,0.0,0.0,0.0,0.0,0.0,0.0,0.0,0.0,0.0,0.0,0.0,0.0,0.0,0.0,0.0,0.0,0.0,0.0,0.0,0.0,0.0,0.0,0.0,0.0,0.0,0.0,0.0,0.0,0.0,0.0,0.0,0.0,0.0,0.0,0.0,0.0,0.0,0.0,0.0,0.0,0.0,0.0,0.0,0.0,0.0,0.0,0.0,0.0,0.0,0.0,0.0,0.0,0.0,0.0,0.0,0.0,0.0,0.0,0.0,0.0,0.0,0.0,0.0,0.0,0.0,0.0,0.0,0.0,0.0,0.0,0.0,0.0,0.0,0.0,0.0,0.0,0.0,0.0,0.0,0.0,0.0,0.0,0.0,0.0,0.0,0.0,0.0,0.0,0.0,0.0,0.0,0.0,0.0,0.0,0.0,0.0,0.0,0.0,0.0,0.0,0.0,0.0,0.0,0.0,0.0,0.0,0.0,0.0,0.0,0.0,0.0,0.0,0.0,0.0,0.0,0.0,0.0,0.0,0.0,0.0,0.0,0.0,0.0,0.0,0.0,0.0,0.0,0.0,0.0,0.0,0.0,0.0,0.0,0.0,0.0,0.0,0.0,0.0,0.0,0.0,0.0,0.0,0.0,0.0,0.0,0.0,0.0,0.0,0.0,0.0,0.0,0.0,0.0,0.0,0.0,0.0,0.0,0.0,0.0,0.0,0.0,0.0,0.0,0.0,0.0,0.0,0.0,0.0,0.0,0.0,0.0,0.0,0.0,0.0,0.0,0.0,0.0,0.0,0.0,0.0,0.0,0.0,0.0,0.0,0.0,0.0,0.0,0.0,0.0,0.0,0.0,0.0,0.0,0.0,0.0,0.0,0.0,0.0,0.0,0.0,0.0,0.0,0.0,0.0,0.0,0.0,0.0,0.0,0.0,0.0,0.0,0.0,0.0,0.0,0.0,0.0,0.0,0.0,0.0,0.0,0.0,0.0,0.0,0.0,0.0,0.0,0.0,0.0,0.0,0.0,0.0,0.0,0.0,0.0,0.0,0.0,0.0,0.0,0.0,0.0,0.0,0.0,0.0,0.0,0.0,0.0,0.0,0.0,0.0,0.0,0.0,0.0,0.0,0.0,0.0,0.0,0.0,0.0,0.0,0.0,0.0,0.0,0.0,0.0,0.0,0.0,0.0,0.0,0.0,0.0,0.0,0.0,0.0,0.0,0.0,0.0,0.0,0.0,0.0,0.0,0.0,0.0,0.0,0.0,0.0,0.0,0.0,0.0,0.0,0.0,0.0,0.0,0.0,0.0,0.0,0.0,0.0,0.0,0.0,0.0,0.0,0.0,0.0,0.0,0.0,0.0,0.0,0.0,0.0,0.0,0.0,0.0,0.0,0.0,0.0,0.0,0.0,0.0,0.0,0.0,0.0,0.0,0.0,0.0,0.0,0.0,0.0,0.0,0.0,0.0,0.0,0.0,0.0,0.0,0.0,0.0,0.0,0.0,0.0,0.0,0.0,0.0,0.0,0.0,0.0,0.0,0.0,0.0,0.0,0.0,0.0,0.0,0.0,0.0,0.0,0.0,0.0,0.0,0.0,0.0,0.0,0.0,0.0,0.0,0.0,0.0,0.0,0.0,0.0,0.0,0.0,0.0,0.0,0.0,0.0,0.0,0.0,0.0,0.0,0.0,0.0,0.0,0.0,0.0,0.0,0.0,0.0,0.0,0.0,0.0,0.0,0.0,0.0,0.0,0.0,0.0,0.0,0.0,0.0,0.0,0.0,0.0,0.0,0.0,0.0,0.0,0.0,0.0,0.0,0.0,0.0,0.0,0.0,0.0,0.0,0.0,0.0,0.0,0.0,0.0,0.0,0.0,0.0,0.0,0.0,0.0,0.0,0.0,0.0,0.0,0.0,0.0,0.0,0.0,-3.8689,0.0,0.0,0.0,0.0,0.0,0.0,0.0,0.0,0.0,0.0,0.0,0.0,0.0,0.0,0.0,0.0,0.0,0.0,0.0,0.0,0.0,0.0,0.0,0.0,0.0,0.0,0.0,0.0,0.0,0.0,0.0,0.0,0.0,0.0,0.0,0.0,0.0,0.0,0.0,0.0,0.0,0.0,0.0,0.0,0.0,0.0,0.0,0.0,0.0,0.0,0.0,0.0,0.0,0.0,0.0,0.0,0.0,0.0,0.0,0.0,0.0,0.0,0.0,0.0,0.0,0.0,0.0,0.0,0.0,0.0,0.0,0.0,0.0,0.0,0.0,0.0,0.0,0.0,0.0,0.0,0.0,0.0,0.0,0.0,0.0,0.0,0.0,0.0,0.0,0.0,0.0,0.0,0.0,0.0,0.0,0.0,0.0,0.0,0.0,0.0,0.0,0.0,0.0,0.0,0.0,0.0,0.0,0.0,0.0,0.0,-3.8707,-3.8707,-3.8707,-3.8707,-3.8689,0.0,0.0,0.0,0.0,0.0,0.0,0.0,0.0,0.0,0.0,0.0,0.0,0.0,0.0,0.0,0.0,0.0,0.0,0.0,0.0,0.0,0.0,0.0,0.0,0.0,0.0,0.0,0.0,0.0,0.0,0.0,0.0,0.0,0.0,0.0,0.0,0.0,0.0,0.0,0.0,0.0,0.0,0.0,0.0,0.0,0.0,0.0,0.0,0.0,0.0,0.0,0.0,0.0,0.0,0.0,0.0,0.0,0.0,0.0,0.0,0.0,0.0,0.0,0.0,0.0,0.0,0.0,0.0,0.0,0.0,0.0,0.0,0.0,0.0,0.0,0.0,0.0,0.0,0.0,0.0,0.0,0.0,0.0,0.0,0.0,0.0,0.0,0.0,0.0,0.0,0.0,0.0,0.0,0.0,0.0,0.0,0.0,0.0,0.0,0.0,0.0,0.0,0.0,0.0,0.0,0.0,0.0,0.0,0.0,0.0,0.0,0.0,-3.8707,-3.8707,-3.8707,0.0,0.0,0.0,0.0,0.0,0.0,0.0,0.0,0.0,0.0,0.0,0.0,0.0,0.0,0.0,0.0,0.0,0.0,0.0,0.0,0.0,0.0,0.0,0.0,0.0,0.0,0.0,0.0,0.0,0.0,0.0,0.0,0.0,0.0,0.0,0.0,0.0,0.0,0.0,0.0,0.0,0.0,0.0,0.0,0.0,0.0,0.0,0.0,0.0,0.0,0.0,0.0,0.0,0.0,0.0,0.0,0.0,0.0,0.0,0.0,0.0,0.0,0.0,0.0,0.0,0.0,0.0,0.0,0.0,0.0,0.0,0.0,0.0,0.0,0.0,0.0,0.0,0.0,0.0,0.0,0.0,0.0,0.0,0.0,0.0,0.0,0.0,0.0,0.0,0.0,0.0,0.0,0.0,0.0,0.0,0.0,0.0,0.0,0.0,0.0,0.0,0.0,0.0,0.0,0.0,0.0,0.0,0.0,0.0,0.0,-3.8707,-3.8707,-3.8707,0.0,-3.8707,0.0,0.0,0.0,0.0,0.0,0.0,0.0,0.0,0.0,0.0,0.0,0.0,0.0,0.0,0.0,0.0,0.0,0.0,0.0,0.0,0.0,0.0,0.0,0.0,0.0,0.0,0.0,0.0,0.0,0.0,0.0,0.0,0.0,0.0,0.0,0.0,0.0,0.0,0.0,0.0,0.0,0.0,0.0,0.0,0.0,0.0,0.0,0.0,0.0,0.0,0.0,0.0,0.0,0.0,0.0,0.0,0.0,0.0,0.0,0.0,0.0,0.0,0.0,0.0,0.0,0.0,0.0,0.0,0.0,0.0,0.0,0.0,0.0,0.0,0.0,0.0,0.0,0.0,0.0,0.0,0.0,0.0,0.0,0.0,0.0,0.0,0.0,0.0,0.0,0.0,0.0,0.0,0.0,0.0,0.0,0.0,0.0,0.0,0.0,0.0,0.0,0.0,0.0,0.0,0.0,0.0,0.0,0.0,0.0,0.0,-3.8707,-3.8707,-3.8707,-3.8707,0.0,0.0,0.0,0.0,0.0,0.0,0.0,0.0,0.0,0.0,0.0,0.0,0.0,0.0,0.0,0.0,0.0,0.0,0.0,0.0,0.0,0.0,0.0,0.0,0.0,0.0,0.0,0.0,0.0,0.0,0.0,0.0,0.0,0.0,0.0,0.0,0.0,0.0,0.0,0.0,0.0,0.0,0.0,0.0,0.0,0.0,0.0,0.0,0.0,0.0,0.0,0.0,0.0,0.0,0.0,0.0,0.0,0.0,0.0,0.0,0.0,0.0,0.0,0.0,0.0,0.0,0.0,0.0,0.0,0.0,0.0,0.0,0.0,0.0,0.0,0.0,0.0,0.0,0.0,0.0,0.0,0.0,0.0,0.0,0.0,0.0,0.0,0.0,0.0,0.0,0.0,0.0,0.0,0.0,0.0,0.0,0.0,0.0,0.0,0.0,0.0,0.0,0.0,0.0,0.0,0.0,0.0,0.0,0.0,0.0,-3.8707,-3.8707,-3.8707,-3.8707,-3.8707,-3.8707,0.0,0.0,0.0,0.0,0.0,0.0,0.0,0.0,0.0,0.0,0.0,0.0,0.0,0.0,0.0,0.0,0.0,0.0,0.0,0.0,0.0,0.0,0.0,0.0,0.0,0.0,0.0,0.0,0.0,0.0,0.0,0.0,0.0,0.0,0.0,0.0,0.0,0.0,0.0,0.0,0.0,0.0,0.0,0.0,0.0,0.0,0.0,0.0,0.0,0.0,0.0,0.0,0.0,0.0,0.0,0.0,0.0,0.0,0.0,0.0,0.0,0.0,0.0,0.0,0.0,0.0,0.0,0.0,0.0,0.0,0.0,0.0,0.0,0.0,0.0,0.0,0.0,0.0,0.0,0.0,0.0,0.0,0.0,0.0,0.0,0.0,0.0,0.0,0.0,0.0,0.0,0.0,0.0,0.0,0.0,0.0,0.0,0.0,0.0,0.0,0.0,0.0,0.0,0.0,0.0,0.0,0.0,0.0,-3.8707,-3.8707,-3.8726,-3.8726,-3.8707,-3.8707,0.0,0.0,0.0,0.0,0.0,0.0,0.0,0.0,0.0,0.0,0.0,0.0,0.0,0.0,0.0,0.0,0.0,0.0,0.0,0.0,0.0,0.0,0.0,0.0,0.0,0.0,0.0,0.0,0.0,0.0,0.0,0.0,0.0,0.0,0.0,0.0,0.0,0.0,0.0,0.0,0.0,0.0,0.0,0.0,0.0,0.0,0.0,0.0,0.0,0.0,0.0,0.0,0.0,0.0,0.0,0.0,0.0,0.0,0.0,0.0,0.0,0.0,0.0,0.0,0.0,0.0,0.0,0.0,0.0,0.0,0.0,0.0,0.0,0.0,0.0,0.0,0.0,0.0,0.0,0.0,0.0,0.0,0.0,0.0,0.0,0.0,0.0,0.0,0.0,0.0,0.0,0.0,0.0,0.0,0.0,0.0,0.0,0.0,0.0,0.0,0.0,0.0,0.0,0.0,0.0,0.0,0.0,0.0,0.0,-3.946,-3.9478,-3.946,-3.946,-3.8964,-3.8707,0.0,0.0,0.0,0.0,0.0,0.0,0.0,0.0,0.0,0.0,0.0,0.0,0.0,0.0,0.0,0.0,0.0,0.0,0.0,0.0,0.0,0.0,0.0,0.0,0.0,0.0,0.0,0.0,0.0,0.0,0.0,0.0,0.0,0.0,0.0,0.0,0.0,0.0,0.0,0.0,0.0,0.0,0.0,0.0,0.0,0.0,0.0,0.0,0.0,0.0,0.0,0.0,0.0,0.0,0.0,0.0,0.0,0.0,0.0,0.0,0.0,0.0,0.0,0.0,0.0,0.0,0.0,0.0,0.0,0.0,0.0,0.0,0.0,0.0,0.0,0.0,0.0,0.0,0.0,0.0,0.0,0.0,0.0,0.0,0.0,0.0,0.0,0.0,0.0,0.0,0.0,0.0,0.0,0.0,0.0,0.0,0.0,0.0,0.0,0.0,0.0,0.0,0.0,0.0,0.0,0.0,0.0,0.0,0.0,-4.0267,0.0,-4.0157,-3.99,-3.9368,-3.8964,0.0,0.0,0.0,0.0,0.0,0.0,0.0,0.0,0.0,0.0,0.0,0.0,0.0,0.0,0.0,0.0,0.0,0.0,0.0,0.0,0.0,0.0,0.0,0.0,0.0,0.0,0.0,0.0,0.0,0.0,0.0,0.0,0.0,0.0,0.0,0.0,0.0,0.0,0.0,0.0,0.0,0.0,0.0,0.0,0.0,0.0,0.0,0.0,0.0,0.0,0.0,0.0,0.0,0.0,0.0,0.0,0.0,0.0,0.0,0.0,0.0,0.0,0.0,0.0,0.0,0.0,0.0,0.0,0.0,0.0,0.0,0.0,0.0,0.0,0.0,0.0,0.0,0.0,0.0,0.0,0.0,0.0,0.0,0.0,0.0,0.0,0.0,0.0,0.0,0.0,0.0,0.0,0.0,0.0,0.0,0.0,0.0,0.0,0.0,0.0,0.0,0.0,0.0,0.0,0.0,0.0,0.0,0.0,-4.0359,-4.1077,-4.1113,-4.0763,-3.9955,-3.99,-3.9496,0.0,0.0,0.0,0.0,0.0,0.0,0.0,0.0,0.0,0.0,0.0,0.0,0.0,0.0,0.0,0.0,0.0,0.0,0.0,0.0,0.0,0.0,0.0,0.0,0.0,0.0,0.0,0.0,0.0,0.0,0.0,0.0,0.0,0.0,0.0,0.0,0.0,0.0,0.0,0.0,0.0,0.0,0.0,0.0,0.0,0.0,0.0,0.0,0.0,0.0,0.0,0.0,0.0,0.0,0.0,0.0,0.0,0.0,0.0,0.0,0.0,0.0,0.0,0.0,0.0,0.0,0.0,0.0,0.0,0.0,0.0,0.0,0.0,0.0,0.0,0.0,0.0,0.0,0.0,0.0,0.0,0.0,0.0,0.0,0.0,0.0,0.0,0.0,0.0,0.0,0.0,0.0,0.0,0.0,0.0,0.0,0.0,0.0,0.0,0.0,0.0,0.0,0.0,0.0,0.0,0.0,0.0,0.0,0.0,-4.2727,-4.2213,-4.1827,-4.1534,-4.0469,-3.9772,0.0,0.0,0.0,0.0,0.0,0.0,0.0,0.0,0.0,0.0,0.0,0.0,0.0,0.0,0.0,0.0,0.0,0.0,0.0,0.0,0.0,0.0,0.0,0.0,0.0,0.0,0.0,0.0,0.0,0.0,0.0,0.0,0.0,0.0,0.0,0.0,0.0,0.0,0.0,0.0,0.0,0.0,0.0,0.0,0.0,0.0,0.0,0.0,0.0,0.0,0.0,0.0,0.0,0.0,0.0,0.0,0.0,0.0,0.0,0.0,0.0,0.0,0.0,0.0,0.0,0.0,0.0,0.0,0.0,0.0,0.0,0.0,0.0,0.0,0.0,0.0,0.0,0.0,0.0,0.0,0.0,0.0,0.0,0.0,0.0,0.0,0.0,0.0,0.0,0.0,0.0,0.0,0.0,0.0,0.0,0.0,0.0,0.0,0.0,0.0,0.0,0.0,0.0,0.0,0.0,0.0,0.0,0.0,0.0,-4.3469,-4.3231,-4.297,-4.2763,-4.1754,-4.0799,-3.99,0.0,0.0,0.0,0.0,0.0,0.0,0.0,0.0,0.0,0.0,0.0,0.0,0.0,0.0,0.0,0.0,0.0,0.0,0.0,0.0,0.0,0.0,0.0,0.0,0.0,0.0,0.0,0.0,0.0,0.0,0.0,0.0,0.0,0.0,0.0,0.0,0.0,0.0,0.0,0.0,0.0,0.0,0.0,0.0,0.0,0.0,0.0,0.0,0.0,0.0,0.0,0.0,0.0,0.0,0.0,0.0,0.0,0.0,0.0,0.0,0.0,0.0,0.0,0.0,0.0,0.0,0.0,0.0,0.0,0.0,0.0,0.0,0.0,0.0,0.0,0.0,0.0,0.0,0.0,0.0,0.0,0.0,0.0,0.0,0.0,0.0,0.0,0.0,0.0,0.0,0.0,0.0,0.0,0.0,0.0,0.0,0.0,0.0,0.0,0.0,0.0,0.0,0.0,0.0,0.0,0.0,0.0,0.0,-4.3542,-4.4098,-4.409,-4.3536,-4.348,-4.2378,0.0,0.0,0.0,0.0,0.0,0.0,0.0,0.0,0.0,0.0,0.0,0.0,0.0,0.0,0.0,0.0,0.0,0.0,0.0,0.0,0.0,0.0,0.0,0.0,0.0,0.0,0.0,0.0,0.0,0.0,0.0,0.0,0.0,0.0,0.0,0.0,0.0,0.0,0.0,0.0,0.0,0.0,0.0,0.0,0.0,0.0,0.0,0.0,0.0,0.0,0.0,0.0,0.0,0.0,0.0,0.0,0.0,0.0,0.0,0.0,0.0,0.0,0.0,0.0,0.0,0.0,0.0,0.0,0.0,0.0,0.0,0.0,0.0,0.0,0.0,0.0,0.0,0.0,0.0,0.0,0.0,0.0,0.0,0.0,0.0,0.0,0.0,0.0,0.0,0.0,0.0,0.0,0.0,0.0,0.0,0.0,0.0,0.0,0.0,0.0,0.0,0.0,0.0,0.0,0.0,0.0,0.0,0.0,0.0,-4.4316,-4.4129,-4.3966,-4.394,-4.3506,-4.2429,0.0,0.0,0.0,0.0,0.0,0.0,0.0,0.0,0.0,0.0,0.0,0.0,0.0,0.0,0.0,0.0,0.0,0.0,0.0,0.0,0.0,0.0,0.0,0.0,0.0,0.0,0.0,0.0,0.0,0.0,0.0,0.0,0.0,0.0,0.0,0.0,0.0,0.0,0.0,0.0,0.0,0.0,0.0,0.0,0.0,0.0,0.0,0.0,0.0,0.0,0.0,0.0,0.0,0.0,0.0,0.0,0.0,0.0,0.0,0.0,0.0,0.0,0.0,0.0,0.0,0.0,0.0,0.0,0.0,0.0,0.0,0.0,0.0,0.0,0.0,0.0,0.0,0.0,0.0,0.0,0.0,0.0,0.0,0.0,0.0,0.0,0.0,0.0,0.0,0.0,0.0,0.0,0.0,0.0,0.0,0.0,0.0,0.0,0.0,0.0,0.0,0.0,0.0,0.0,0.0,0.0,0.0,0.0,-4.3091,-4.4174,-4.3978,-4.4017,-4.432,-4.3842,-4.285,0.0,0.0,0.0,0.0,0.0,0.0,0.0,0.0,0.0,0.0,0.0,0.0,0.0,0.0,0.0,0.0,0.0,0.0,0.0,0.0,0.0,0.0,0.0,0.0,0.0,0.0,0.0,0.0,0.0,0.0,0.0,0.0,0.0,0.0,0.0,0.0,0.0,0.0,0.0,0.0,0.0,0.0,0.0,0.0,0.0,0.0,0.0,0.0,0.0,0.0,0.0,0.0,0.0,0.0,0.0,0.0,0.0,0.0,0.0,0.0,0.0,0.0,0.0,0.0,0.0,0.0,0.0,0.0,0.0,0.0,0.0,0.0,0.0,0.0,0.0,0.0,0.0,0.0,0.0,0.0,0.0,0.0,0.0,0.0,0.0,0.0,0.0,0.0,0.0,0.0,0.0,0.0,0.0,0.0,0.0,0.0,0.0,0.0,0.0,0.0,0.0,0.0,0.0,0.0,0.0,0.0,0.0,0.0,-4.2835,-4.3541,-4.3816,-4.4158,-4.4547,-4.425,-4.341,0.0,0.0,0.0,0.0,0.0,0.0,0.0,0.0,0.0,0.0,0.0,0.0,0.0,0.0,0.0,0.0,0.0,0.0,0.0,0.0,0.0,0.0,0.0,0.0,0.0,0.0,0.0,0.0,0.0,0.0,0.0,0.0,0.0,0.0,0.0,0.0,0.0,0.0,0.0,0.0,0.0,0.0,0.0,0.0,0.0,0.0,0.0,0.0,0.0,0.0,0.0,0.0,0.0,0.0,0.0,0.0,0.0,0.0,0.0,0.0,0.0,0.0,0.0,0.0,0.0,0.0,0.0,0.0,0.0,0.0,0.0,0.0,0.0,0.0,0.0,0.0,0.0,0.0,0.0,0.0,0.0,0.0,0.0,0.0,0.0,0.0,0.0,0.0,0.0,0.0,0.0,0.0,0.0,0.0,0.0,0.0,0.0,0.0,0.0,0.0,0.0,0.0,0.0,0.0,0.0,0.0,0.0,0.0,-4.2971,-4.3872,-4.3662,-4.3847,-4.4579,-4.4118,-4.3159,0.0,0.0,0.0,0.0,0.0,0.0,0.0,0.0,0.0,0.0,0.0,0.0,0.0,0.0,0.0,0.0,0.0,0.0,0.0,0.0,0.0,0.0,0.0,0.0,0.0,0.0,0.0,0.0,0.0,0.0,0.0,0.0,0.0,0.0,0.0,0.0,0.0,0.0,0.0,0.0,0.0,0.0,0.0,0.0,0.0,0.0,0.0,0.0,-4.5514,0.0,0.0,0.0,0.0,0.0,0.0,0.0,0.0,0.0,0.0,0.0,0.0,0.0,0.0,0.0,0.0,0.0,0.0,0.0,0.0,0.0,0.0,0.0,0.0,0.0,0.0,0.0,0.0,0.0,0.0,0.0,0.0,0.0,0.0,0.0,0.0,0.0,0.0,0.0,0.0,0.0,0.0,0.0,0.0,0.0,0.0,0.0,0.0,0.0,0.0,0.0,0.0,0.0,0.0,0.0,0.0,0.0,0.0,0.0,-4.2918,-4.3924,-4.3811,-4.3971,-4.4543,-4.3962,-4.3223,0.0,0.0,0.0,0.0,0.0,0.0,0.0,0.0,0.0,0.0,0.0,0.0,0.0,0.0,0.0,0.0,0.0,0.0,0.0,0.0,0.0,0.0,0.0,0.0,0.0,0.0,0.0,0.0,0.0,0.0,0.0,0.0,0.0,0.0,0.0,0.0,0.0,0.0,0.0,0.0,0.0,0.0,0.0,0.0,0.0,0.0,0.0,0.0,0.0,0.0,0.0,0.0,0.0,0.0,0.0,0.0,0.0,0.0,0.0,0.0,0.0,0.0,0.0,0.0,0.0,0.0,0.0,0.0,0.0,0.0,0.0,0.0,0.0,0.0,0.0,0.0,0.0,0.0,0.0,0.0,0.0,0.0,0.0,0.0,0.0,0.0,0.0,0.0,0.0,0.0,0.0,0.0,0.0,0.0,0.0,0.0,0.0,0.0,0.0,0.0,0.0,0.0,0.0,0.0,0.0,0.0,0.0,-4.1982,-4.2879,-4.4015,-4.4084,-4.4268,-4.4568,-4.384,-4.3358,-4.3235,0.0,0.0,0.0,0.0,0.0,0.0,0.0,0.0,0.0,0.0,0.0,0.0,0.0,0.0,0.0,0.0,0.0,0.0,0.0,0.0,0.0,0.0,0.0,0.0,0.0,0.0,0.0,0.0,0.0,0.0,0.0,0.0,0.0,0.0,0.0,0.0,0.0,0.0,-4.0249,-4.255,0.0,0.0,0.0,0.0,0.0,0.0,0.0,0.0,-4.6834,0.0,0.0,0.0,0.0,0.0,0.0,0.0,0.0,0.0,0.0,0.0,0.0,0.0,0.0,0.0,0.0,0.0,0.0,0.0,0.0,0.0,0.0,0.0,0.0,0.0,0.0,0.0,0.0,0.0,0.0,0.0,0.0,0.0,0.0,0.0,0.0,0.0,0.0,0.0,0.0,0.0,0.0,0.0,0.0,0.0,0.0,0.0,0.0,0.0,0.0,0.0,0.0,0.0,0.0,0.0,0.0,-4.21,-4.2219,-4.3017,-4.4444,-4.4495,-4.455,-4.4572,-4.3814,-4.3296,-4.3061,0.0,0.0,0.0,0.0,0.0,0.0,0.0,0.0,0.0,0.0,0.0,0.0,0.0,0.0,0.0,0.0,0.0,0.0,0.0,0.0,0.0,0.0,0.0,0.0,0.0,0.0,0.0,0.0,0.0,0.0,0.0,0.0,0.0,0.0,0.0,0.0,0.0,0.0,0.0,-4.4025,-4.6108,0.0,0.0,0.0,0.0,0.0,0.0,0.0,0.0,-4.7945,0.0,0.0,0.0,0.0,0.0,0.0,0.0,0.0,0.0,0.0,0.0,0.0,0.0,0.0,0.0,0.0,0.0,0.0,0.0,0.0,0.0,0.0,0.0,0.0,0.0,0.0,0.0,0.0,0.0,0.0,0.0,0.0,0.0,0.0,0.0,0.0,0.0,0.0,0.0,0.0,0.0,0.0,0.0,0.0,0.0,0.0,0.0,0.0,0.0,0.0,0.0,0.0,0.0,0.0,0.0,-4.2168,-4.2303,-4.3031,-4.453,-4.4598,-4.4384,-4.3995,-4.3623,-4.2986,0.0,0.0,0.0,0.0,0.0,0.0,0.0,0.0,0.0,0.0,0.0,0.0,0.0,0.0,0.0,0.0,0.0,0.0,0.0,0.0,0.0,0.0,0.0,0.0,0.0,0.0,0.0,0.0,0.0,0.0,0.0,0.0,0.0,0.0,0.0,0.0,0.0,0.0,0.0,0.0,-4.4841,-4.6466,-4.8305,0.0,0.0,0.0,0.0,0.0,0.0,-4.9757,-4.9192,0.0,0.0,0.0,0.0,0.0,0.0,0.0,0.0,0.0,0.0,0.0,0.0,0.0,0.0,0.0,0.0,0.0,0.0,0.0,0.0,0.0,0.0,0.0,0.0,0.0,0.0,0.0,0.0,0.0,0.0,0.0,0.0,0.0,0.0,0.0,0.0,0.0,0.0,0.0,0.0,0.0,0.0,0.0,0.0,0.0,0.0,0.0,0.0,0.0,0.0,0.0,0.0,0.0,0.0,0.0,-4.2185,-4.1972,-4.2689,-4.4496,-4.431,-4.3893,-4.3392,-4.3105,-4.2395,0.0,0.0,0.0,0.0,0.0,0.0,0.0,0.0,0.0,0.0,0.0,0.0,0.0,0.0,0.0,0.0,0.0,0.0,0.0,0.0,0.0,0.0,0.0,0.0,0.0,0.0,0.0,0.0,0.0,0.0,0.0,0.0,0.0,0.0,0.0,0.0,0.0,0.0,0.0,0.0,0.0,-4.6821,-4.8615,-4.8906,0.0,0.0,0.0,0.0,-5.0057,-5.0275,0.0,0.0,0.0,0.0,0.0,0.0,0.0,0.0,0.0,0.0,0.0,0.0,0.0,0.0,0.0,0.0,0.0,0.0,0.0,0.0,0.0,0.0,0.0,0.0,0.0,0.0,0.0,0.0,0.0,0.0,0.0,0.0,0.0,0.0,0.0,0.0,0.0,0.0,0.0,0.0,0.0,0.0,0.0,0.0,0.0,0.0,0.0,0.0,0.0,0.0,0.0,0.0,0.0,0.0,0.0,0.0,-4.2083,-4.0793,-4.1499,-4.435,-4.3278,-4.2828,-4.3341,-4.2151,-4.139,0.0,0.0,0.0,0.0,0.0,0.0,0.0,0.0,0.0,0.0,0.0,0.0,0.0,0.0,0.0,0.0,0.0,0.0,0.0,0.0,0.0,0.0,0.0,0.0,0.0,0.0,0.0,0.0,0.0,0.0,0.0,0.0,0.0,0.0,0.0,0.0,0.0,0.0,0.0,0.0,0.0,-4.8116,-4.9392,-5.0211,-5.0605,0.0,0.0,-5.0685,-5.0028,-5.0432,0.0,0.0,0.0,0.0,0.0,0.0,0.0,0.0,0.0,0.0,0.0,0.0,0.0,0.0,0.0,0.0,0.0,0.0,0.0,0.0,0.0,0.0,0.0,0.0,0.0,0.0,0.0,0.0,0.0,0.0,0.0,0.0,0.0,0.0,0.0,0.0,0.0,0.0,0.0,0.0,0.0,0.0,0.0,0.0,0.0,0.0,0.0,0.0,0.0,0.0,0.0,0.0,0.0,0.0,0.0,-3.8059,-4.1154,-4.0215,-4.0857,-4.327,-4.2395,-4.1994,-4.2239,-4.1362,-4.0687,0.0,0.0,0.0,0.0,0.0,0.0,0.0,0.0,0.0,0.0,0.0,0.0,0.0,0.0,0.0,0.0,0.0,0.0,0.0,0.0,0.0,0.0,0.0,0.0,0.0,0.0,0.0,0.0,0.0,0.0,0.0,0.0,0.0,0.0,0.0,0.0,0.0,0.0,0.0,0.0,0.0,0.0,-4.9158,-5.0266,0.0,0.0,0.0,-5.0954,-5.083,0.0,0.0,0.0,0.0,0.0,0.0,0.0,0.0,0.0,0.0,0.0,0.0,0.0,0.0,0.0,0.0,0.0,0.0,0.0,0.0,0.0,0.0,0.0,0.0,0.0,0.0,0.0,0.0,0.0,0.0,0.0,0.0,0.0,0.0,0.0,0.0,0.0,0.0,0.0,0.0,0.0,0.0,0.0,0.0,0.0,0.0,0.0,0.0,0.0,0.0,0.0,0.0,0.0,0.0,0.0,0.0,0.0,-4.0542,-3.9564,-4.0105,-4.2249,-4.149,-4.1028,-4.1001,-4.0387,0.0,0.0,0.0,0.0,0.0,0.0,0.0,0.0,0.0,0.0,0.0,0.0,0.0,0.0,0.0,0.0,0.0,0.0,0.0,0.0,0.0,0.0,0.0,0.0,0.0,0.0,0.0,-3.474,0.0,0.0,0.0,0.0,0.0,0.0,0.0,0.0,0.0,0.0,0.0,0.0,0.0,0.0,-4.7959,-4.8652,-4.9749,-5.0328,0.0,0.0,-5.1051,-5.1351,-5.1356,-5.1051,0.0,0.0,0.0,0.0,0.0,0.0,0.0,0.0,0.0,0.0,0.0,0.0,0.0,0.0,0.0,0.0,0.0,0.0,0.0,0.0,0.0,0.0,0.0,0.0,0.0,0.0,0.0,0.0,0.0,0.0,0.0,0.0,0.0,0.0,0.0,0.0,0.0,0.0,0.0,0.0,0.0,0.0,0.0,0.0,0.0,0.0,0.0,0.0,0.0,0.0,0.0,0.0,0.0,0.0,0.0,-4.0565,-3.8584,-3.8957,-4.1837,-4.0448,-3.9748,-3.9943,-3.9113,-3.8662,0.0,0.0,0.0,0.0,0.0,0.0,0.0,0.0,0.0,0.0,0.0,0.0,0.0,0.0,0.0,0.0,0.0,0.0,0.0,0.0,0.0,0.0,0.0,0.0,0.0,0.0,0.0,0.0,0.0,0.0,0.0,0.0,0.0,0.0,0.0,0.0,0.0,0.0,0.0,0.0,0.0,-4.7363,-4.7982,-4.8729,-4.931,0.0,0.0,-5.0823,-5.1165,-5.1756,-5.1485,-4.9463,0.0,0.0,0.0,0.0,0.0,0.0,0.0,0.0,0.0,0.0,0.0,0.0,0.0,0.0,0.0,0.0,0.0,0.0,0.0,0.0,0.0,0.0,0.0,0.0,0.0,0.0,0.0,0.0,0.0,0.0,0.0,0.0,0.0,0.0,0.0,0.0,0.0,0.0,0.0,0.0,0.0,0.0,0.0,0.0,0.0,0.0,0.0,0.0,0.0,0.0,0.0,0.0,0.0,-3.654,-3.9077,-3.7856,-3.8402,-4.0606,-3.9313,-3.8791,-3.9314,-3.8231,-3.7735,0.0,0.0,0.0,0.0,0.0,0.0,0.0,0.0,0.0,0.0,0.0,0.0,0.0,0.0,0.0,0.0,0.0,0.0,0.0,0.0,0.0,0.0,0.0,0.0,0.0,0.0,0.0,0.0,-3.4738,-3.455,-3.4286,0.0,0.0,0.0,0.0,0.0,0.0,0.0,0.0,0.0,0.0,-4.7734,-4.7968,-4.8978,0.0,0.0,-5.046,-5.1263,-5.0943,-5.1291,-5.12,-4.9881,-4.8697,0.0,0.0,0.0,0.0,0.0,0.0,0.0,0.0,0.0,0.0,0.0,0.0,0.0,0.0,0.0,0.0,0.0,0.0,0.0,0.0,0.0,0.0,0.0,0.0,0.0,0.0,0.0,0.0,0.0,0.0,0.0,0.0,0.0,0.0,0.0,0.0,0.0,0.0,0.0,0.0,0.0,0.0,0.0,0.0,0.0,0.0,0.0,0.0,0.0,0.0,0.0,0.0,-3.6199,-3.7873,-3.747,-3.7994,-3.948,-3.8733,-3.8362,-3.8496,-3.7592,-3.7139,0.0,0.0,0.0,0.0,0.0,0.0,0.0,0.0,0.0,0.0,0.0,0.0,0.0,0.0,0.0,0.0,0.0,0.0,0.0,0.0,0.0,0.0,0.0,0.0,0.0,0.0,0.0,0.0,-3.4638,-3.4348,-3.4348,0.0,0.0,0.0,0.0,0.0,0.0,0.0,0.0,0.0,0.0,-4.7249,-4.7427,-4.8625,-4.9452,-4.9227,-5.0482,-5.1376,-5.1078,-5.0927,-5.0655,-5.006,0.0,0.0,0.0,0.0,0.0,0.0,0.0,0.0,0.0,0.0,0.0,0.0,0.0,0.0,0.0,0.0,0.0,0.0,0.0,0.0,0.0,0.0,0.0,0.0,0.0,0.0,0.0,-3.4916,0.0,0.0,-3.4931,0.0,0.0,0.0,0.0,0.0,0.0,0.0,0.0,0.0,0.0,0.0,0.0,0.0,0.0,0.0,0.0,0.0,0.0,0.0,0.0,0.0,0.0,-3.6131,-3.7382,-3.7401,-3.7738,-3.8447,-3.8899,-3.8599,-3.7522,-3.7263,-3.6964,-3.643,0.0,0.0,0.0,0.0,0.0,0.0,0.0,0.0,0.0,0.0,0.0,0.0,0.0,0.0,0.0,0.0,0.0,0.0,0.0,0.0,0.0,0.0,0.0,0.0,0.0,0.0,-3.449,-3.4535,-3.452,0.0,0.0,0.0,0.0,0.0,0.0,0.0,0.0,0.0,0.0,-4.451,-4.5567,-4.6113,-4.7281,-4.8541,-4.9491,-5.0253,-5.0966,-5.1612,-5.0825,-4.9991,0.0,0.0,0.0,0.0,0.0,0.0,0.0,0.0,0.0,0.0,0.0,0.0,0.0,0.0,0.0,0.0,0.0,0.0,0.0,0.0,0.0,0.0,0.0,0.0,0.0,0.0,0.0,-3.4639,-3.4494,0.0,0.0,0.0,0.0,0.0,0.0,0.0,0.0,0.0,0.0,0.0,-3.5512,-3.4428,0.0,0.0,0.0,0.0,0.0,0.0,0.0,0.0,0.0,0.0,0.0,0.0,-3.6112,-3.7319,-3.7387,-3.7958,-3.902,-3.8808,-3.8266,-3.7419,-3.6959,-3.6412,-3.5692,0.0,0.0,0.0,0.0,0.0,0.0,0.0,0.0,0.0,0.0,0.0,0.0,0.0,0.0,0.0,0.0,0.0,0.0,0.0,0.0,0.0,0.0,0.0,0.0,0.0,-3.4412,0.0,0.0,0.0,0.0,0.0,0.0,0.0,0.0,0.0,0.0,0.0,-4.3769,-4.3961,-4.4664,-4.5397,-4.5993,-4.6901,-4.7799,0.0,0.0,0.0,0.0,0.0,0.0,0.0,0.0,0.0,0.0,0.0,0.0,0.0,0.0,-4.6126,-4.5626,-4.5952,-4.6255,-4.6096,0.0,0.0,0.0,0.0,0.0,0.0,0.0,0.0,0.0,0.0,0.0,0.0,0.0,0.0,-3.4233,0.0,-3.4118,0.0,0.0,0.0,0.0,0.0,0.0,0.0,0.0,-3.396,-3.4048,-3.5061,-3.4007,-3.3865,0.0,-3.3899,-3.3754,0.0,0.0,0.0,0.0,0.0,0.0,0.0,0.0,-3.5644,-3.6431,-3.6615,-3.7129,-3.7929,-3.7816,-3.7386,-3.6714,-3.6092,-3.5535,-3.4991,-3.3782,-3.3114,0.0,0.0,0.0,0.0,0.0,0.0,0.0,0.0,0.0,0.0,0.0,0.0,0.0,0.0,0.0,0.0,0.0,0.0,0.0,0.0,0.0,0.0,0.0,-3.4738,0.0,0.0,0.0,0.0,0.0,0.0,0.0,0.0,0.0,-4.1047,-4.2698,-4.37,-4.3405,-4.4403,-4.5349,-4.5764,0.0,0.0,0.0,0.0,0.0,0.0,0.0,-4.9017,-4.8548,-4.8211,-4.7786,-4.7111,-4.66,-4.6335,-4.648,0.0,0.0,-4.707,-4.7597,-4.8054,-4.81,-4.8311,-4.8491,-4.8602,-4.8519,-4.857,0.0,0.0,0.0,0.0,0.0,0.0,0.0,0.0,-3.3648,-3.3623,0.0,-3.3599,0.0,0.0,0.0,0.0,0.0,-3.3724,0.0,0.0,-3.3428,-3.3068,-3.3068,-3.3068,-3.3068,-3.3043,-3.2533,-3.2686,-3.3375,-3.3376,0.0,0.0,0.0,0.0,0.0,0.0,-3.4674,-3.4772,-3.5209,-3.5415,-3.5503,-3.6096,-3.6081,-3.5456,-3.4762,-3.4414,-3.4385,-3.3713,-3.309,-3.2513,-3.2121,0.0,0.0,0.0,0.0,0.0,0.0,0.0,0.0,0.0,0.0,0.0,0.0,0.0,0.0,0.0,0.0,0.0,0.0,0.0,0.0,-3.3919,0.0,0.0,0.0,0.0,0.0,0.0,0.0,0.0,0.0,0.0,-4.0661,-4.1956,-4.2543,-4.1878,0.0,0.0,0.0,0.0,-4.8256,-4.8271,-4.8754,-4.9003,-4.8765,-4.8887,-4.8694,-4.7706,0.0,0.0,-4.7466,-4.7419,-4.7504,-4.7935,-4.8001,-4.7933,-4.7521,-4.8281,-4.8954,-4.9001,-4.9066,-4.9052,-4.9018,-4.9073,-4.8978,-3.2441,0.0,0.0,0.0,0.0,-3.2488,-3.2475,-3.2506,-3.2506,-3.2418,-3.2274,-3.2274,0.0,0.0,0.0,0.0,0.0,0.0,-3.2278,-3.2481,-3.222,-3.2113,-3.2101,-3.2431,-3.2605,-3.2605,-3.2777,-3.2945,-3.3174,-3.2754,-3.3167,-3.437,0.0,0.0,0.0,0.0,-3.4223,-3.5073,-3.5249,-3.5574,-3.6031,-3.6273,-3.6081,-3.5407,-3.4733,-3.438,-3.438,-3.3109,-3.2433,-3.2497,-3.1357,0.0,0.0,0.0,0.0,0.0,0.0,0.0,0.0,0.0,0.0,0.0,0.0,0.0,0.0,0.0,0.0,0.0,0.0,0.0,-3.3337,-3.4007,-3.4601,0.0,0.0,0.0,0.0,0.0,0.0,0.0,0.0,0.0,-4.0495,-4.15,-4.2269,0.0,0.0,-4.4436,-4.5188,-4.6205,-4.7054,-4.7521,-4.7737,0.0,-4.8353,-4.8059,-4.7796,-4.798,-4.7655,-4.7488,-4.7853,-4.7894,-4.7915,-4.7993,-4.8631,-4.897,-4.843,-4.8876,-4.9399,-4.9481,-5.0028,-5.0371,-4.9898,-4.9779,-4.9732,-3.1259,-3.1459,-3.1408,-3.1521,-3.1723,-3.1723,-3.1772,-3.1896,-3.1896,-3.1803,-3.1705,-3.1705,-3.1989,-3.2432,-3.242,0.0,0.0,0.0,-3.1705,-3.1705,-3.1705,-3.1705,-3.1705,-3.1994,-3.2113,-3.2125,-3.2419,-3.2537,-3.255,-3.2375,-3.2754,-3.3637,0.0,0.0,-3.42,-3.372,-3.3813,-3.4546,-3.4499,-3.4637,-3.5072,-3.5092,-3.4927,-3.4526,-3.4147,-3.3914,-3.3914,-3.2792,-3.2124,-3.204,-3.1128,-3.0357,0.0,0.0,0.0,0.0,0.0,0.0,0.0,0.0,0.0,0.0,0.0,-3.1289,-3.2414,0.0,0.0,0.0,-3.173,-3.2402,-3.3182,-3.3437,0.0,0.0,0.0,0.0,0.0,0.0,0.0,-3.8456,-3.9467,-4.0276,-4.0476,-4.1068,-4.1646,-4.2117,-4.3096,-4.4024,-4.4645,0.0,-4.6312,-4.6945,-4.7033,-4.7207,-4.7794,-4.7741,-4.7748,-4.8118,-4.759,-4.7255,-4.7601,-4.7716,-4.7688,-4.7728,-4.8172,-4.8447,-4.801,-4.8639,-4.9393,-4.9776,-5.0693,-5.1226,-5.0854,-5.112,-5.1246,-3.0194,-3.0159,-2.9997,-3.0286,-3.0718,-3.073,-3.1049,-3.156,-3.1572,-3.1572,-3.1572,-3.1572,-3.1572,-3.1572,-3.1584,0.0,-3.1572,-3.1572,-3.1572,-3.1584,-3.1572,-3.1572,-3.1572,-3.1617,-3.1617,-3.1617,-3.1661,-3.1705,-3.1749,-3.2113,-3.245,-3.2657,-3.2596,-3.2935,-3.3624,-3.3496,-3.342,-3.346,-3.329,-3.3198,-3.3223,-3.3223,-3.3223,-3.3223,-3.3223,-3.3209,-3.3196,-3.2666,-3.2095,-3.1474,-3.1172,-3.0668,-2.9912,0.0,0.0,0.0,0.0,0.0,0.0,0.0,0.0,0.0,0.0,0.0,0.0,0.0,0.0,0.0,-3.072,0.0,-3.2503,-3.2668,0.0,0.0,0.0,-3.5845,-3.5602,-3.7222,-3.8477,-3.8846,0.0,0.0,-4.0532,-4.0616,-4.0773,-4.1269,-4.2768,-4.3791,-4.3892,-4.4951,-4.5913,-4.6432,-4.6594,-4.6785,-4.7207,-4.7706,-4.8083,-4.8063,-4.7541,-4.7191,-4.7254,-4.7278,-4.7231,-4.7278,-4.7161,-4.7109,-4.703,-4.7832,-4.8766,-4.9633,-5.0807,-5.1614,-5.1463,-5.2186,-5.247,-2.9869,-2.988,-2.9613,-2.982,-3.0358,-3.0347,-3.0416,-3.0578,-3.0578,-3.0589,-3.0521,-3.0521,-3.0532,-3.0578,-3.0578,-3.0578,-3.0532,-3.0578,-3.0578,-3.0532,-3.0532,-3.0578,-3.0578,-3.0949,-3.1083,-3.1128,-3.1484,-3.1705,-3.1705,-3.1805,-3.2084,-3.2438,-3.2431,-3.2806,-3.342,-3.2866,-3.2727,-3.3203,-3.314,-3.3144,-3.3197,-3.3223,-3.3223,-3.3223,-3.3223,-3.3223,-3.3184,-3.2647,-3.2085,-3.1512,-3.0984,-3.0241,-2.9208,-2.9754,0.0,0.0,0.0,0.0,0.0,0.0,0.0,0.0,0.0,-3.0699,-3.1954,0.0,-3.1013,0.0,-3.0725,-3.1164,-3.2393,-3.3423,0.0,0.0,-3.6088,-3.6803,-3.6478,-3.7365,-3.8006,-3.7923,-3.8428,-3.9074,-3.9766,-3.9867,-4.0112,-4.0801,-4.1967,-4.3056,-4.3791,-4.4603,-4.5344,-4.5855,-4.6284,-4.6639,-4.6771,-4.7193,-4.7536,-4.7498,-4.7359,-4.7452,-4.7921,-4.8019,-4.7973,-4.7962,-4.7911,-4.7715,-4.7176,-4.7262,-4.7453,-4.783,-4.9251,-5.0407,-4.9892,-5.0627,-5.1094,-2.9591,-2.9564,-2.9383,-2.951,-2.9795,-2.9795,-2.9795,-2.9795,-2.9806,-2.9795,-2.9783,-2.9795,-2.9806,-2.9795,-2.9795,-2.9673,-2.9473,-2.9509,-2.9398,-2.9198,-2.9244,-2.9382,-2.9715,-2.9988,-3.0261,-3.0578,-3.0892,-3.1026,-3.1026,-3.1261,-3.1484,-3.1705,-3.1981,-3.2247,-3.2608,-3.2634,-3.2754,-3.3111,-3.3107,-3.3098,-3.3131,-3.3159,-3.3146,-3.3159,-3.3159,-3.3159,-3.3159,-3.2587,-3.2028,-3.1479,-3.0933,-3.0218,-2.9377,-2.9681,-2.9753,0.0,0.0,0.0,0.0,0.0,0.0,0.0,0.0,0.0,0.0,0.0,-3.1492,-3.2097,-3.1638,-3.1845,-3.3133,-3.3796,-3.4414,-3.4959,-3.5896,-3.6418,-3.6165,-3.7061,-3.7685,-3.7609,-3.8084,-3.8644,-3.906,-3.9091,-3.937,-4.0112,-4.0738,-4.1578,-4.2681,-4.3455,-4.4174,-4.4942,-4.5341,-4.574,-4.6151,-4.6476,-4.6712,-4.6946,-4.699,-4.7207,-4.7752,-4.7837,-4.7828,-4.7797,-4.7763,-4.7642,-4.7241,-4.7107,-4.6979,-4.6845,-4.7754,-4.8702,-4.889,-4.9725,-5.0243,-2.9228,-2.9228,-2.9192,-2.9182,-2.9228,-2.9182,-2.92,-2.9282,-2.9282,-2.9282,-2.9282,-2.9282,-2.9282,-2.9282,-2.9282,-2.9059,-2.8726,-2.8715,-2.8471,-2.8094,-2.8083,-2.838,-2.8932,-2.9082,-2.9439,-3.0034,-3.017,-3.0216,-3.0216,-3.0623,-3.0859,-3.0904,-3.1395,-3.1617,-3.1761,-3.2506,-3.2952,-3.2939,-3.2982,-3.2995,-3.2995,-3.3068,-3.3124,-3.3124,-3.3124,-3.3124,-3.3111,-3.2591,-3.2064,-3.1524,-3.1032,-3.049,-2.9952,-2.9825,-3.0048,0.0,-2.953,0.0,0.0,0.0,0.0,0.0,0.0,0.0,0.0,-3.1177,-3.2019,-3.3209,-3.2547,-3.258,-3.3949,-3.3994,-3.4134,-3.4718,-3.5282,-3.5596,-3.568,-3.6662,-3.7361,-3.7374,-3.79,-3.8238,-3.8342,-3.8373,-3.8644,-3.9326,-3.9522,-4.0035,-4.1128,-4.205,-4.2893,-4.3847,-4.4022,-4.4522,-4.5414,-4.5677,-4.59,-4.6358,-4.6491,-4.6609,-4.6885,-4.7089,-4.7178,-4.713,-4.7151,-4.7239,-4.7209,-4.7096,-4.6749,-4.6268,-4.6564,-4.7121,-4.799,-4.912,-4.9739,-2.8901,-2.8891,-2.8635,-2.8617,-2.8891,-2.8625,-2.8819,-2.9282,-2.9282,-2.9282,-2.9282,-2.9282,-2.9282,-2.9282,-2.9282,-2.9229,-2.9204,-2.9144,-2.8949,-2.8503,-2.8503,-2.8386,-2.8243,-2.8839,-2.9174,-2.9347,-2.9909,-3.0216,-3.0216,-3.0261,-3.0532,-3.0904,-3.0994,-3.1261,-3.1661,0.0,0.0,0.0,-3.2419,-3.2519,-3.2562,-3.2909,-3.3124,-3.3124,-3.3124,0.0,-3.3124,-3.2968,-3.2641,-3.2102,-3.181,0.0,0.0,0.0,0.0,0.0,0.0,0.0,0.0,0.0,0.0,0.0,-2.99,-2.9858,-2.9593,-3.002,-3.0599,-3.1282,-3.1144,-3.1705,-3.3245,-3.3752,-3.4367,-3.5236,-3.5881,-3.6241,-3.6254,-3.6471,-3.6581,-3.664,-3.6722,-3.7036,-3.7592,-3.7684,-3.7946,-3.8585,-3.8786,-3.9139,-3.9889,-4.1026,-4.2052,-4.2747,-4.3245,-4.3844,-4.4936,-4.5023,-4.5197,-4.5752,-4.5927,-4.5812,-4.5522,-4.6138,-4.6461,-4.6047,-4.6644,-4.7242,-4.7212,-4.6765,-4.6327,-4.6199,-4.5773,-4.5683,-4.6402,-4.7777,-4.8854,-2.8548,-2.8515,-2.8353,-2.8377,0.0,-2.8363,-2.846,-2.8798,-2.8808,-2.8808,-2.8808,-2.8808,-2.8808,-2.8808,-2.8808,-2.8686,-2.8493,-2.8533,-2.8176,-2.7554,-2.7533,-2.7482,-2.7478,-2.7846,-2.8314,-2.8849,-2.9225,-2.9534,-2.9766,-2.9766,-2.9985,-3.0364,-3.0376,-3.056,-3.0949,-3.0937,-3.125,-3.1825,-3.1969,-3.2081,-3.2025,-3.2288,-3.2419,-3.2407,-3.2407,0.0,0.0,0.0,0.0,0.0,0.0,0.0,0.0,-2.9721,0.0,-2.9575,-2.9119,-2.8989,-2.9273,-2.9279,-2.9314,-2.935,-2.9578,-2.9839,-2.9966,-3.0248,-3.062,-3.1192,-3.148,-3.1986,-3.2755,-3.3323,-3.3842,-3.4367,-3.4684,-3.5024,-3.5506,-3.5615,-3.5834,-3.632,-3.6417,-3.6546,-3.6909,-3.6956,-3.7268,-3.7887,-3.8071,-3.8354,-3.9023,-4.0012,-4.1011,-4.1938,-4.258,-4.3101,-4.3608,-4.3783,-4.3943,-4.4437,-4.4553,-4.4557,-4.4472,-4.4924,-4.5186,-4.4951,-4.5723,-4.6367,-4.6068,-4.6104,-4.6029,-4.546,-4.5199,-4.5086,-4.522,-4.6271,-4.7324,-2.8301,-2.8301,-2.8301,-2.8301,-2.8301,-2.8301,-2.8301,-2.8301,0.0,0.0,0.0,-2.8301,-2.8301,-2.8301,-2.8301,-2.8105,-2.7836,-2.7826,-2.7415,-2.6621,-2.6611,-2.6715,-2.6911,-2.7036,-2.7607,-2.8484,-2.865,-2.8911,-2.9271,-2.9282,-2.9445,-2.9689,-2.9704,-2.9828,-3.0043,-3.0066,-3.048,-3.1303,-3.1487,-3.1572,-3.1572,-3.1673,-3.1705,-3.1705,-3.1705,-3.1705,-3.1705,-3.1705,-3.1444,-3.1011,-3.0889,-3.0654,-3.018,-2.9612,-2.9487,-2.9838,-2.9398,-2.9183,-2.9406,-2.9312,-2.91,-2.879,-2.9157,-2.9785,-3.0628,-3.0715,-3.0906,-3.1403,-3.1833,-3.2153,-3.2364,-3.2747,-3.3094,-3.327,-3.3294,-3.3661,-3.4411,-3.4544,-3.4928,-3.5906,-3.61,-3.621,-3.6392,-3.6465,-3.6593,-3.7163,-3.7344,-3.756,-3.8278,-3.918,-4.0164,-4.1016,-4.1709,-4.2263,-4.2432,-4.2446,-4.2622,-4.3147,-4.325,-4.3268,-4.3517,-4.3733,-4.382,-4.3762,-4.4587,-4.5021,-4.4783,-4.5183,-4.5448,-4.4404,-4.4544,-4.4697,-4.4311,-4.4924,-4.5728,-2.8301,-2.8301,-2.8301,-2.8301,-2.8301,-2.8301,-2.8301,-2.8301,-2.8301,-2.8301,-2.8301,-2.8301,-2.8301,-2.8301,-2.8301,-2.8262,-2.8203,-2.8203,-2.7949,-2.7542,-2.748,-2.7349,-2.7038,-2.7643,-2.8013,-2.8214,-2.888,-2.9218,-2.9271,-2.9292,-2.9299,-2.9355,-2.9383,-2.939,-2.9434,-2.9423,-2.9628,-3.0088,-3.0673,-3.0994,-3.1038,-3.1439,-3.1705,-3.1705,-3.1661,-3.1705,-3.1705,-3.1705,-3.1669,-3.1565,-3.1364,-3.1107,-3.0758,-3.0077,-2.968,-2.9563,-2.9057,-2.9,-2.9443,-2.8924,-2.8701,-2.9011,-2.9133,-2.9476,-3.0191,-3.0281,-3.0328,-3.0442,-3.0568,-3.0925,-3.1757,-3.1945,-3.2342,-3.3094,-3.327,-3.3365,-3.3484,-3.353,-3.3922,-3.4903,-3.5024,-3.5409,-3.6138,-3.6332,-3.6367,-3.6552,-3.6695,-3.6936,-3.7714,-3.8813,-3.9582,-3.9906,-4.0481,-4.1136,-4.1483,-4.1741,-4.1938,-4.2589,-4.2634,-4.2497,-4.2119,-4.2708,-4.3055,-4.2711,-4.3531,-4.4079,-4.4049,-4.4038,-4.4039,-4.3711,-4.3707,-4.3598,-4.3488,-4.4028,-4.4624,-2.8301,-2.8301,-2.8301,-2.8301,-2.8301,-2.8301,-2.8301,-2.8301,-2.8301,-2.8301,-2.8301,-2.8301,-2.8301,-2.8301,-2.8301,-2.8301,-2.8301,-2.8301,-2.8066,-2.7738,-2.7728,-2.7483,-2.7041,-2.7358,-2.761,-2.789,-2.8258,-2.8543,-2.8756,-2.8777,-2.886,-2.903,-2.9221,-2.9282,-2.9282,-2.9282,-2.9383,-2.9521,-2.987,-3.0146,-3.0318,-3.0537,-3.0675,-3.0675,-3.0774,-3.0892,-3.0904,-3.0892,-3.0892,-3.0904,-3.0758,-3.0623,-3.0521,-2.9968,-2.9696,-2.986,-2.924,-2.9116,-2.9633,-2.894,-2.8607,-2.8823,-2.8845,-2.8976,-2.9294,-2.985,-3.0216,-3.0216,-3.0216,-3.0399,-3.088,-3.0938,-3.1122,-3.1573,-3.1596,-3.1852,-3.2342,-3.2505,-3.2893,-3.3768,-3.3959,-3.4399,-3.5409,-3.5518,-3.5809,-3.6245,-3.6409,-3.6593,-3.6948,-3.7794,-3.8612,-3.8957,-3.9282,-3.9567,-3.9929,-4.0294,-4.0609,-4.0916,-4.1325,-4.1389,-4.1137,-4.1636,-4.1694,-4.1624,-4.2367,-4.2897,-4.2725,-4.3034,-4.3111,-4.2843,-4.2924,-4.2945,-4.305,-4.3394,-4.3989,-2.8301,-2.8301,-2.8301,-2.8301,-2.8301,-2.8301,-2.8301,-2.8301,-2.8301,-2.8301,-2.8301,-2.8301,-2.8301,-2.8301,-2.8301,-2.8301,-2.8301,-2.8301,-2.8115,-2.7822,-2.7803,-2.7627,-2.7334,-2.7295,-2.748,-2.7773,-2.7865,-2.8022,-2.8262,-2.8301,-2.8443,-2.8671,-2.8921,-2.9099,-2.9048,-2.9099,-2.9097,-2.9163,-2.9097,-2.9275,-2.9663,-2.9679,-2.9679,-2.9704,-2.9883,-2.9984,-2.9996,-2.9996,-2.9996,-2.9996,-2.9996,-2.9996,-2.9973,-2.9646,-2.9612,-2.9904,-2.9415,-2.9168,-2.9336,-2.8838,-2.8488,-2.8477,-2.8488,-2.8536,-2.8796,-2.9506,-2.9996,-2.9984,-3.0066,-3.0136,-3.0148,-3.0205,-3.0216,-3.0216,-3.0342,-3.0732,-3.1296,-3.1528,-3.1994,-3.2896,-3.3047,-3.3425,-3.443,-3.4705,-3.5053,-3.5949,-3.6228,-3.6275,-3.6405,-3.6909,-3.7453,-3.7887,-3.8283,-3.8567,-3.8554,-3.8984,-3.9367,-3.937,-3.9834,-4.0196,-4.0342,-4.0443,-4.0573,-4.0786,-4.1383,-4.1796,-4.1468,-4.1965,-4.2346,-4.204,-4.2254,-4.2566,-4.2729,-4.297,-4.3551,-2.8301,-2.8301,-2.8291,-2.8301,-2.8301,-2.8301,-2.8301,-2.8301,-2.8301,-2.8301,-2.8301,-2.8301,-2.8301,-2.8301,-2.8301,-2.8301,-2.8301,-2.8301,-2.8262,-2.8223,-2.8232,-2.8203,-2.8135,-2.8154,-2.8193,-2.8223,-2.8213,-2.8223,-2.8291,-2.8301,-2.8315,-2.8339,-2.8396,-2.84,-2.842,-2.841,-2.8548,-2.8839,-2.8548,-2.8692,-2.9282,-2.9317,-2.9317,-2.9366,-2.9373,-2.94,-2.9445,-2.94,-2.939,-2.94,-2.9417,-2.9379,-2.9428,-2.9336,-2.9336,-2.9417,-2.9291,-2.8979,-2.8354,-2.8155,-2.8155,-2.8155,-2.8155,-2.8464,-2.907,-2.9285,-2.94,-2.9445,-2.9663,-2.985,-2.9864,-3.0088,-3.0217,-3.0217,-3.0595,-3.0778,-3.0583,-3.0767,-3.1472,-3.2465,-3.2264,-3.2674,-3.4246,-3.4462,-3.4628,-3.5534,-3.5656,-3.58,-3.6168,-3.6405,-3.6546,-3.6862,-3.7566,-3.8328,-3.8373,-3.8509,-3.8599,-3.8612,-3.8689,-3.906,-3.9502,-3.9736,-3.9881,-4.04,-4.0715,-4.0829,-4.0972,-4.1199,-4.1524,-4.1565,-4.1771,-4.217,-4.2566,-4.2729,-4.3235,-2.7755,-2.7809,-2.813,-2.8301,-2.8301,-2.8301,-2.8301,-2.8301,-2.8301,-2.8301,-2.8301,-2.8301,-2.8301,-2.8301,-2.8301,-2.8301,-2.8301,-2.8301,-2.8301,-2.8301,-2.8301,-2.8301,-2.8301,-2.8301,-2.8301,-2.8301,-2.8301,-2.8301,-2.8301,-2.8301,-2.8301,-2.8301,-2.8301,-2.8301,-2.8301,-2.8301,-2.8353,-2.8512,-2.8363,-2.8433,-2.8702,-2.888,-2.9001,-2.903,-2.9182,-2.9282,-2.9282,-2.9282,-2.9282,-2.9282,-2.9282,-2.9282,-2.9282,-2.9282,-2.9282,-2.9303,-2.9107,-2.8768,-2.8247,-2.7986,-2.7889,-2.7827,-2.7889,-2.7991,-2.8309,-2.8592,-2.8682,-2.8756,-2.9192,-2.9505,-2.9532,-3.0031,-3.0294,-3.0128,-3.0568,-3.0928,-3.0732,-3.0893,-3.1297,-3.1983,-3.1925,-3.2276,-3.3599,-3.4294,-3.4619,-3.509,-3.5126,-3.5271,-3.5464,-3.5704,-3.5895,-3.6038,-3.6709,-3.7163,-3.7348,-3.7671,-3.7854,-3.7991,-3.8251,-3.8689,-3.8823,-3.897,-3.9193,-3.9924,-4.0025,-4.0243,-4.0702,-4.0787,-4.1001,-4.1086,-4.1339,-4.1771,-4.2225,-4.2511,-4.2915,-2.7215,-2.7269,-2.7799,-2.813,-2.8301,-2.8301,-2.8301,-2.8301,-2.8301,-2.8301,-2.8301,-2.8301,-2.8301,-2.8301,-2.8301,-2.8301,-2.8301,-2.8301,-2.8301,-2.8301,-2.8301,-2.8301,-2.8301,-2.8301,-2.8301,-2.8301,-2.8301,-2.8301,-2.8301,-2.8301,-2.8301,-2.8301,-2.8301,-2.8301,-2.8301,-2.8301,-2.8301,-2.8291,-2.8301,-2.8301,-2.8349,-2.8558,-2.8659,-2.8681,-2.8891,-2.902,-2.902,-2.901,-2.902,-2.902,-2.902,-2.902,-2.901,-2.902,-2.902,-2.903,-2.8819,-2.8538,-2.8325,-2.8008,-2.7832,-2.7894,-2.7842,-2.7832,-2.7891,-2.8125,-2.8281,-2.8329,-2.8745,-2.905,-2.9234,-2.9762,-3.0013,-2.9766,-3.0491,-3.1045,-3.0861,-3.1118,-3.1582,-3.1903,-3.193,-3.2093,-3.2965,-3.3785,-3.436,-3.4531,-3.458,-3.4677,-3.4787,-3.5175,-3.5368,-3.5368,-3.5847,-3.6216,-3.6405,-3.6815,-3.7188,-3.7268,-3.7579,-3.7887,-3.816,-3.8206,-3.8464,-3.9104,-3.9251,-3.956,-4.0055,-4.0329,-4.0559,-4.0744,-4.1001,-4.1381,-4.1785,-4.2117,-4.2404,-2.66,-2.6718,-2.7206,-2.7755,-2.8291,-2.8237,-2.8301,-2.8237,-2.8291,-2.8301,-2.8301,-2.8301,-2.8301,-2.8301,-2.8301,-2.8301,-2.8301,-2.8301,-2.8301,-2.8301,-2.8301,-2.8301,-2.8301,-2.8301,-2.8301,-2.8301,-2.8301,-2.8301,-2.8301,-2.8301,-2.8301,-2.8301,-2.8301,-2.8301,-2.8301,-2.8301,-2.8301,-2.8301,-2.8301,-2.8301,-2.8291,-2.8325,-2.8339,-2.8329,-2.8319,-2.8377,-2.8406,-2.8373,-2.8363,-2.8373,-2.8386,-2.8353,-2.8363,-2.8353,-2.8386,-2.8353,-2.8329,-2.8305,-2.8281,-2.8252,-2.8232,-2.8242,-2.8213,-2.8242,-2.8213,-2.8262,-2.8291,-2.8291,-2.8353,-2.8515,-2.8788,-2.9251,-2.9427,-2.9402,-3.0477,-3.0882,-3.0577,-3.1498,-3.2325,-3.2348,-3.2144,-3.2181,-3.2586,-3.2997,-3.361,-3.3941,-3.404,-3.4188,-3.4531,-3.4726,-3.4823,-3.492,-3.5271,-3.58,-3.6275,-3.6546,-3.6546,-3.664,-3.6862,-3.6803,-3.7222,-3.7638,-3.7991,-3.8296,-3.8477,-3.8836,-3.937,-3.9823,-4.0142,-4.0372,-4.0659,-4.1043,-4.1339,-4.1381,-4.1717,-2.6227,-2.66,-2.6817,-2.7034,-2.726,-2.7593,-2.7711,-2.7755,-2.8121,-2.8301,-2.8301,-2.8301,-2.8301,-2.8301,-2.8301,-2.8301,-2.8301,-2.8301,-2.8301,-2.8301,-2.8301,-2.8301,-2.8301,-2.8301,-2.8301,-2.8301,-2.8301,-2.8301,-2.8301,-2.8301,-2.8301,-2.8301,-2.8301,-2.8301,-2.8301,-2.8301,-2.8301,-2.8301,-2.8301,-2.8301,-2.8301,-2.8301,-2.8301,-2.8301,-2.8301,-2.8301,-2.8301,-2.8301,-2.8301,-2.8301,-2.8301,-2.8301,-2.8301,-2.8301,-2.8301,-2.8301,-2.8301,-2.8301,-2.8301,-2.8301,-2.8301,-2.8301,-2.8301,-2.8301,-2.8301,-2.8301,-2.8301,-2.8301,-2.8301,-2.8353,-2.8572,-2.9032,-2.9291,-2.9176,-2.9836,-3.0393,-3.0413,-3.1086,-3.1843,-3.2151,-3.2453,-3.2833,-3.2925,-3.3178,-3.3369,-3.3519,-3.3568,-3.3668,-3.3805,-3.4101,-3.4286,-3.4384,-3.4738,-3.5175,-3.5307,-3.6026,-3.6405,-3.6405,-3.6499,-3.6546,-3.6828,-3.6862,-3.7176,-3.7671,-3.7854,-3.8115,-3.8702,-3.937,-3.9678,-4.0329,-4.0602,-4.0616,-4.093,-4.1128,-4.1423,-2.5743,-2.6273,-2.6327,-2.6436,-2.6654,-2.6989,-2.7152,-2.7206,-2.7584,-2.7862,-2.797,-2.8023,-2.814,-2.8291,-2.8301,-2.8301,-2.8301,-2.8301,-2.8301,-2.8301,-2.8301,-2.8301,-2.8301,-2.8301,-2.8301,-2.8301,-2.8301,-2.8301,-2.8301,-2.8301,-2.8301,-2.8301,-2.8301,-2.8301,-2.8301,-2.8301,-2.8301,-2.8301,-2.8301,-2.8301,-2.8301,-2.8301,-2.8301,-2.8301,-2.8301,-2.8301,-2.8301,-2.8301,-2.8301,-2.8301,-2.8301,-2.8301,-2.8301,-2.8301,-2.8301,-2.8301,-2.8301,-2.8301,-2.8301,-2.8301,-2.8301,-2.8301,-2.8301,-2.8301,-2.8301,-2.8301,-2.8301,-2.8301,-2.8301,-2.8301,-2.8398,-2.8794,-2.8991,-2.8792,-2.9343,-2.9795,-2.9898,-3.0611,-3.137,-3.2017,-3.275,-3.3197,-3.3281,-3.3281,-3.3281,-3.3281,-3.3281,-3.3281,-3.3331,-3.3519,-3.3805,-3.3805,-3.4188,-3.4482,-3.4677,-3.5247,-3.5835,-3.5943,-3.6323,-3.637,-3.6417,-3.6417,-3.6546,-3.7002,-3.7315,-3.7579,-3.8069,-3.8734,-3.9458,-4.0142,-4.0286,-4.0243,-4.0602,-4.0958,-4.1213,-2.5145,-2.5688,-2.5688,-2.6008,-2.6382,-2.6545,-2.66,-2.6609,-2.6654,-2.7043,-2.7368,-2.7422,-2.7701,-2.8077,-2.8077,-2.8184,-2.813,-2.813,-2.8184,-2.8301,-2.8301,-2.8301,-2.8301,-2.8301,-2.8301,-2.8301,-2.8301,-2.8301,-2.8301,-2.8301,-2.8301,-2.8301,-2.834,-2.835,-2.8301,-2.833,-2.832,-2.8301,-2.8301,-2.8301,-2.8301,-2.8301,-2.8301,-2.8301,-2.8301,-2.8301,-2.8301,-2.8301,-2.8301,-2.8301,-2.8301,-2.8301,-2.8301,-2.8301,-2.8301,-2.8301,-2.8301,-2.8301,-2.8301,-2.8301,-2.8301,-2.8301,-2.8301,-2.8301,-2.8301,-2.8301,-2.8301,-2.8301,-2.8301,-2.8301,-2.8301,-2.8344,-2.8378,-2.8388,-2.8989,-2.9399,-2.9587,-3.0245,-3.1084,-3.1812,-3.2606,-3.322,-3.3281,-3.3281,-3.3281,-3.3281,-3.3281,-3.3281,-3.3281,-3.3381,-3.3331,-3.3419,-3.3706,-3.3991,-3.4188,-3.4433,-3.4969,-3.5464,-3.5991,-3.6275,-3.637,-3.6417,-3.6417,-3.6734,-3.6734,-3.7002,-3.7625,-3.8296,-3.8747,-3.9326,-3.9516,-3.9837,-4.0229,-4.0545,-4.0859,-2.4932,-2.5098,-2.509,-2.5191,-2.5412,-2.5798,-2.5953,-2.6008,-2.6382,-2.6708,-2.6817,-2.6826,-2.698,-2.7098,-2.7152,-2.7142,-2.7152,-2.7142,-2.753,-2.8184,-2.8291,-2.8291,-2.8301,-2.8301,-2.8301,-2.8301,-2.8301,-2.8301,-2.8301,-2.8301,-2.8301,-2.834,-2.8574,-2.8564,-2.832,-2.8555,-2.8603,-2.832,-2.8301,-2.8301,-2.8301,-2.8301,-2.8301,-2.8301,-2.8301,-2.8301,-2.8301,-2.8301,-2.8301,-2.8301,-2.8301,-2.8301,-2.8301,-2.8301,-2.8301,-2.8301,-2.8301,-2.8301,-2.8301,-2.8301,-2.8301,-2.8301,-2.8301,-2.8301,-2.8301,-2.8301,-2.8301,-2.8301,-2.8301,-2.8301,-2.8301,-2.8301,-2.8301,-2.8291,-2.8548,-2.8708,-2.8804,-2.9428,-3.0255,-3.1094,-3.1924,-3.2342,-3.2544,-3.2757,-3.3119,-3.3231,-3.3231,-3.3242,-3.3281,-3.3281,-3.3281,-3.3331,-3.3469,-3.3557,-3.3755,-3.4003,-3.4347,-3.4884,-3.5404,-3.5991,-3.6181,-3.6275,-3.6323,-3.6417,-3.6417,-3.664,-3.7235,-3.7684,-3.8115,-3.8549,-3.8845,-3.9278,-3.9793,-4.0166,-4.0521,-2.4821,-2.4821,-2.4821,-2.4821,-2.4821,-2.52,-2.5357,-2.5412,-2.5743,-2.6063,-2.6218,-2.6282,-2.6382,-2.6545,-2.66,-2.66,-2.66,-2.66,-2.698,-2.7638,-2.7916,-2.8077,-2.8247,-2.8301,-2.8301,-2.8301,-2.8301,-2.8301,-2.8301,-2.8301,-2.8301,-2.8359,-2.8564,-2.8555,-2.835,-2.8691,-2.8721,-2.8369,-2.8447,-2.8457,-2.833,-2.8301,-2.8301,-2.8301,-2.8301,-2.8301,-2.8301,-2.8301,-2.8301,-2.8301,-2.8301,-2.8301,-2.8301,-2.8301,-2.8301,-2.8301,-2.8301,-2.8301,-2.8301,-2.8301,-2.8301,-2.8301,-2.8301,-2.8301,-2.8301,-2.8301,-2.8301,-2.8301,-2.8301,-2.8301,-2.8301,-2.8301,-2.8301,-2.8301,-2.8291,-2.8301,-2.8388,-2.9016,-2.9628,-3.0359,-3.1043,-3.1454,-3.171,-3.1924,-3.2505,-3.2706,-3.2807,-3.3081,-3.3181,-3.3281,-3.3281,-3.3281,-3.3331,-3.3381,-3.3331,-3.3568,-3.3817,-3.4298,-3.4835,-3.5416,-3.5847,-3.5943,-3.5991,-3.6323,-3.6417,-3.6417,-3.6909,-3.6956,-3.7268,-3.771,-3.8279,-3.8882,-3.9424,-3.9875,-4.0237,-2.4821,-2.4821,-2.4821,-2.4821,-2.4821,-2.4876,-2.4876,-2.4821,-2.4876,-2.5191,-2.5578,-2.5688,-2.5898,-2.6327,-2.6282,-2.6282,-2.6436,-2.6391,-2.6445,-2.6718,-2.7043,-2.7476,-2.797,-2.8023,-2.797,-2.8023,-2.8077,-2.8077,-2.8023,-2.8023,-2.8184,-2.8087,-2.811,-2.8213,-2.811,-2.8548,-2.8494,-2.8237,-2.8573,-2.8583,-2.8398,-2.8428,-2.8389,-2.8379,-2.8379,-2.8359,-2.8301,-2.8301,-2.8301,-2.8301,-2.8301,-2.8301,-2.8301,-2.8301,-2.8301,-2.8301,-2.8301,-2.8301,-2.8301,-2.8301,-2.8301,-2.8301,-2.8301,-2.8301,-2.8301,-2.8301,-2.8301,-2.8301,-2.8301,-2.8301,-2.8301,-2.8301,-2.8301,-2.8301,-2.8301,-2.8301,-2.8344,-2.8963,-2.9323,-2.9533,-3.0162,-3.0733,-3.0733,-3.0899,-3.1311,-3.1721,-3.1975,-3.2291,-3.2818,-3.3019,-3.3181,-3.3231,-3.3281,-3.3281,-3.3331,-3.3331,-3.3568,-3.3767,-3.4249,-3.4738,-3.5416,-3.5608,-3.58,-3.6086,-3.637,-3.6417,-3.6465,-3.6593,-3.6781,-3.7188,-3.7805,-3.8501,-3.9057,-3.9448,-3.9961,-2.4821,-2.4821,-2.4821,-2.4821,-2.4821,-2.4821,-2.4821,-2.4821,-2.4821,-2.4923,-2.5034,-2.5043,-2.5145,-2.5302,-2.5311,-2.5247,-2.5357,-2.5302,-2.5578,-2.5907,-2.6072,-2.65,-2.6935,-2.7034,-2.7098,-2.7088,-2.7152,-2.7034,-2.7034,-2.7152,-2.7098,-2.7053,-2.7405,-2.736,-2.7155,-2.7491,-2.7636,-2.7708,-2.8112,-2.8439,-2.869,-2.8969,-2.9062,-2.8779,-2.873,-2.8574,-2.834,-2.8301,-2.8301,-2.8301,-2.8301,-2.8301,-2.8301,-2.8301,-2.8301,-2.8301,-2.8301,-2.8301,-2.8301,-2.8301,-2.8301,-2.8301,-2.8301,-2.8301,-2.8301,-2.8301,-2.8301,-2.8301,-2.8301,-2.8301,-2.8301,-2.8301,-2.8301,-2.8301,-2.8301,-2.8301,-2.8344,-2.8451,-2.8611,-2.8708,-2.9375,-2.9733,-2.9942,-3.0318,-3.0733,-3.1002,-3.1208,-3.1414,-3.2088,-3.2342,-3.2392,-3.3069,-3.3231,-3.3281,-3.3281,-3.3281,-3.3331,-3.3381,-3.3717,-3.4052,-3.4738,-3.5307,-3.5512,-3.5752,-3.6133,-3.6228,-3.637,-3.6465,-3.6687,-3.6815,-3.7359,-3.8018,-3.8515,-3.8955,-3.9615,-2.5206,-2.5052,-2.5044,-2.4958,-2.483,-2.4821,-2.4821,-2.4821,-2.4821,-2.4821,-2.4821,-2.4821,-2.4821,-2.4821,-2.4821,-2.4821,-2.4821,-2.4821,-2.5034,-2.5255,-2.5366,-2.5852,-2.6382,-2.66,-2.66,-2.66,-2.66,-2.6654,-2.6654,-2.66,-2.66,-2.6691,-2.6829,-2.682,-2.67,-2.6967,-2.7114,-2.7193,-2.7491,-2.7861,-2.7984,-2.8174,-2.833,-2.8247,-2.8263,-2.8182,-2.8267,-2.8301,-2.8301,-2.8301,-2.8301,-2.8301,-2.8301,-2.8301,-2.8301,-2.8301,-2.8301,-2.8301,-2.8301,-2.8301,-2.8301,-2.8301,-2.8301,-2.8301,-2.8301,-2.8301,-2.8301,-2.8301,-2.8301,-2.8301,-2.8301,-2.8301,-2.8301,-2.8301,-2.8301,-2.8301,-2.8301,-2.8291,-2.8301,-2.8398,-2.8708,-2.9016,-2.9016,-2.9491,-2.9848,-3.0162,-3.0266,-3.0733,-3.13,-3.1403,-3.1669,-3.224,-3.2505,-3.2403,-3.2555,-3.2656,-3.2969,-3.3069,-3.322,-3.3507,-3.415,-3.492,-3.5223,-3.5512,-3.5847,-3.6133,-3.6228,-3.637,-3.6452,-3.6736,-3.7109,-3.7596,-3.8135,-3.8887,-3.9498,-2.5737,-2.5429,-2.5443,-2.5181,-2.4907,-2.4838,-2.4821,-2.4821,-2.4821,-2.4821,-2.4821,-2.4821,-2.4821,-2.4821,-2.4821,-2.4821,-2.4821,-2.4821,-2.4821,-2.4876,-2.4932,-2.5366,-2.6109,-2.6172,-2.6227,-2.6227,-2.6382,-2.6327,-2.6227,-2.6282,-2.6327,-2.6236,-2.6309,-2.6354,-2.6263,-2.6608,-2.6747,-2.6628,-2.6884,-2.7059,-2.7049,-2.716,-2.7362,-2.7505,-2.7408,-2.766,-2.7979,-2.8194,-2.8184,-2.8301,-2.8301,-2.8301,-2.8301,-2.8301,-2.8301,-2.8301,-2.8301,-2.8301,-2.8301,-2.8301,-2.8301,-2.8301,-2.8301,-2.8301,-2.8301,-2.8301,-2.8301,-2.8301,-2.8301,-2.8301,-2.8301,-2.8301,-2.8301,-2.8301,-2.8301,-2.8301,-2.8301,-2.8301,-2.8301,-2.8291,-2.8291,-2.8291,-2.8301,-2.8344,-2.8601,-2.9333,-2.9438,-2.9848,-3.0318,-3.063,-3.0836,-3.1146,-3.13,-3.1259,-3.1567,-3.1863,-3.2392,-3.2706,-3.2807,-3.3108,-3.3706,-3.4347,-3.4835,-3.5175,-3.532,-3.5704,-3.6133,-3.6228,-3.6288,-3.6707,-3.7123,-3.76,-3.8139,-3.8982,-3.9727,-2.5833,-2.5788,-2.5497,-2.5383,-2.5215,-2.4949,-2.4838,-2.4847,-2.4838,-2.4855,-2.483,-2.483,-2.4821,-2.4821,-2.4821,-2.4821,-2.4821,-2.4821,-2.4821,-2.4821,-2.4821,-2.4876,-2.5255,-2.5311,-2.5255,-2.5247,-2.5191,-2.5191,-2.5255,-2.5366,-2.52,-2.5255,-2.5366,-2.52,-2.5282,-2.5445,-2.5564,-2.586,-2.6274,-2.6614,-2.6939,-2.715,-2.7205,-2.7179,-2.6965,-2.7053,-2.7485,-2.7593,-2.7809,-2.8184,-2.8237,-2.8237,-2.8291,-2.8301,-2.8301,-2.8301,-2.8301,-2.8301,-2.8301,-2.8301,-2.8301,-2.8301,-2.8301,-2.8301,-2.8301,-2.8301,-2.8301,-2.8301,-2.8301,-2.8301,-2.8301,-2.8301,-2.8301,-2.8301,-2.8301,-2.8301,-2.8301,-2.8301,-2.8301,-2.8301,-2.8301,-2.8301,-2.8301,-2.8301,-2.8451,-2.8558,-2.8761,-2.8973,-2.9333,-2.9743,-3.0005,-3.0214,-3.0318,-3.0422,-3.0836,-3.1197,-3.1721,-3.2179,-3.2392,-3.2594,-3.3197,-3.3805,-3.4298,-3.4543,-3.4677,-3.5114,-3.5644,-3.5982,-3.6031,-3.6607,-3.7224,-3.7776,-3.8417,-3.922,-3.9736,-2.6362,-2.6182,-2.5977,-2.5788,-2.5626,-2.5429,-2.5343,-2.53,-2.5138,-2.5078,-2.5035,-2.4915,-2.483,-2.4821,-2.4821,-2.4821,-2.4821,-2.4821,-2.4821,-2.4821,-2.4821,-2.4821,-2.4821,-2.4821,-2.4821,-2.4821,-2.4821,-2.4821,-2.4821,-2.4821,-2.4876,-2.4821,-2.4821,-2.4876,-2.4821,-2.4821,-2.4996,-2.5226,-2.5485,-2.5775,-2.6098,-2.6231,-2.6518,-2.6562,-2.6555,-2.6772,-2.6989,-2.7043,-2.7314,-2.7691,-2.7862,-2.8023,-2.8237,-2.8301,-2.8301,-2.8301,-2.8301,-2.8301,-2.8301,-2.8301,-2.8301,-2.8301,-2.8301,-2.8301,-2.8301,-2.8301,-2.8301,-2.8301,-2.8301,-2.8301,-2.8301,-2.8301,-2.8301,-2.8301,-2.8301,-2.8301,-2.8301,-2.8301,-2.8301,-2.8301,-2.8301,-2.8301,-2.8301,-2.8301,-2.8291,-2.8451,-2.8451,-2.8664,-2.8611,-2.8973,-2.9079,-2.928,-2.9386,-2.9649,-3.0109,-3.0578,-3.1043,-3.1505,-3.1863,-3.2128,-3.2533,-3.3147,-3.3767,-3.4003,-3.4298,-3.4592,-3.509,-3.5393,-3.5928,-3.6528,-3.7207,-3.7966,-3.8642,-3.9283,-3.9609,-2.6884,-2.6568,-2.6516,-2.6302,-2.6037,-2.5885,-2.5891,-2.5799,-2.5532,-2.5326,-2.5292,-2.4975,-2.4821,-2.4821,-2.4821,-2.4821,-2.4821,-2.4821,-2.4821,-2.4821,-2.4821,-2.4821,-2.4821,-2.4821,-2.4821,-2.4821,-2.4821,-2.4821,-2.4821,-2.4821,-2.4821,-2.4821,-2.4821,-2.4821,-2.4821,-2.4821,-2.4821,-2.4949,-2.4966,-2.4984,-2.4984,-2.5009,-2.527,-2.5631,-2.5925,-2.6227,-2.6382,-2.6491,-2.6708,-2.7215,-2.726,-2.7593,-2.8023,-2.8291,-2.8301,-2.8301,-2.8301,-2.8301,-2.8301,-2.8301,-2.8301,-2.8301,-2.8301,-2.8301,-2.8301,-2.8301,-2.8301,-2.8301,-2.8301,-2.8301,-2.8301,-2.8301,-2.8301,-2.8301,-2.8301,-2.8301,-2.8301,-2.8301,-2.8301,-2.8301,-2.8301,-2.8301,-2.8301,-2.8301,-2.8301,-2.8301,-2.8301,-2.8301,-2.8301,-2.8344,-2.8558,-2.8611,-2.8814,-2.892,-2.9333,-2.9544,-3.0057,-3.0619,-3.1135,-3.1556,-3.1863,-3.2482,-3.3097,-3.3607,-3.3953,-3.4249,-3.4579,-3.4919,-3.5539,-3.6346,-3.7159,-3.7904,-3.8592,-3.9308,-3.9521,-2.703,-2.6944,-2.6619,-2.6448,-2.6354,-2.608,-2.5985,-2.5816,-2.5592,-2.5434,-2.5335,-2.4992,-2.4855,-2.4821,-2.4821,-2.4821,-2.4821,-2.4821,-2.4821,-2.4821,-2.4821,-2.4821,-2.4821,-2.4821,-2.4821,-2.4821,-2.4821,-2.4821,-2.4821,-2.4821,-2.4821,-2.4821,-2.4821,-2.4821,-2.4821,-2.4821,-2.4821,-2.4821,-2.4821,-2.4821,-2.4821,-2.4821,-2.4821,-2.5034,-2.5255,-2.5467,-2.5798,-2.5898,-2.6118,-2.6663,-2.6718,-2.7043,-2.7485,-2.797,-2.8184,-2.8301,-2.8301,-2.8301,-2.8301,-2.8301,-2.8301,-2.8301,-2.8301,-2.8301,-2.8301,-2.8301,-2.8301,-2.8301,-2.8301,-2.8301,-2.8301,-2.8301,-2.8301,-2.8301,-2.8301,-2.8301,-2.8301,-2.8301,-2.8301,-2.8301,-2.8301,-2.8301,-2.8301,-2.8301,-2.8301,-2.8301,-2.8301,-2.8301,-2.8301,-2.8301,-2.8344,-2.8398,-2.8344,-2.8398,-2.8495,-2.8654,-2.8973,-2.9586,-3.0151,-3.0774,-3.1238,-3.1863,-3.2432,-3.2996,-3.3457,-3.3717,-3.4073,-3.4464,-3.5158,-3.5952,-3.6886,-3.7791,-3.8465,-3.9054,-3.9445,-2.7081,-2.7056,-2.6867,-2.679,-2.6756,-2.661,-2.6525,-2.6465,-2.6122,-2.5831,-2.5592,-2.5275,-2.4992,-2.4872,-2.4821,-2.4821,-2.4821,-2.4821,-2.4821,-2.4821,-2.4821,-2.4821,-2.4821,-2.4821,-2.4821,-2.4821,-2.4821,-2.4821,-2.4821,-2.4821,-2.4821,-2.4821,-2.4821,-2.4821,-2.4821,-2.4821,-2.4821,-2.4821,-2.4821,-2.4821,-2.4821,-2.4821,-2.4821,-2.4821,-2.4821,-2.4923,-2.5145,-2.5255,-2.5523,-2.6008,-2.6109,-2.6436,-2.6881,-2.726,-2.7691,-2.813,-2.8247,-2.8301,-2.8301,-2.8301,-2.8301,-2.8301,-2.8301,-2.8301,-2.8301,-2.8301,-2.8301,-2.8301,-2.8301,-2.8301,-2.8301,-2.8301,-2.8301,-2.8301,-2.8301,-2.8301,-2.8301,-2.8301,-2.8301,-2.8301,-2.8301,-2.8301,-2.8301,-2.8301,-2.8301,-2.8301,-2.8301,-2.8301,-2.8301,-2.8301,-2.8301,-2.8301,-2.8301,-2.8291,-2.8291,-2.8344,-2.8344,-2.8804,-2.9323,-2.9942,-3.0567,-3.1187,-3.1812,-3.2432,-3.2807,-3.3149,-3.3757,-3.4223,-3.4895,-3.5519,-3.6301,-3.7152,-3.8036,-3.8713,-3.8963,-2.7081,-2.7081,-2.7081,-2.7081,-2.7081,-2.7081,-2.7064,-2.6996,-2.6636,-2.6294,-2.6011,-2.5574,-2.5189,-2.4975,-2.4864,-2.4821,-2.4821,-2.4821,-2.4821,-2.4821,-2.4821,-2.4821,-2.4821,-2.4821,-2.4821,-2.4821,-2.4821,-2.4821,-2.4821,-2.4821,-2.4821,-2.4821,-2.4821,-2.4821,-2.4821,-2.4821,-2.4821,-2.4821,-2.4821,-2.4821,-2.4821,-2.4821,-2.4821,-2.4821,-2.4821,-2.4821,-2.4876,-2.4876,-2.5098,-2.5412,-2.5569,-2.5789,-2.6273,-2.6436,-2.6926,-2.7755,-2.8023,-2.8184,-2.8301,-2.8301,-2.8301,-2.8301,-2.8301,-2.8301,-2.8301,-2.8301,-2.8301,-2.8301,-2.8301,-2.8301,-2.8301,-2.8301,-2.8301,-2.8301,-2.8301,-2.8301,-2.8301,-2.8301,-2.8301,-2.8301,-2.8301,-2.8301,-2.8301,-2.8301,-2.8301,-2.8301,-2.8301,-2.8301,-2.8301,-2.8301,-2.8301,-2.8301,-2.8301,-2.8301,-2.8291,-2.8291,-2.8291,-2.8451,-2.8857,-2.9323,-2.9942,-3.0515,-3.1135,-3.168,-3.2218,-3.2603,-3.3288,-3.3893,-3.4472,-3.5008,-3.5664,-3.6401,-3.7246,-3.7696,-3.7894,-2.7081,-2.7081,-2.7081,-2.7081,-2.7081,-2.7081,-2.7081,-2.7021,-2.6679,-2.6482,-2.6328,-2.5737,-2.5395,-2.5258,-2.4967,-2.4855,-2.4847,-2.4821,-2.4821,-2.4821,-2.4821,-2.4821,-2.4821,-2.4821,-2.4821,-2.4821,-2.4821,-2.4821,-2.4821,-2.4821,-2.4821,-2.4821,-2.4821,-2.4821,-2.4821,-2.4821,-2.4821,-2.4821,-2.4821,-2.4821,-2.4821,-2.4821,-2.4821,-2.4821,-2.4821,-2.4821,-2.4821,-2.4821,-2.4932,-2.4932,-2.4932,-2.52,-2.5679,-2.5789,-2.6118,-2.6718,-2.7206,-2.7691,-2.8077,-2.8184,-2.8184,-2.8184,-2.8291,-2.8291,-2.8301,-2.8301,-2.8301,-2.8301,-2.8301,-2.8301,-2.8301,-2.8301,-2.8301,-2.8301,-2.8301,-2.8301,-2.8301,-2.8301,-2.8301,-2.8301,-2.8301,-2.8301,-2.8301,-2.8301,-2.8301,-2.8301,-2.8301,-2.8301,-2.8301,-2.8301,-2.8301,-2.8301,-2.8301,-2.8301,-2.8301,-2.8301,-2.8301,-2.8301,-2.8504,-2.8804,-2.927,-2.9838,-3.0203,-3.0797,-3.1384,-3.2074,-3.2739,-3.335,-3.3924,-3.4388,-3.4809,-3.5571,-3.6413,-3.6698,-3.6809,-2.7081,-2.7081,-2.7081,-2.7081,-2.7081,-2.7081,-2.7081,-2.7047,-2.6902,-2.6696,-2.6473,-2.6182,-2.5891,-2.5634,-2.53,-2.5138,-2.5086,-2.4941,-2.483,-2.4847,-2.4847,-2.4838,-2.4821,-2.4821,-2.4821,-2.4847,-2.4821,-2.4821,-2.4821,-2.4821,-2.4821,-2.4821,-2.4821,-2.4821,-2.4821,-2.4821,-2.4821,-2.4821,-2.4821,-2.4821,-2.4821,-2.4821,-2.4821,-2.4821,-2.4821,-2.4821,-2.4821,-2.4821,-2.4821,-2.4821,-2.4821,-2.4868,-2.509,-2.52,-2.5467,-2.6008,-2.6282,-2.6718,-2.7206,-2.7593,-2.7809,-2.7916,-2.8077,-2.8291,-2.8301,-2.8301,-2.8301,-2.8301,-2.8301,-2.8301,-2.8301,-2.8301,-2.8301,-2.8301,-2.8301,-2.8301,-2.8301,-2.8301,-2.8301,-2.8301,-2.8301,-2.8301,-2.8301,-2.8301,-2.8301,-2.8301,-2.8301,-2.8301,-2.8301,-2.8301,-2.8301,-2.8301,-2.8301,-2.8301,-2.8301,-2.8301,-2.8301,-2.8301,-2.8291,-2.8548,-2.8751,-2.9175,-2.9586,-3.0057,-3.0694,-3.1413,-3.2119,-3.2744,-3.3243,-3.3571,-3.3837,-3.4626,-3.5417,-3.5551,-3.5833,-2.7081,-2.7081,-2.7081,-2.7081,-2.7081,-2.7081,-2.7081,-2.7081,-2.7073,-2.6902,-2.6662,-2.6499,-2.6259,-2.5951,-2.5652,-2.5515,-2.5497,-2.5223,-2.5129,-2.5086,-2.5026,-2.5061,-2.5069,-2.5035,-2.4881,-2.4941,-2.4855,-2.4838,-2.4821,-2.4821,-2.4821,-2.4821,-2.4821,-2.4821,-2.4821,-2.4821,-2.4821,-2.4821,-2.4821,-2.4821,-2.4821,-2.4821,-2.4821,-2.4821,-2.4821,-2.4821,-2.4821,-2.4821,-2.4821,-2.4821,-2.4821,-2.4821,-2.4876,-2.4932,-2.5034,-2.5412,-2.5586,-2.5679,-2.6336,-2.6836,-2.7269,-2.7593,-2.7916,-2.8301,-2.8301,-2.8301,-2.8301,-2.8301,-2.8301,-2.8301,-2.8301,-2.8301,-2.8301,-2.8301,-2.8301,-2.8301,-2.8301,-2.8301,-2.8301,-2.8301,-2.8301,-2.8301,-2.8301,-2.8301,-2.8301,-2.8301,-2.8301,-2.8301,-2.8301,-2.8301,-2.8301,-2.8301,-2.8301,-2.8301,-2.8301,-2.8301,-2.8301,-2.8301,-2.8301,-2.8344,-2.8548,-2.8708,-2.9016,-2.9544,-3.0005,-3.0367,-3.0912,-3.1761,-3.2613,-3.3003,-3.3419,-3.3788,-3.421,-3.4415,-3.4878,-2.7081,-2.7081,-2.7081,-2.7081,-2.7081,-2.7081,-2.7081,-2.7081,-2.7081,-2.7056,-2.6936,-2.6679,-2.6345,-2.6045,-2.5968,-2.59,-2.59,-2.5808,-2.5705,-2.5652,-2.5557,-2.5523,-2.5463,-2.5241,-2.5001,-2.5181,-2.4992,-2.483,-2.4821,-2.4821,-2.4821,-2.4821,-2.4821,-2.4821,-2.4821,-2.4821,-2.4821,-2.4821,-2.4821,-2.4821,-2.4821,-2.4821,-2.4821,-2.4821,-2.4821,-2.4821,-2.4821,-2.4821,-2.4821,-2.4821,-2.4821,-2.4821,-2.4821,-2.4821,-2.4932,-2.4987,-2.5043,-2.509,-2.5476,-2.6345,-2.7215,-2.7539,-2.7862,-2.813,-2.8023,-2.8184,-2.8291,-2.813,-2.8023,-2.8184,-2.8237,-2.8301,-2.8301,-2.8301,-2.8301,-2.8301,-2.8301,-2.8301,-2.8301,-2.8301,-2.8301,-2.8301,-2.8301,-2.8301,-2.8301,-2.8301,-2.8301,-2.8301,-2.8301,-2.8301,-2.8301,-2.8301,-2.8301,-2.8301,-2.8301,-2.8301,-2.8301,-2.8301,-2.8301,-2.8301,-2.8344,-2.8495,-2.8654,-2.8817,-2.9226,-2.9446,-2.9839,-3.0983,-3.1983,-3.2542,-3.3038,-3.3495,-3.3631,-3.3762,-3.421,-2.7081,-2.7081,-2.7081,-2.7081,-2.7081,-2.7081,-2.7081,-2.7081,-2.7081,-2.7081,-2.7064,-2.691,-2.6773,-2.6602,-2.6362,-2.6277,-2.6242,-2.602,-2.5994,-2.5917,-2.5823,-2.5823,-2.572,-2.5532,-2.5232,-2.5275,-2.5026,-2.4821,-2.4821,-2.4821,-2.4821,-2.4821,-2.4821,-2.4821,-2.4821,-2.4821,-2.4821,-2.4821,-2.4821,-2.4821,-2.4821,-2.4821,-2.4821,-2.4821,-2.4821,-2.4821,-2.4821,-2.4821,-2.4821,-2.4821,-2.4821,-2.4821,-2.4821,-2.4821,-2.4821,-2.4821,-2.4821,-2.4821,-2.4932,-2.5798,-2.6455,-2.6989,-2.7377,-2.7647,-2.7466,-2.7584,-2.7476,-2.7476,-2.7593,-2.7755,-2.7755,-2.8023,-2.8301,-2.8301,-2.8301,-2.8301,-2.832,-2.833,-2.8389,-2.8428,-2.835,-2.8301,-2.8301,-2.8301,-2.8301,-2.8301,-2.8301,-2.8301,-2.8301,-2.8301,-2.8301,-2.8301,-2.8301,-2.8301,-2.8301,-2.8301,-2.8301,-2.8301,-2.8301,-2.8301,-2.8301,-2.8291,-2.8427,-2.8447,-2.8623,-2.9104,-2.9739,-3.0581,-3.1401,-3.2188,-3.2808,-3.3273,-3.3304,-3.3281,-3.3654,-2.7081,-2.7081,-2.7081,-2.7081,-2.7081,-2.7081,-2.7081,-2.7081,-2.7081,-2.7081,-2.7081,-2.7081,-2.7081,-2.6987,-2.6816,-2.6662,-2.661,-2.6448,-2.6336,-2.6259,-2.6208,-2.6191,-2.6071,-2.584,-2.5549,-2.5446,-2.5181,-2.4992,-2.4821,-2.4821,-2.4821,-2.4821,-2.4821,-2.4821,-2.4821,-2.4821,-2.4821,-2.4821,-2.4821,-2.4821,-2.4821,-2.4821,-2.4821,-2.4821,-2.4821,-2.4821,-2.4821,-2.4821,-2.4821,-2.4821,-2.4821,-2.4821,-2.4821,-2.4821,-2.4821,-2.4821,-2.4821,-2.4821,-2.4987,-2.5366,-2.5953,-2.66,-2.6926,-2.6926,-2.6817,-2.6926,-2.6989,-2.6826,-2.6989,-2.7215,-2.7269,-2.7755,-2.813,-2.813,-2.8291,-2.8301,-2.8389,-2.8428,-2.8506,-2.8564,-2.8594,-2.876,-2.8691,-2.8701,-2.8457,-2.8408,-2.8301,-2.8301,-2.8301,-2.8301,-2.8301,-2.8301,-2.8301,-2.8301,-2.8301,-2.8301,-2.8301,-2.8301,-2.8301,-2.8301,-2.8301,-2.8301,-2.8301,-2.8359,-2.8594,-2.8975,-2.957,-3.0309,-3.1114,-3.1942,-3.2622,-3.3292,-3.3281,-3.3281,-3.3281,-2.7081,-2.7081,-2.7081,-2.7081,-2.7081,-2.7081,-2.7081,-2.7081,-2.7081,-2.7081,-2.7081,-2.7081,-2.7081,-2.7064,-2.6987,-2.6961,-2.697,-2.6953,-2.6919,-2.6816,-2.661,-2.6713,-2.6602,-2.6319,-2.5917,-2.5823,-2.5557,-2.5215,-2.4932,-2.5018,-2.4967,-2.4924,-2.4975,-2.4872,-2.4838,-2.4821,-2.4821,-2.4821,-2.4821,-2.4821,-2.4821,-2.4821,-2.4821,-2.4821,-2.4821,-2.4821,-2.4821,-2.4821,-2.4821,-2.4821,-2.4821,-2.4821,-2.4821,-2.4821,-2.4821,-2.4821,-2.4821,-2.4821,-2.4876,-2.5357,-2.5835,-2.6273,-2.6382,-2.6436,-2.6491,-2.6545,-2.65,-2.6227,-2.6491,-2.6826,-2.7098,-2.7514,-2.7866,-2.8139,-2.8276,-2.8564,-2.8682,-2.875,-2.8867,-2.8916,-2.9248,-2.9492,-2.9346,-2.917,-2.8779,-2.8555,-2.8369,-2.8301,-2.832,-2.8301,-2.8301,-2.8301,-2.8301,-2.8301,-2.8301,-2.8301,-2.8301,-2.8301,-2.8301,-2.8301,-2.8301,-2.8301,-2.8301,-2.8301,-2.8545,-2.8906,-2.9401,-2.9968,-3.09,-3.1849,-3.2745,-3.3292,-3.3292,-3.3281,-3.3281,-2.7081,-2.7081,-2.7081,-2.7081,-2.7081,-2.7081,-2.7081,-2.7081,-2.7081,-2.7081,-2.7081,-2.7081,-2.7081,-2.7081,-2.7081,-2.7081,-2.7081,-2.7081,-2.7081,-2.7056,-2.6893,-2.6953,-2.6876,-2.6619,-2.6294,-2.6199,-2.5934,-2.5703,-2.5534,-2.5423,-2.5475,-2.554,-2.5258,-2.5052,-2.4889,-2.4821,-2.4821,-2.4821,-2.4821,-2.4821,-2.483,-2.4847,-2.4855,-2.4864,-2.4855,-2.4847,-2.483,-2.4821,-2.4821,-2.4821,-2.4821,-2.4821,-2.4821,-2.4821,-2.4821,-2.4821,-2.4821,-2.4821,-2.4821,-2.5034,-2.5136,-2.5467,-2.5789,-2.5789,-2.5514,-2.5844,-2.5734,-2.5624,-2.5844,-2.6118,-2.6227,-2.7397,-2.7958,-2.8282,-2.8542,-2.904,-2.9277,-2.9307,-2.9355,-2.9355,-2.9616,-2.9714,-2.9609,-2.957,-2.9258,-2.8955,-2.8779,-2.8506,-2.8437,-2.835,-2.8301,-2.8301,-2.8301,-2.8301,-2.8301,-2.8301,-2.8301,-2.8301,-2.8301,-2.8301,-2.8301,-2.8301,-2.8301,-2.8301,-2.8545,-2.8809,-2.9283,-2.9882,-3.0814,-3.1761,-3.2454,-3.3122,-3.3292,-3.3281,-3.3281,-2.7081,-2.7081,-2.7081,-2.7081,-2.7081,-2.7081,-2.7081,-2.7081,-2.7081,-2.7081,-2.7081,-2.7081,-2.7081,-2.7081,-2.7081,-2.7081,-2.7081,-2.7081,-2.7081,-2.7081,-2.7073,-2.7064,-2.697,-2.6816,-2.6593,-2.6473,-2.6277,-2.6071,-2.5816,-2.5859,-2.5891,-2.5806,-2.5694,-2.5497,-2.5241,-2.5078,-2.4821,-2.4864,-2.4924,-2.5052,-2.5086,-2.5129,-2.5172,-2.5086,-2.5018,-2.4967,-2.4864,-2.483,-2.483,-2.4838,-2.483,-2.483,-2.4821,-2.4821,-2.4821,-2.4821,-2.4821,-2.4821,-2.4821,-2.4821,-2.4932,-2.4932,-2.52,-2.5145,-2.4923,-2.52,-2.5136,-2.5145,-2.5247,-2.5476,-2.5924,-2.7197,-2.7817,-2.8124,-2.8862,-2.9354,-2.9629,-2.9639,-2.9795,-2.9795,-2.9988,-3.0017,-2.9941,-2.9853,-2.9746,-2.9473,-2.9219,-2.8945,-2.8682,-2.8574,-2.8516,-2.8506,-2.8418,-2.8369,-2.835,-2.8301,-2.8301,-2.8301,-2.835,-2.8428,-2.8301,-2.8301,-2.8301,-2.831,-2.8486,-2.8716,-2.9164,-2.9796,-3.0622,-3.1285,-3.1864,-3.2494,-3.3149,-3.3265,-3.325,-2.7081,-2.7081,-2.7081,-2.7081,-2.7081,-2.7081,-2.7081,-2.7081,-2.7081,-2.7081,-2.7081,-2.7047,-2.703,-2.7125,-2.7056,-2.7047,-2.7081,-2.7081,-2.7081,-2.7081,-2.7081,-2.7081,-2.7081,-2.7021,-2.6833,-2.6636,-2.6491,-2.6396,-2.6045,-2.6157,-2.6148,-2.6011,-2.5985,-2.5848,-2.5626,-2.5287,-2.5069,-2.5138,-2.5266,-2.5378,-2.542,-2.5574,-2.5523,-2.5412,-2.5309,-2.5189,-2.5078,-2.4975,-2.4915,-2.4881,-2.4855,-2.483,-2.4821,-2.4821,-2.4821,-2.4821,-2.4821,-2.4821,-2.4838,-2.4838,-2.4915,-2.4958,-2.5022,-2.4881,-2.4812,-2.4932,-2.4876,-2.4876,-2.4987,-2.529,-2.5739,-2.6653,-2.7512,-2.822,-2.9037,-2.9472,-2.9758,-2.9951,-3.0156,-3.0322,-3.0557,-3.0615,-3.0547,-3.0449,-3.0185,-3.0107,-2.9902,-2.9795,-2.9492,-2.9043,-2.8975,-2.8896,-2.876,-2.8506,-2.8476,-2.8603,-2.8662,-2.8779,-2.8662,-2.8662,-2.8496,-2.8486,-2.8652,-2.8691,-2.8486,-2.8692,-2.9203,-2.9759,-3.0326,-3.0921,-3.1466,-3.2134,-3.2847,-3.3084,-3.3123,-2.7081,-2.7081,-2.7081,-2.7081,-2.7081,-2.7073,-2.7081,-2.7081,-2.7081,-2.7081,-2.7125,-2.6782,-2.6824,-2.7039,-2.679,-2.6876,-2.6996,-2.7081,-2.7081,-2.7081,-2.7081,-2.7081,-2.7081,-2.7073,-2.6987,-2.6936,-2.6867,-2.6799,-2.6756,-2.6713,-2.6508,-2.6379,-2.6328,-2.6208,-2.5936,-2.5671,-2.5603,-2.5626,-2.5746,-2.5754,-2.5711,-2.5754,-2.5737,-2.5729,-2.5557,-2.5472,-2.5489,-2.53,-2.5232,-2.5181,-2.4949,-2.4838,-2.4821,-2.4821,-2.4821,-2.4821,-2.4821,-2.483,-2.4855,-2.5061,-2.5189,-2.5241,-2.5395,-2.5223,-2.5035,-2.4872,-2.4881,-2.4898,-2.4907,-2.5219,-2.5643,-2.643,-2.7282,-2.8172,-2.9041,-2.9814,-3.0083,-3.0371,-3.0566,-3.0615,-3.0859,-3.0859,-3.084,-3.0791,-3.0566,-3.0615,-3.0576,-3.0449,-3.0205,-2.9717,-2.9434,-2.9355,-2.918,-2.8945,-2.9082,-2.9219,-2.9238,-2.9238,-2.9092,-2.9033,-2.9082,-2.9111,-2.917,-2.9121,-2.8965,-2.9082,-2.9401,-2.9833,-3.0186,-3.0696,-3.1249,-3.1899,-3.2476,-3.273,-3.3017,-2.7081,-2.7056,-2.691,-2.6765,-2.6636,-2.6628,-2.6628,-2.6645,-2.6782,-2.6782,-2.6619,-2.6533,-2.6619,-2.679,-2.6773,-2.6867,-2.7064,-2.7081,-2.7081,-2.7081,-2.7081,-2.7081,-2.7081,-2.7081,-2.7064,-2.7081,-2.7081,-2.7013,-2.7081,-2.7056,-2.6884,-2.6747,-2.6713,-2.6585,-2.6465,-2.6414,-2.6405,-2.6319,-2.6268,-2.6191,-2.6088,-2.6037,-2.6165,-2.6062,-2.5874,-2.5917,-2.5859,-2.5677,-2.5557,-2.5403,-2.5095,-2.4958,-2.4898,-2.4821,-2.4821,-2.4821,-2.4821,-2.4821,-2.4872,-2.5163,-2.5309,-2.5472,-2.5737,-2.5652,-2.542,-2.5223,-2.5146,-2.5095,-2.5069,-2.5177,-2.5687,-2.6259,-2.7163,-2.8077,-2.9081,-3.0158,-3.0499,-3.0801,-3.0869,-3.0869,-3.0889,-3.0889,-3.0889,-3.0898,-3.0889,-3.082,-3.0791,-3.0742,-3.0518,-3.0146,-2.9912,-2.9795,-2.9619,-2.9434,-2.9609,-2.9697,-2.9665,-2.9587,-2.9424,-2.9414,-2.958,-2.9626,-2.9528,-2.9482,-2.9492,-2.959,-2.9714,-2.9731,-3.0033,-3.0529,-3.0921,-3.1278,-3.1902,-3.249,-3.2783,-2.697,-2.6927,-2.6593,-2.6251,-2.5876,-2.5902,-2.5885,-2.5842,-2.6217,-2.6268,-2.6122,-2.6345,-2.6542,-2.6713,-2.679,-2.6927,-2.7047,-2.7081,-2.7081,-2.7081,-2.7081,-2.7081,-2.7081,-2.7081,-2.7081,-2.7081,-2.7081,-2.7081,-2.7081,-2.7064,-2.7064,-2.7133,-2.703,-2.6944,-2.6902,-2.6893,-2.6859,-2.6807,-2.6662,-2.6551,-2.6602,-2.6747,-2.6893,-2.6593,-2.6431,-2.6345,-2.614,-2.596,-2.5806,-2.5557,-2.5326,-2.5172,-2.4941,-2.4821,-2.4821,-2.4881,-2.4898,-2.4958,-2.5086,-2.5386,-2.554,-2.5677,-2.5806,-2.6037,-2.5994,-2.548,-2.5283,-2.5198,-2.5155,-2.5121,-2.5487,-2.6139,-2.6951,-2.7933,-2.899,-3.0003,-3.0645,-3.0889,-3.0898,-3.0898,-3.0898,-3.0898,-3.0898,-3.0898,-3.0898,-3.0898,-3.0898,-3.0898,-3.0771,-3.0469,-3.0351,-3.0225,-3.0137,-3.0,-2.9971,-3.001,-2.9883,-2.9851,-2.9775,-2.9844,-3.0049,-2.9978,-2.9773,-2.9929,-3.0059,-2.9959,-2.991,-3.0007,-3.0046,-3.0369,-3.0668,-3.0734,-3.1258,-3.1995,-3.2402,-2.6199,-2.6199,-2.6114,-2.5857,-2.5566,-2.5823,-2.5543,-2.5138,-2.548,-2.5908,-2.6302,-2.6448,-2.6619,-2.679,-2.673,-2.6833,-2.7047,-2.7081,-2.7081,-2.7081,-2.7081,-2.7081,-2.7081,-2.7081,-2.7081,-2.7081,-2.7081,-2.7081,-2.7081,-2.7081,-2.7081,-2.7081,-2.7081,-2.7081,-2.7081,-2.7081,-2.7073,-2.7056,-2.697,-2.6867,-2.6902,-2.6722,-2.6645,-2.6705,-2.6722,-2.667,-2.6533,-2.6465,-2.6182,-2.5857,-2.5515,-2.5198,-2.4855,-2.483,-2.483,-2.4864,-2.5069,-2.5172,-2.5395,-2.5729,-2.6028,-2.6251,-2.6465,-2.6687,-2.6525,-2.5806,-2.5451,-2.5383,-2.5275,-2.5241,-2.5391,-2.6094,-2.6842,-2.7885,-2.8812,-2.9819,-3.0772,-3.0889,-3.0898,-3.0898,-3.0898,-3.0898,-3.0898,-3.0898,-3.0898,-3.0898,-3.0898,-3.0898,-3.0898,-3.0723,-3.0693,-3.0615,-3.0684,-3.0596,-3.0488,-3.0391,-3.0283,-3.0351,-3.041,-3.0469,-3.0498,-3.0391,-3.0273,-3.0498,-3.0615,-3.041,-3.0244,-3.0252,-3.036,-3.0508,-3.0565,-3.0649,-3.0898,-3.1503,-3.1908,-2.6145,-2.6472,-2.593,-2.5463,-2.5206,-2.536,-2.5189,-2.4941,-2.5215,-2.5592,-2.5994,-2.6165,-2.6379,-2.6687,-2.6662,-2.6807,-2.7064,-2.7073,-2.7081,-2.7081,-2.7081,-2.7081,-2.7081,-2.7081,-2.7081,-2.7081,-2.7081,-2.7081,-2.7081,-2.7081,-2.7081,-2.7081,-2.7081,-2.7081,-2.7081,-2.7081,-2.7081,-2.7081,-2.7081,-2.7073,-2.7073,-2.6902,-2.6824,-2.6944,-2.6944,-2.691,-2.6902,-2.6824,-2.6568,-2.6114,-2.5686,-2.5215,-2.4924,-2.483,-2.4915,-2.5061,-2.5258,-2.5446,-2.5737,-2.6097,-2.6491,-2.6636,-2.6842,-2.6953,-2.6902,-2.6268,-2.602,-2.5943,-2.5925,-2.59,-2.5866,-2.6375,-2.7184,-2.8169,-2.8836,-2.958,-3.0411,-3.0889,-3.0898,-3.0898,-3.0898,-3.0898,-3.0898,-3.0898,-3.0898,-3.0898,-3.0898,-3.0898,-3.0898,-3.0898,-3.0898,-3.0898,-3.0898,-3.0898,-3.0752,-3.0723,-3.0732,-3.084,-3.0898,-3.081,-3.0703,-3.0801,-3.0869,-3.085,-3.085,-3.082,-3.0684,-3.0557,-3.0586,-3.0732,-3.0693,-3.0663,-3.0876,-3.1079,-3.1351,-2.6595,-2.7026,-2.5869,-2.5121,-2.4847,-2.4838,-2.4838,-2.4872,-2.5155,-2.5318,-2.5489,-2.5823,-2.5867,-2.6251,-2.6705,-2.6936,-2.7081,-2.7081,-2.7081,-2.7081,-2.7081,-2.7081,-2.7081,-2.7081,-2.7081,-2.7081,-2.7081,-2.7081,-2.7081,-2.7081,-2.7081,-2.7081,-2.7081,-2.7081,-2.7081,-2.7081,-2.7081,-2.7081,-2.7081,-2.7081,-2.7081,-2.7081,-2.7064,-2.7073,-2.7081,-2.7081,-2.7073,-2.7013,-2.6842,-2.6405,-2.5866,-2.548,-2.5232,-2.5146,-2.5241,-2.5412,-2.56,-2.5797,-2.6028,-2.6379,-2.6551,-2.6687,-2.6944,-2.7021,-2.6961,-2.6833,-2.6585,-2.6491,-2.6473,-2.6345,-2.6302,-2.6497,-2.7393,-2.835,-2.8941,-2.9577,-3.0294,-3.0898,-3.0898,-3.0898,-3.0898,-3.0898,-3.0898,-3.0898,-3.0898,-3.0898,-3.0898,-3.0898,-3.0898,-3.0898,-3.0898,-3.0898,-3.0898,-3.0898,-3.0898,-3.0898,-3.0898,-3.0898,-3.0898,-3.0898,-3.0898,-3.0898,-3.0898,-3.0889,-3.0889,-3.0898,-3.0898,-3.0791,-3.0859,-3.0889,-3.083,-3.0742,-3.083,-3.0975,-3.0956,-2.7041,-2.6432,-2.5375,-2.4881,-2.4821,-2.4821,-2.4821,-2.4838,-2.4907,-2.5078,-2.5446,-2.5771,-2.6013,-2.6396,-2.6842,-2.7073,-2.7081,-2.7081,-2.7081,-2.7081,-2.7081,-2.7081,-2.7081,-2.7081,-2.7081,-2.7081,-2.7081,-2.7081,-2.7081,-2.7081,-2.7081,-2.7081,-2.7081,-2.7081,-2.7081,-2.7081,-2.7081,-2.7081,-2.7081,-2.7081,-2.7081,-2.7081,-2.7081,-2.7081,-2.7081,-2.7081,-2.7081,-2.7081,-2.6842,-2.6482,-2.6097,-2.5814,-2.5652,-2.5592,-2.5686,-2.5806,-2.5994,-2.6191,-2.6439,-2.6696,-2.6833,-2.6884,-2.7073,-2.7064,-2.703,-2.703,-2.685,-2.6773,-2.6653,-2.6285,-2.6234,-2.6448,-2.7127,-2.8396,-2.9285,-2.9973,-3.0655,-3.083,-3.0898,-3.0898,-3.0898,-3.0898,-3.0898,-3.0898,-3.0898,-3.0898,-3.0898,-3.0898,-3.0898,-3.0898,-3.0898,-3.0898,-3.0898,-3.0898,-3.0898,-3.0898,-3.0898,-3.0898,-3.0898,-3.0898,-3.0898,-3.0898,-3.0898,-3.0898,-3.0898,-3.0898,-3.0898,-3.0898,-3.0898,-3.0889,-3.0889,-3.0869,-3.0898,-3.0898,-3.0898]},{"header":{"parameterUnit":"m.s-1","parameterCategory":1,"la1":31.0,"la2":29.5877,"lo1":-88.7671,"lo2":-86.6584,"dy":0.0162,"dx":0.0185,"nx":115,"ny":88,"refTime":"2024-03-03T06:00:00:Z","depth":0,"parameterNumber":3,"parameterNumberName":"V-component_of_WINDS"},"data":[0.0,0.0,0.0,0.0,0.0,0.0,0.0,0.0,0.0,0.0,0.0,0.0,0.0,0.0,0.0,0.0,0.0,0.0,0.0,0.0,0.0,0.0,0.0,0.0,0.0,0.0,0.0,0.0,0.0,0.0,0.0,0.0,0.0,0.0,0.0,0.0,0.0,0.0,0.0,0.0,0.0,0.0,0.0,0.0,0.0,0.0,0.0,0.0,0.0,0.0,0.0,0.0,0.0,0.0,0.0,0.0,0.0,0.0,0.0,0.0,0.0,0.0,0.0,0.0,0.0,0.0,0.0,0.0,0.0,0.0,0.0,0.0,0.0,0.0,0.0,0.0,0.0,0.0,0.0,0.0,0.0,0.0,0.0,0.0,0.0,0.0,0.0,0.0,0.0,0.0,0.0,0.0,0.0,0.0,0.0,0.0,0.0,0.0,0.0,0.0,0.0,0.0,0.0,0.0,0.0,0.0,0.0,0.0,0.0,0.0,0.0,0.0,0.0,0.0,0.0,0.0,0.0,0.0,0.0,0.0,0.0,0.0,0.0,0.0,0.0,0.0,0.0,0.0,0.0,0.0,0.0,0.0,0.0,0.0,0.0,0.0,0.0,0.0,0.0,0.0,0.0,0.0,0.0,0.0,0.0,0.0,0.0,0.0,0.0,0.0,0.0,0.0,0.0,0.0,0.0,0.0,0.0,0.0,0.0,0.0,0.0,0.0,0.0,0.0,0.0,0.0,0.0,0.0,0.0,0.0,0.0,0.0,0.0,0.0,0.0,0.0,0.0,0.0,0.0,0.0,0.0,0.0,0.0,0.0,0.0,0.0,0.0,0.0,0.0,0.0,0.0,0.0,0.0,0.0,0.0,0.0,0.0,0.0,0.0,0.0,0.0,0.0,0.0,0.0,0.0,0.0,0.0,0.0,0.0,0.0,0.0,0.0,0.0,0.0,0.0,0.0,0.0,0.0,0.0,0.0,0.0,0.0,0.0,0.0,0.0,0.0,0.0,0.0,0.0,0.0,0.0,0.0,0.0,0.0,0.0,0.0,0.0,0.0,0.0,0.0,0.0,0.0,0.0,0.0,0.0,0.0,0.0,0.0,0.0,0.0,0.0,0.0,0.0,0.0,0.0,0.0,0.0,0.0,0.0,0.0,0.0,0.0,0.0,0.0,0.0,0.0,0.0,0.0,0.0,0.0,0.0,0.0,0.0,0.0,0.0,0.0,0.0,0.0,0.0,0.0,0.0,0.0,0.0,0.0,0.0,0.0,0.0,0.0,0.0,0.0,0.0,0.0,0.0,0.0,0.0,0.0,0.0,0.0,0.0,0.0,0.0,0.0,0.0,0.0,0.0,0.0,0.0,0.0,0.0,0.0,0.0,0.0,0.0,0.0,0.0,0.0,0.0,0.0,0.0,0.0,0.0,0.0,0.0,0.0,0.0,0.0,0.0,0.0,0.0,0.0,0.0,0.0,0.0,0.0,0.0,0.0,0.0,0.0,0.0,0.0,0.0,0.0,0.0,0.0,0.0,0.0,0.0,0.0,0.0,0.0,0.0,0.0,0.0,0.0,0.0,0.0,0.0,0.0,0.0,0.0,0.0,0.0,0.0,0.0,0.0,0.0,0.0,0.0,0.0,0.0,0.0,0.0,0.0,0.0,0.0,0.0,0.0,0.0,0.0,0.0,0.0,0.0,0.0,0.0,0.0,0.0,0.0,0.0,0.0,0.0,0.0,0.0,0.0,0.0,0.0,0.0,0.0,0.0,0.0,0.0,0.0,0.0,0.0,0.0,0.0,0.0,0.0,0.0,0.0,0.0,0.0,0.0,0.0,0.0,0.0,0.0,0.0,0.0,0.0,0.0,0.0,0.0,0.0,0.0,0.0,0.0,0.0,0.0,0.0,0.0,0.0,0.0,0.0,0.0,0.0,0.0,0.0,0.0,0.0,0.0,0.0,0.0,0.0,0.0,0.0,0.0,0.0,0.0,0.0,0.0,0.0,0.0,0.0,0.0,0.0,0.0,0.0,0.0,0.0,0.0,0.0,0.0,0.0,0.0,0.0,0.0,0.0,0.0,0.0,0.0,0.0,0.0,0.0,0.0,0.0,0.0,0.0,0.0,0.0,0.0,0.0,0.0,0.0,0.0,0.0,0.0,0.0,0.0,0.0,0.0,0.0,0.0,0.0,0.0,0.0,0.0,0.0,0.0,0.0,0.0,0.0,0.0,0.0,0.0,0.0,0.0,0.0,0.0,0.0,0.0,0.0,0.0,0.0,0.0,0.0,0.0,0.0,0.0,0.0,0.0,0.0,0.0,0.0,0.0,0.0,0.0,0.0,0.0,0.0,0.0,0.0,0.0,0.0,0.0,0.0,0.0,0.0,0.0,0.0,0.0,0.0,0.0,0.0,0.0,0.0,0.0,0.0,0.0,0.0,0.0,0.0,0.0,0.0,0.0,0.0,0.0,0.0,0.0,0.0,0.0,0.0,0.0,0.0,0.0,0.0,0.0,0.0,0.0,0.0,0.0,0.0,0.0,0.0,0.0,0.0,0.0,0.0,0.0,0.0,0.0,0.0,0.0,0.0,0.0,0.0,0.0,0.0,0.0,0.0,0.0,0.0,0.0,0.0,0.0,0.0,0.0,0.0,0.0,0.0,0.0,0.0,0.0,0.0,0.0,0.0,0.0,0.0,0.0,0.0,0.0,0.0,0.0,0.0,0.0,0.0,0.0,0.0,0.0,0.0,0.0,0.0,0.0,0.0,0.0,0.0,0.0,0.0,0.0,0.0,0.0,0.0,0.0,0.0,0.0,0.0,0.0,0.0,0.0,0.0,0.0,0.0,0.0,0.0,0.0,0.0,0.0,0.0,0.0,0.0,0.0,0.0,0.0,0.0,0.0,0.0,0.0,0.0,0.0,0.0,0.0,0.0,0.0,0.0,0.0,0.0,0.0,0.0,0.0,0.0,0.0,0.0,0.0,0.0,0.0,0.0,0.0,0.0,0.0,0.0,0.0,0.0,0.0,0.0,0.0,0.0,0.0,0.0,0.0,0.0,0.0,0.0,0.0,0.0,0.0,0.0,0.0,0.0,0.0,0.0,0.0,0.0,0.0,0.0,0.0,0.0,0.0,0.0,0.0,0.0,0.0,0.0,0.0,0.0,0.0,0.0,0.0,0.0,0.0,0.0,0.0,0.0,0.0,0.0,0.0,0.0,0.0,0.0,0.0,0.0,0.0,0.0,0.0,0.0,0.0,0.0,0.0,0.0,0.0,0.0,0.0,0.0,0.0,0.0,0.0,0.0,0.0,0.0,0.0,0.0,0.0,0.0,0.0,0.0,0.0,0.0,0.0,0.0,0.0,0.0,0.0,0.0,0.0,0.0,0.0,0.0,0.0,0.0,0.0,0.0,0.0,0.0,0.0,0.0,0.0,0.0,0.0,0.0,0.0,0.0,0.0,0.0,0.0,0.0,0.0,0.0,0.0,0.0,0.0,0.0,0.0,0.0,0.0,0.0,0.0,0.0,0.0,0.0,0.0,0.0,0.0,0.0,0.0,0.0,0.0,0.0,0.0,0.0,0.0,0.0,0.0,0.0,0.0,0.0,0.0,0.0,0.0,0.0,0.0,0.0,0.0,0.0,0.0,0.0,0.0,0.0,0.0,0.0,0.0,0.0,0.0,0.0,0.0,0.0,0.0,0.0,0.0,0.0,0.0,0.0,0.0,0.0,0.0,0.0,0.0,0.0,0.0,0.0,0.0,0.0,0.0,0.0,0.0,0.0,0.0,0.0,0.0,0.0,0.0,0.0,0.0,0.0,0.0,0.0,0.0,0.0,0.0,0.0,0.0,0.0,0.0,0.0,0.0,0.0,0.0,0.0,0.0,0.0,0.0,0.0,0.0,0.0,0.0,0.0,0.0,0.0,0.0,0.0,0.0,0.0,0.0,0.0,0.0,0.0,0.0,0.0,0.0,0.0,0.0,0.0,0.0,0.0,0.0,0.0,0.0,0.0,0.0,0.0,0.0,0.0,0.0,0.0,0.0,0.0,0.0,0.0,0.0,0.0,0.0,0.0,0.0,0.0,0.0,0.0,0.0,0.0,0.0,0.0,0.0,0.0,0.0,0.0,0.0,0.0,0.0,0.0,0.0,0.0,0.0,0.0,0.0,0.0,0.0,0.0,0.0,0.0,0.0,0.0,0.0,0.0,0.0,0.0,0.0,0.0,0.0,0.0,0.0,0.0,0.0,0.0,0.0,0.0,0.0,0.0,0.0,0.0,0.0,1.4082,0.0,0.0,0.0,0.0,0.0,0.0,0.0,0.0,0.0,0.0,0.0,0.0,0.0,0.0,0.0,0.0,0.0,0.0,0.0,0.0,0.0,0.0,0.0,0.0,0.0,0.0,0.0,0.0,0.0,0.0,0.0,0.0,0.0,0.0,0.0,0.0,0.0,0.0,0.0,0.0,0.0,0.0,0.0,0.0,0.0,0.0,0.0,0.0,0.0,0.0,0.0,0.0,0.0,0.0,0.0,0.0,0.0,0.0,0.0,0.0,0.0,0.0,0.0,0.0,0.0,0.0,0.0,0.0,0.0,0.0,0.0,0.0,0.0,0.0,0.0,0.0,0.0,0.0,0.0,0.0,0.0,0.0,0.0,0.0,0.0,0.0,0.0,0.0,0.0,0.0,0.0,0.0,0.0,0.0,0.0,0.0,0.0,0.0,0.0,0.0,0.0,0.0,0.0,0.0,0.0,0.0,0.0,0.0,0.0,0.0,1.4088,1.4088,1.4088,1.4088,1.4082,0.0,0.0,0.0,0.0,0.0,0.0,0.0,0.0,0.0,0.0,0.0,0.0,0.0,0.0,0.0,0.0,0.0,0.0,0.0,0.0,0.0,0.0,0.0,0.0,0.0,0.0,0.0,0.0,0.0,0.0,0.0,0.0,0.0,0.0,0.0,0.0,0.0,0.0,0.0,0.0,0.0,0.0,0.0,0.0,0.0,0.0,0.0,0.0,0.0,0.0,0.0,0.0,0.0,0.0,0.0,0.0,0.0,0.0,0.0,0.0,0.0,0.0,0.0,0.0,0.0,0.0,0.0,0.0,0.0,0.0,0.0,0.0,0.0,0.0,0.0,0.0,0.0,0.0,0.0,0.0,0.0,0.0,0.0,0.0,0.0,0.0,0.0,0.0,0.0,0.0,0.0,0.0,0.0,0.0,0.0,0.0,0.0,0.0,0.0,0.0,0.0,0.0,0.0,0.0,0.0,0.0,0.0,0.0,0.0,0.0,0.0,0.0,1.4088,1.4088,1.4088,0.0,0.0,0.0,0.0,0.0,0.0,0.0,0.0,0.0,0.0,0.0,0.0,0.0,0.0,0.0,0.0,0.0,0.0,0.0,0.0,0.0,0.0,0.0,0.0,0.0,0.0,0.0,0.0,0.0,0.0,0.0,0.0,0.0,0.0,0.0,0.0,0.0,0.0,0.0,0.0,0.0,0.0,0.0,0.0,0.0,0.0,0.0,0.0,0.0,0.0,0.0,0.0,0.0,0.0,0.0,0.0,0.0,0.0,0.0,0.0,0.0,0.0,0.0,0.0,0.0,0.0,0.0,0.0,0.0,0.0,0.0,0.0,0.0,0.0,0.0,0.0,0.0,0.0,0.0,0.0,0.0,0.0,0.0,0.0,0.0,0.0,0.0,0.0,0.0,0.0,0.0,0.0,0.0,0.0,0.0,0.0,0.0,0.0,0.0,0.0,0.0,0.0,0.0,0.0,0.0,0.0,0.0,0.0,0.0,0.0,1.4088,1.4088,1.4088,0.0,1.4088,0.0,0.0,0.0,0.0,0.0,0.0,0.0,0.0,0.0,0.0,0.0,0.0,0.0,0.0,0.0,0.0,0.0,0.0,0.0,0.0,0.0,0.0,0.0,0.0,0.0,0.0,0.0,0.0,0.0,0.0,0.0,0.0,0.0,0.0,0.0,0.0,0.0,0.0,0.0,0.0,0.0,0.0,0.0,0.0,0.0,0.0,0.0,0.0,0.0,0.0,0.0,0.0,0.0,0.0,0.0,0.0,0.0,0.0,0.0,0.0,0.0,0.0,0.0,0.0,0.0,0.0,0.0,0.0,0.0,0.0,0.0,0.0,0.0,0.0,0.0,0.0,0.0,0.0,0.0,0.0,0.0,0.0,0.0,0.0,0.0,0.0,0.0,0.0,0.0,0.0,0.0,0.0,0.0,0.0,0.0,0.0,0.0,0.0,0.0,0.0,0.0,0.0,0.0,0.0,0.0,0.0,0.0,0.0,0.0,0.0,1.4088,1.4088,1.4088,1.4088,0.0,0.0,0.0,0.0,0.0,0.0,0.0,0.0,0.0,0.0,0.0,0.0,0.0,0.0,0.0,0.0,0.0,0.0,0.0,0.0,0.0,0.0,0.0,0.0,0.0,0.0,0.0,0.0,0.0,0.0,0.0,0.0,0.0,0.0,0.0,0.0,0.0,0.0,0.0,0.0,0.0,0.0,0.0,0.0,0.0,0.0,0.0,0.0,0.0,0.0,0.0,0.0,0.0,0.0,0.0,0.0,0.0,0.0,0.0,0.0,0.0,0.0,0.0,0.0,0.0,0.0,0.0,0.0,0.0,0.0,0.0,0.0,0.0,0.0,0.0,0.0,0.0,0.0,0.0,0.0,0.0,0.0,0.0,0.0,0.0,0.0,0.0,0.0,0.0,0.0,0.0,0.0,0.0,0.0,0.0,0.0,0.0,0.0,0.0,0.0,0.0,0.0,0.0,0.0,0.0,0.0,0.0,0.0,0.0,0.0,1.4088,1.4088,1.4088,1.4088,1.4088,1.4088,0.0,0.0,0.0,0.0,0.0,0.0,0.0,0.0,0.0,0.0,0.0,0.0,0.0,0.0,0.0,0.0,0.0,0.0,0.0,0.0,0.0,0.0,0.0,0.0,0.0,0.0,0.0,0.0,0.0,0.0,0.0,0.0,0.0,0.0,0.0,0.0,0.0,0.0,0.0,0.0,0.0,0.0,0.0,0.0,0.0,0.0,0.0,0.0,0.0,0.0,0.0,0.0,0.0,0.0,0.0,0.0,0.0,0.0,0.0,0.0,0.0,0.0,0.0,0.0,0.0,0.0,0.0,0.0,0.0,0.0,0.0,0.0,0.0,0.0,0.0,0.0,0.0,0.0,0.0,0.0,0.0,0.0,0.0,0.0,0.0,0.0,0.0,0.0,0.0,0.0,0.0,0.0,0.0,0.0,0.0,0.0,0.0,0.0,0.0,0.0,0.0,0.0,0.0,0.0,0.0,0.0,0.0,0.0,1.4088,1.4088,1.4095,1.4095,1.4088,1.4088,0.0,0.0,0.0,0.0,0.0,0.0,0.0,0.0,0.0,0.0,0.0,0.0,0.0,0.0,0.0,0.0,0.0,0.0,0.0,0.0,0.0,0.0,0.0,0.0,0.0,0.0,0.0,0.0,0.0,0.0,0.0,0.0,0.0,0.0,0.0,0.0,0.0,0.0,0.0,0.0,0.0,0.0,0.0,0.0,0.0,0.0,0.0,0.0,0.0,0.0,0.0,0.0,0.0,0.0,0.0,0.0,0.0,0.0,0.0,0.0,0.0,0.0,0.0,0.0,0.0,0.0,0.0,0.0,0.0,0.0,0.0,0.0,0.0,0.0,0.0,0.0,0.0,0.0,0.0,0.0,0.0,0.0,0.0,0.0,0.0,0.0,0.0,0.0,0.0,0.0,0.0,0.0,0.0,0.0,0.0,0.0,0.0,0.0,0.0,0.0,0.0,0.0,0.0,0.0,0.0,0.0,0.0,0.0,0.0,1.4362,1.4369,1.4362,1.4362,1.4182,1.4088,0.0,0.0,0.0,0.0,0.0,0.0,0.0,0.0,0.0,0.0,0.0,0.0,0.0,0.0,0.0,0.0,0.0,0.0,0.0,0.0,0.0,0.0,0.0,0.0,0.0,0.0,0.0,0.0,0.0,0.0,0.0,0.0,0.0,0.0,0.0,0.0,0.0,0.0,0.0,0.0,0.0,0.0,0.0,0.0,0.0,0.0,0.0,0.0,0.0,0.0,0.0,0.0,0.0,0.0,0.0,0.0,0.0,0.0,0.0,0.0,0.0,0.0,0.0,0.0,0.0,0.0,0.0,0.0,0.0,0.0,0.0,0.0,0.0,0.0,0.0,0.0,0.0,0.0,0.0,0.0,0.0,0.0,0.0,0.0,0.0,0.0,0.0,0.0,0.0,0.0,0.0,0.0,0.0,0.0,0.0,0.0,0.0,0.0,0.0,0.0,0.0,0.0,0.0,0.0,0.0,0.0,0.0,0.0,0.0,1.4656,0.0,1.4616,1.4522,1.4329,1.4182,0.0,0.0,0.0,0.0,0.0,0.0,0.0,0.0,0.0,0.0,0.0,0.0,0.0,0.0,0.0,0.0,0.0,0.0,0.0,0.0,0.0,0.0,0.0,0.0,0.0,0.0,0.0,0.0,0.0,0.0,0.0,0.0,0.0,0.0,0.0,0.0,0.0,0.0,0.0,0.0,0.0,0.0,0.0,0.0,0.0,0.0,0.0,0.0,0.0,0.0,0.0,0.0,0.0,0.0,0.0,0.0,0.0,0.0,0.0,0.0,0.0,0.0,0.0,0.0,0.0,0.0,0.0,0.0,0.0,0.0,0.0,0.0,0.0,0.0,0.0,0.0,0.0,0.0,0.0,0.0,0.0,0.0,0.0,0.0,0.0,0.0,0.0,0.0,0.0,0.0,0.0,0.0,0.0,0.0,0.0,0.0,0.0,0.0,0.0,0.0,0.0,0.0,0.0,0.0,0.0,0.0,0.0,0.0,1.4689,1.5001,1.5015,1.4836,1.4543,1.4522,1.4376,0.0,0.0,0.0,0.0,0.0,0.0,0.0,0.0,0.0,0.0,0.0,0.0,0.0,0.0,0.0,0.0,0.0,0.0,0.0,0.0,0.0,0.0,0.0,0.0,0.0,0.0,0.0,0.0,0.0,0.0,0.0,0.0,0.0,0.0,0.0,0.0,0.0,0.0,0.0,0.0,0.0,0.0,0.0,0.0,0.0,0.0,0.0,0.0,0.0,0.0,0.0,0.0,0.0,0.0,0.0,0.0,0.0,0.0,0.0,0.0,0.0,0.0,0.0,0.0,0.0,0.0,0.0,0.0,0.0,0.0,0.0,0.0,0.0,0.0,0.0,0.0,0.0,0.0,0.0,0.0,0.0,0.0,0.0,0.0,0.0,0.0,0.0,0.0,0.0,0.0,0.0,0.0,0.0,0.0,0.0,0.0,0.0,0.0,0.0,0.0,0.0,0.0,0.0,0.0,0.0,0.0,0.0,0.0,0.0,1.5551,1.5364,1.5224,1.5117,1.473,1.4476,0.0,0.0,0.0,0.0,0.0,0.0,0.0,0.0,0.0,0.0,0.0,0.0,0.0,0.0,0.0,0.0,0.0,0.0,0.0,0.0,0.0,0.0,0.0,0.0,0.0,0.0,0.0,0.0,0.0,0.0,0.0,0.0,0.0,0.0,0.0,0.0,0.0,0.0,0.0,0.0,0.0,0.0,0.0,0.0,0.0,0.0,0.0,0.0,0.0,0.0,0.0,0.0,0.0,0.0,0.0,0.0,0.0,0.0,0.0,0.0,0.0,0.0,0.0,0.0,0.0,0.0,0.0,0.0,0.0,0.0,0.0,0.0,0.0,0.0,0.0,0.0,0.0,0.0,0.0,0.0,0.0,0.0,0.0,0.0,0.0,0.0,0.0,0.0,0.0,0.0,0.0,0.0,0.0,0.0,0.0,0.0,0.0,0.0,0.0,0.0,0.0,0.0,0.0,0.0,0.0,0.0,0.0,0.0,0.0,1.6959,1.6325,1.5852,1.5565,1.5197,1.485,1.4522,0.0,0.0,0.0,0.0,0.0,0.0,0.0,0.0,0.0,0.0,0.0,0.0,0.0,0.0,0.0,0.0,0.0,0.0,0.0,0.0,0.0,0.0,0.0,0.0,0.0,0.0,0.0,0.0,0.0,0.0,0.0,0.0,0.0,0.0,0.0,0.0,0.0,0.0,0.0,0.0,0.0,0.0,0.0,0.0,0.0,0.0,0.0,0.0,0.0,0.0,0.0,0.0,0.0,0.0,0.0,0.0,0.0,0.0,0.0,0.0,0.0,0.0,0.0,0.0,0.0,0.0,0.0,0.0,0.0,0.0,0.0,0.0,0.0,0.0,0.0,0.0,0.0,0.0,0.0,0.0,0.0,0.0,0.0,0.0,0.0,0.0,0.0,0.0,0.0,0.0,0.0,0.0,0.0,0.0,0.0,0.0,0.0,0.0,0.0,0.0,0.0,0.0,0.0,0.0,0.0,0.0,0.0,0.0,1.8933,1.7705,1.6704,1.5953,1.5879,1.5424,0.0,0.0,0.0,0.0,0.0,0.0,0.0,0.0,0.0,0.0,0.0,0.0,0.0,0.0,0.0,0.0,0.0,0.0,0.0,0.0,0.0,0.0,0.0,0.0,0.0,0.0,0.0,0.0,0.0,0.0,0.0,0.0,0.0,0.0,0.0,0.0,0.0,0.0,0.0,0.0,0.0,0.0,0.0,0.0,0.0,0.0,0.0,0.0,0.0,0.0,0.0,0.0,0.0,0.0,0.0,0.0,0.0,0.0,0.0,0.0,0.0,0.0,0.0,0.0,0.0,0.0,0.0,0.0,0.0,0.0,0.0,0.0,0.0,0.0,0.0,0.0,0.0,0.0,0.0,0.0,0.0,0.0,0.0,0.0,0.0,0.0,0.0,0.0,0.0,0.0,0.0,0.0,0.0,0.0,0.0,0.0,0.0,0.0,0.0,0.0,0.0,0.0,0.0,0.0,0.0,0.0,0.0,0.0,0.0,1.9212,1.8505,1.7875,1.7364,1.6755,1.6128,0.0,0.0,0.0,0.0,0.0,0.0,0.0,0.0,0.0,0.0,0.0,0.0,0.0,0.0,0.0,0.0,0.0,0.0,0.0,0.0,0.0,0.0,0.0,0.0,0.0,0.0,0.0,0.0,0.0,0.0,0.0,0.0,0.0,0.0,0.0,0.0,0.0,0.0,0.0,0.0,0.0,0.0,0.0,0.0,0.0,0.0,0.0,0.0,0.0,0.0,0.0,0.0,0.0,0.0,0.0,0.0,0.0,0.0,0.0,0.0,0.0,0.0,0.0,0.0,0.0,0.0,0.0,0.0,0.0,0.0,0.0,0.0,0.0,0.0,0.0,0.0,0.0,0.0,0.0,0.0,0.0,0.0,0.0,0.0,0.0,0.0,0.0,0.0,0.0,0.0,0.0,0.0,0.0,0.0,0.0,0.0,0.0,0.0,0.0,0.0,0.0,0.0,0.0,0.0,0.0,0.0,0.0,0.0,1.9751,2.0482,1.9926,1.9311,1.8756,1.7713,1.6771,0.0,0.0,0.0,0.0,0.0,0.0,0.0,0.0,0.0,0.0,0.0,0.0,0.0,0.0,0.0,0.0,0.0,0.0,0.0,0.0,0.0,0.0,0.0,0.0,0.0,0.0,0.0,0.0,0.0,0.0,0.0,0.0,0.0,0.0,0.0,0.0,0.0,0.0,0.0,0.0,0.0,0.0,0.0,0.0,0.0,0.0,0.0,0.0,0.0,0.0,0.0,0.0,0.0,0.0,0.0,0.0,0.0,0.0,0.0,0.0,0.0,0.0,0.0,0.0,0.0,0.0,0.0,0.0,0.0,0.0,0.0,0.0,0.0,0.0,0.0,0.0,0.0,0.0,0.0,0.0,0.0,0.0,0.0,0.0,0.0,0.0,0.0,0.0,0.0,0.0,0.0,0.0,0.0,0.0,0.0,0.0,0.0,0.0,0.0,0.0,0.0,0.0,0.0,0.0,0.0,0.0,0.0,0.0,2.1591,2.2185,2.1548,2.0885,2.0184,1.8669,1.7374,0.0,0.0,0.0,0.0,0.0,0.0,0.0,0.0,0.0,0.0,0.0,0.0,0.0,0.0,0.0,0.0,0.0,0.0,0.0,0.0,0.0,0.0,0.0,0.0,0.0,0.0,0.0,0.0,0.0,0.0,0.0,0.0,0.0,0.0,0.0,0.0,0.0,0.0,0.0,0.0,0.0,0.0,0.0,0.0,0.0,0.0,0.0,0.0,0.0,0.0,0.0,0.0,0.0,0.0,0.0,0.0,0.0,0.0,0.0,0.0,0.0,0.0,0.0,0.0,0.0,0.0,0.0,0.0,0.0,0.0,0.0,0.0,0.0,0.0,0.0,0.0,0.0,0.0,0.0,0.0,0.0,0.0,0.0,0.0,0.0,0.0,0.0,0.0,0.0,0.0,0.0,0.0,0.0,0.0,0.0,0.0,0.0,0.0,0.0,0.0,0.0,0.0,0.0,0.0,0.0,0.0,0.0,0.0,2.2013,2.345,2.2548,2.21,2.2165,1.9758,1.7988,0.0,0.0,0.0,0.0,0.0,0.0,0.0,0.0,0.0,0.0,0.0,0.0,0.0,0.0,0.0,0.0,0.0,0.0,0.0,0.0,0.0,0.0,0.0,0.0,0.0,0.0,0.0,0.0,0.0,0.0,0.0,0.0,0.0,0.0,0.0,0.0,0.0,0.0,0.0,0.0,0.0,0.0,0.0,0.0,0.0,0.0,0.0,0.0,1.7301,0.0,0.0,0.0,0.0,0.0,0.0,0.0,0.0,0.0,0.0,0.0,0.0,0.0,0.0,0.0,0.0,0.0,0.0,0.0,0.0,0.0,0.0,0.0,0.0,0.0,0.0,0.0,0.0,0.0,0.0,0.0,0.0,0.0,0.0,0.0,0.0,0.0,0.0,0.0,0.0,0.0,0.0,0.0,0.0,0.0,0.0,0.0,0.0,0.0,0.0,0.0,0.0,0.0,0.0,0.0,0.0,0.0,0.0,0.0,2.3121,2.3849,2.3356,2.3012,2.2757,2.1205,1.9698,0.0,0.0,0.0,0.0,0.0,0.0,0.0,0.0,0.0,0.0,0.0,0.0,0.0,0.0,0.0,0.0,0.0,0.0,0.0,0.0,0.0,0.0,0.0,0.0,0.0,0.0,0.0,0.0,0.0,0.0,0.0,0.0,0.0,0.0,0.0,0.0,0.0,0.0,0.0,0.0,0.0,0.0,0.0,0.0,0.0,0.0,0.0,0.0,0.0,0.0,0.0,0.0,0.0,0.0,0.0,0.0,0.0,0.0,0.0,0.0,0.0,0.0,0.0,0.0,0.0,0.0,0.0,0.0,0.0,0.0,0.0,0.0,0.0,0.0,0.0,0.0,0.0,0.0,0.0,0.0,0.0,0.0,0.0,0.0,0.0,0.0,0.0,0.0,0.0,0.0,0.0,0.0,0.0,0.0,0.0,0.0,0.0,0.0,0.0,0.0,0.0,0.0,0.0,0.0,0.0,0.0,0.0,2.4238,2.4322,2.421,2.4248,2.391,2.3262,2.2883,2.1854,2.0046,0.0,0.0,0.0,0.0,0.0,0.0,0.0,0.0,0.0,0.0,0.0,0.0,0.0,0.0,0.0,0.0,0.0,0.0,0.0,0.0,0.0,0.0,0.0,0.0,0.0,0.0,0.0,0.0,0.0,0.0,0.0,0.0,0.0,0.0,0.0,0.0,0.0,0.0,2.0729,2.1331,0.0,0.0,0.0,0.0,0.0,0.0,0.0,0.0,1.922,0.0,0.0,0.0,0.0,0.0,0.0,0.0,0.0,0.0,0.0,0.0,0.0,0.0,0.0,0.0,0.0,0.0,0.0,0.0,0.0,0.0,0.0,0.0,0.0,0.0,0.0,0.0,0.0,0.0,0.0,0.0,0.0,0.0,0.0,0.0,0.0,0.0,0.0,0.0,0.0,0.0,0.0,0.0,0.0,0.0,0.0,0.0,0.0,0.0,0.0,0.0,0.0,0.0,0.0,0.0,0.0,2.4307,2.4375,2.4711,2.5402,2.5431,2.5334,2.5217,2.4852,2.3938,2.2476,0.0,0.0,0.0,0.0,0.0,0.0,0.0,0.0,0.0,0.0,0.0,0.0,0.0,0.0,0.0,0.0,0.0,0.0,0.0,0.0,0.0,0.0,0.0,0.0,0.0,0.0,0.0,0.0,0.0,0.0,0.0,0.0,0.0,0.0,0.0,0.0,0.0,0.0,0.0,2.3162,2.2863,0.0,0.0,0.0,0.0,0.0,0.0,0.0,0.0,2.0413,0.0,0.0,0.0,0.0,0.0,0.0,0.0,0.0,0.0,0.0,0.0,0.0,0.0,0.0,0.0,0.0,0.0,0.0,0.0,0.0,0.0,0.0,0.0,0.0,0.0,0.0,0.0,0.0,0.0,0.0,0.0,0.0,0.0,0.0,0.0,0.0,0.0,0.0,0.0,0.0,0.0,0.0,0.0,0.0,0.0,0.0,0.0,0.0,0.0,0.0,0.0,0.0,0.0,0.0,0.0,2.4346,2.4424,2.4844,2.5645,2.5684,2.5625,2.54,2.5185,2.4568,0.0,0.0,0.0,0.0,0.0,0.0,0.0,0.0,0.0,0.0,0.0,0.0,0.0,0.0,0.0,0.0,0.0,0.0,0.0,0.0,0.0,0.0,0.0,0.0,0.0,0.0,0.0,0.0,0.0,0.0,0.0,0.0,0.0,0.0,0.0,0.0,0.0,0.0,0.0,0.0,2.4856,2.4771,2.4879,0.0,0.0,0.0,0.0,0.0,0.0,2.2218,2.1709,0.0,0.0,0.0,0.0,0.0,0.0,0.0,0.0,0.0,0.0,0.0,0.0,0.0,0.0,0.0,0.0,0.0,0.0,0.0,0.0,0.0,0.0,0.0,0.0,0.0,0.0,0.0,0.0,0.0,0.0,0.0,0.0,0.0,0.0,0.0,0.0,0.0,0.0,0.0,0.0,0.0,0.0,0.0,0.0,0.0,0.0,0.0,0.0,0.0,0.0,0.0,0.0,0.0,0.0,0.0,2.4355,2.4294,2.4771,2.5625,2.5518,2.5342,2.5116,2.4949,2.4538,0.0,0.0,0.0,0.0,0.0,0.0,0.0,0.0,0.0,0.0,0.0,0.0,0.0,0.0,0.0,0.0,0.0,0.0,0.0,0.0,0.0,0.0,0.0,0.0,0.0,0.0,0.0,0.0,0.0,0.0,0.0,0.0,0.0,0.0,0.0,0.0,0.0,0.0,0.0,0.0,0.0,2.6557,2.6259,2.5121,0.0,0.0,0.0,0.0,2.3943,2.3711,0.0,0.0,0.0,0.0,0.0,0.0,0.0,0.0,0.0,0.0,0.0,0.0,0.0,0.0,0.0,0.0,0.0,0.0,0.0,0.0,0.0,0.0,0.0,0.0,0.0,0.0,0.0,0.0,0.0,0.0,0.0,0.0,0.0,0.0,0.0,0.0,0.0,0.0,0.0,0.0,0.0,0.0,0.0,0.0,0.0,0.0,0.0,0.0,0.0,0.0,0.0,0.0,0.0,0.0,0.0,0.0,2.4297,2.4029,2.4445,2.5605,2.4923,2.4727,2.5086,2.4336,2.3896,0.0,0.0,0.0,0.0,0.0,0.0,0.0,0.0,0.0,0.0,0.0,0.0,0.0,0.0,0.0,0.0,0.0,0.0,0.0,0.0,0.0,0.0,0.0,0.0,0.0,0.0,0.0,0.0,0.0,0.0,0.0,0.0,0.0,0.0,0.0,0.0,0.0,0.0,0.0,0.0,0.0,2.7361,2.6957,2.6838,2.6343,0.0,0.0,2.6526,2.6182,2.6463,0.0,0.0,0.0,0.0,0.0,0.0,0.0,0.0,0.0,0.0,0.0,0.0,0.0,0.0,0.0,0.0,0.0,0.0,0.0,0.0,0.0,0.0,0.0,0.0,0.0,0.0,0.0,0.0,0.0,0.0,0.0,0.0,0.0,0.0,0.0,0.0,0.0,0.0,0.0,0.0,0.0,0.0,0.0,0.0,0.0,0.0,0.0,0.0,0.0,0.0,0.0,0.0,0.0,0.0,0.0,2.3494,2.4606,2.4946,2.5468,2.6128,2.5537,2.5295,2.5568,2.4791,2.4206,0.0,0.0,0.0,0.0,0.0,0.0,0.0,0.0,0.0,0.0,0.0,0.0,0.0,0.0,0.0,0.0,0.0,0.0,0.0,0.0,0.0,0.0,0.0,0.0,0.0,0.0,0.0,0.0,0.0,0.0,0.0,0.0,0.0,0.0,0.0,0.0,0.0,0.0,0.0,0.0,0.0,0.0,2.7741,2.7434,0.0,0.0,0.0,2.7022,2.646,0.0,0.0,0.0,0.0,0.0,0.0,0.0,0.0,0.0,0.0,0.0,0.0,0.0,0.0,0.0,0.0,0.0,0.0,0.0,0.0,0.0,0.0,0.0,0.0,0.0,0.0,0.0,0.0,0.0,0.0,0.0,0.0,0.0,0.0,0.0,0.0,0.0,0.0,0.0,0.0,0.0,0.0,0.0,0.0,0.0,0.0,0.0,0.0,0.0,0.0,0.0,0.0,0.0,0.0,0.0,0.0,0.0,2.5272,2.6001,2.6671,2.7175,2.6368,2.6075,2.6372,2.5482,0.0,0.0,0.0,0.0,0.0,0.0,0.0,0.0,0.0,0.0,0.0,0.0,0.0,0.0,0.0,0.0,0.0,0.0,0.0,0.0,0.0,0.0,0.0,0.0,0.0,0.0,0.0,2.2994,0.0,0.0,0.0,0.0,0.0,0.0,0.0,0.0,0.0,0.0,0.0,0.0,0.0,0.0,2.8179,2.8658,2.8362,2.7969,0.0,0.0,2.779,2.7232,2.7595,2.7503,0.0,0.0,0.0,0.0,0.0,0.0,0.0,0.0,0.0,0.0,0.0,0.0,0.0,0.0,0.0,0.0,0.0,0.0,0.0,0.0,0.0,0.0,0.0,0.0,0.0,0.0,0.0,0.0,0.0,0.0,0.0,0.0,0.0,0.0,0.0,0.0,0.0,0.0,0.0,0.0,0.0,0.0,0.0,0.0,0.0,0.0,0.0,0.0,0.0,0.0,0.0,0.0,0.0,0.0,0.0,2.6469,2.6892,2.7787,2.9091,2.7282,2.6748,2.7709,2.6258,2.5348,0.0,0.0,0.0,0.0,0.0,0.0,0.0,0.0,0.0,0.0,0.0,0.0,0.0,0.0,0.0,0.0,0.0,0.0,0.0,0.0,0.0,0.0,0.0,0.0,0.0,0.0,0.0,0.0,0.0,0.0,0.0,0.0,0.0,0.0,0.0,0.0,0.0,0.0,0.0,0.0,0.0,2.9095,2.9765,3.0154,3.0217,0.0,0.0,3.0012,2.9466,2.9731,2.9575,2.8271,0.0,0.0,0.0,0.0,0.0,0.0,0.0,0.0,0.0,0.0,0.0,0.0,0.0,0.0,0.0,0.0,0.0,0.0,0.0,0.0,0.0,0.0,0.0,0.0,0.0,0.0,0.0,0.0,0.0,0.0,0.0,0.0,0.0,0.0,0.0,0.0,0.0,0.0,0.0,0.0,0.0,0.0,0.0,0.0,0.0,0.0,0.0,0.0,0.0,0.0,0.0,0.0,0.0,2.7224,2.7617,2.8333,2.907,2.9773,2.8497,2.8119,2.8826,2.7459,2.6607,0.0,0.0,0.0,0.0,0.0,0.0,0.0,0.0,0.0,0.0,0.0,0.0,0.0,0.0,0.0,0.0,0.0,0.0,0.0,0.0,0.0,0.0,0.0,0.0,0.0,0.0,0.0,0.0,2.6595,2.6391,2.619,0.0,0.0,0.0,0.0,0.0,0.0,0.0,0.0,0.0,0.0,2.9683,2.9973,3.0605,0.0,0.0,3.062,3.065,3.0232,2.9987,2.956,2.8799,2.8115,0.0,0.0,0.0,0.0,0.0,0.0,0.0,0.0,0.0,0.0,0.0,0.0,0.0,0.0,0.0,0.0,0.0,0.0,0.0,0.0,0.0,0.0,0.0,0.0,0.0,0.0,0.0,0.0,0.0,0.0,0.0,0.0,0.0,0.0,0.0,0.0,0.0,0.0,0.0,0.0,0.0,0.0,0.0,0.0,0.0,0.0,0.0,0.0,0.0,0.0,0.0,0.0,2.8473,2.8604,2.9605,3.0358,3.0776,2.9923,2.9636,2.9942,2.878,2.7923,0.0,0.0,0.0,0.0,0.0,0.0,0.0,0.0,0.0,0.0,0.0,0.0,0.0,0.0,0.0,0.0,0.0,0.0,0.0,0.0,0.0,0.0,0.0,0.0,0.0,0.0,0.0,0.0,2.7738,2.7506,2.7506,0.0,0.0,0.0,0.0,0.0,0.0,0.0,0.0,0.0,0.0,3.12,3.1391,3.188,3.2114,3.1816,3.1698,3.1406,3.0767,3.0374,2.9913,2.9268,0.0,0.0,0.0,0.0,0.0,0.0,0.0,0.0,0.0,0.0,0.0,0.0,0.0,0.0,0.0,0.0,0.0,0.0,0.0,0.0,0.0,0.0,0.0,0.0,0.0,0.0,0.0,3.0419,0.0,0.0,3.0432,0.0,0.0,0.0,0.0,0.0,0.0,0.0,0.0,0.0,0.0,0.0,0.0,0.0,0.0,0.0,0.0,0.0,0.0,0.0,0.0,0.0,0.0,2.9586,2.9338,3.0626,3.1596,3.2118,3.157,3.1257,3.1276,3.0175,2.9205,2.8462,0.0,0.0,0.0,0.0,0.0,0.0,0.0,0.0,0.0,0.0,0.0,0.0,0.0,0.0,0.0,0.0,0.0,0.0,0.0,0.0,0.0,0.0,0.0,0.0,0.0,0.0,2.8813,2.885,2.8838,0.0,0.0,0.0,0.0,0.0,0.0,0.0,0.0,0.0,0.0,3.2936,3.3872,3.4512,3.4509,3.4226,3.4094,3.342,3.2469,3.1319,3.1222,3.0936,0.0,0.0,0.0,0.0,0.0,0.0,0.0,0.0,0.0,0.0,0.0,0.0,0.0,0.0,0.0,0.0,0.0,0.0,0.0,0.0,0.0,0.0,0.0,0.0,0.0,0.0,0.0,3.2302,3.3165,0.0,0.0,0.0,0.0,0.0,0.0,0.0,0.0,0.0,0.0,0.0,3.5668,3.6043,0.0,0.0,0.0,0.0,0.0,0.0,0.0,0.0,0.0,0.0,0.0,0.0,3.01,3.0695,3.1163,3.1851,3.2742,3.2204,3.1755,3.1399,3.067,2.9551,2.8074,0.0,0.0,0.0,0.0,0.0,0.0,0.0,0.0,0.0,0.0,0.0,0.0,0.0,0.0,0.0,0.0,0.0,0.0,0.0,0.0,0.0,0.0,0.0,0.0,0.0,2.8875,0.0,0.0,0.0,0.0,0.0,0.0,0.0,0.0,0.0,0.0,0.0,3.18,3.2529,3.3352,3.4132,3.4737,3.5023,3.5289,0.0,0.0,0.0,0.0,0.0,0.0,0.0,0.0,0.0,0.0,0.0,0.0,0.0,0.0,2.6631,2.5814,2.482,2.4207,2.451,0.0,0.0,0.0,0.0,0.0,0.0,0.0,0.0,0.0,0.0,0.0,0.0,0.0,0.0,3.3936,0.0,3.4794,0.0,0.0,0.0,0.0,0.0,0.0,0.0,0.0,3.7387,3.7649,3.7353,3.7686,3.7446,0.0,3.6194,3.5337,0.0,0.0,0.0,0.0,0.0,0.0,0.0,0.0,3.0443,3.1115,3.1411,3.1922,3.2609,3.2441,3.2072,3.1565,3.103,3.0149,2.8973,2.9044,2.8533,0.0,0.0,0.0,0.0,0.0,0.0,0.0,0.0,0.0,0.0,0.0,0.0,0.0,0.0,0.0,0.0,0.0,0.0,0.0,0.0,0.0,0.0,0.0,2.9669,0.0,0.0,0.0,0.0,0.0,0.0,0.0,0.0,0.0,3.1496,3.2616,3.3684,3.4064,3.4848,3.551,3.5835,0.0,0.0,0.0,0.0,0.0,0.0,0.0,3.2985,3.1678,3.1085,3.059,2.9941,2.9616,2.9377,2.9185,0.0,0.0,2.7726,2.6929,2.6432,2.6389,2.5959,2.558,2.5368,2.5527,2.5217,0.0,0.0,0.0,0.0,0.0,0.0,0.0,0.0,3.5303,3.5354,0.0,3.5484,0.0,0.0,0.0,0.0,0.0,3.7046,0.0,0.0,3.9053,3.9409,3.9409,3.9409,3.9409,3.9379,3.8686,3.8017,3.723,3.4941,0.0,0.0,0.0,0.0,0.0,0.0,3.0812,3.0967,3.1563,3.1888,3.1967,3.2358,3.2345,3.1785,3.13,3.0986,3.096,3.0422,2.9859,2.9274,2.8481,0.0,0.0,0.0,0.0,0.0,0.0,0.0,0.0,0.0,0.0,0.0,0.0,0.0,0.0,0.0,0.0,0.0,0.0,0.0,0.0,3.0075,0.0,0.0,0.0,0.0,0.0,0.0,0.0,0.0,0.0,0.0,3.3518,3.428,3.5226,3.6164,0.0,0.0,0.0,0.0,3.8384,3.8396,3.7749,3.6843,3.5756,3.5356,3.4653,3.3172,0.0,0.0,3.112,3.0942,3.0776,3.0172,3.014,2.9734,2.8836,2.844,2.8335,2.8291,2.8257,2.832,2.8301,2.8048,2.7781,3.7816,0.0,0.0,0.0,0.0,3.5689,3.6385,3.7476,3.7476,3.8041,3.8978,3.8978,0.0,0.0,0.0,0.0,0.0,0.0,3.9682,3.9844,4.0056,4.0191,4.0176,3.996,3.9818,3.9818,3.9322,3.9002,3.8756,3.7597,3.5568,3.2758,0.0,0.0,0.0,0.0,3.3193,3.3943,3.345,3.3246,3.3673,3.2949,3.2345,3.181,3.1274,3.1024,3.1024,3.1078,3.0912,3.0503,3.048,0.0,0.0,0.0,0.0,0.0,0.0,0.0,0.0,0.0,0.0,0.0,0.0,0.0,0.0,0.0,0.0,0.0,0.0,0.0,2.9494,3.123,3.2055,0.0,0.0,0.0,0.0,0.0,0.0,0.0,0.0,0.0,3.6462,3.6716,3.6906,0.0,0.0,3.7952,3.8001,3.8429,3.8874,3.926,3.9089,0.0,3.7693,3.7211,3.6592,3.5503,3.5022,3.4423,3.3507,3.338,3.3008,3.1917,3.1657,3.1348,3.0705,2.9878,2.9389,2.9365,2.9322,2.9082,2.8809,2.874,2.8352,3.992,3.8333,3.7514,3.7316,3.7555,3.7555,3.8202,3.9213,3.9213,3.9714,4.0489,4.0489,4.0216,3.9783,3.9768,0.0,0.0,0.0,4.0489,4.0489,4.0489,4.0489,4.0489,4.0312,4.0191,4.0207,3.9945,3.9824,3.9839,3.9274,3.7597,3.4908,0.0,0.0,3.3608,3.409,3.471,3.5386,3.4802,3.4637,3.492,3.426,3.3729,3.3414,3.3047,3.2894,3.2894,3.2864,3.2618,3.218,3.1954,3.1504,0.0,0.0,0.0,0.0,0.0,0.0,0.0,0.0,0.0,0.0,0.0,2.905,2.9121,0.0,0.0,0.0,3.0375,3.0547,3.0943,3.2573,0.0,0.0,0.0,0.0,0.0,0.0,0.0,3.6255,3.7289,3.8054,3.8326,3.8381,3.8245,3.7756,3.8212,3.8608,3.8638,0.0,3.9905,4.0006,3.9993,3.9788,3.905,3.8402,3.7641,3.6589,3.6025,3.5528,3.5063,3.4907,3.4647,3.3887,3.3185,3.2678,3.2383,3.1286,3.0417,3.0428,3.0309,3.0099,2.9806,2.9738,2.9364,4.1749,4.1606,3.9807,3.9292,3.9673,3.9689,4.001,4.0578,4.0593,4.0593,4.0593,4.0593,4.0593,4.0593,4.0608,0.0,4.0593,4.0593,4.0593,4.0608,4.0593,4.0593,4.0593,4.0558,4.0558,4.0558,4.0524,4.0489,4.0455,4.0191,3.9365,3.8068,3.7086,3.618,3.5433,3.5608,3.576,3.5803,3.5934,3.5913,3.5783,3.5783,3.5783,3.5783,3.5783,3.5769,3.5754,3.5261,3.4644,3.4048,3.3209,3.253,3.2007,0.0,0.0,0.0,0.0,0.0,0.0,0.0,0.0,0.0,0.0,0.0,0.0,0.0,0.0,0.0,3.2373,0.0,3.2931,3.4051,0.0,0.0,0.0,3.6957,3.719,3.7713,3.8393,3.9101,0.0,0.0,3.9312,3.9394,3.9203,3.8737,3.9189,3.9603,3.9608,4.0474,4.1069,4.063,4.0504,4.0313,3.9788,3.9065,3.8162,3.7047,3.6315,3.6129,3.6014,3.5951,3.5916,3.5627,3.4738,3.3914,3.3857,3.2644,3.1593,3.1544,3.1287,3.1089,3.0922,3.0816,3.0447,4.3056,4.3072,4.3493,4.2686,4.1121,4.1105,4.1199,4.1323,4.1323,4.1339,4.1341,4.1341,4.1357,4.1323,4.1323,4.1323,4.1357,4.1323,4.1323,4.1357,4.1357,4.1323,4.1323,4.107,4.0969,4.0935,4.0662,4.0489,4.0489,4.0436,4.0065,3.9526,3.9254,3.8326,3.6874,3.7395,3.7982,3.8449,3.7622,3.6729,3.5834,3.5783,3.5783,3.5783,3.5783,3.5783,3.5819,3.602,3.5869,3.5228,3.5408,3.5019,3.3898,3.3263,0.0,0.0,0.0,0.0,0.0,0.0,0.0,0.0,0.0,3.242,3.2375,0.0,3.333,0.0,3.4804,3.5224,3.4285,3.6077,0.0,0.0,3.778,3.8529,3.8862,3.9288,3.9702,4.005,4.0406,4.0463,4.0114,4.0041,3.9851,3.923,3.9306,3.9453,3.9603,4.0161,4.0739,4.1017,4.0769,4.0453,4.03,3.9775,3.9272,3.898,3.878,3.8512,3.7863,3.777,3.7481,3.6471,3.6021,3.5631,3.5308,3.4102,3.3227,3.3027,3.2137,3.1117,3.0799,3.0646,3.0398,4.4285,4.435,4.5031,4.448,4.325,4.325,4.325,4.325,4.3266,4.325,4.3234,4.325,4.3266,4.325,4.325,4.3073,4.2784,4.2735,4.2575,4.2285,4.2254,4.2158,4.1948,4.1753,4.1555,4.1323,4.1088,4.0987,4.0987,4.0833,4.0662,4.0489,4.0296,3.9733,3.8775,3.8805,3.9035,3.9373,3.8763,3.8074,3.7448,3.7397,3.7382,3.7397,3.7397,3.7397,3.7397,3.7405,3.7089,3.6453,3.6458,3.6013,3.5011,3.4599,3.4227,0.0,0.0,0.0,0.0,0.0,0.0,0.0,0.0,0.0,0.0,0.0,3.4746,3.4722,3.6315,3.704,3.6317,3.8032,3.9155,3.9168,3.9954,4.0535,4.0787,4.0981,4.1126,4.1223,4.129,4.1169,4.0802,4.0745,4.0503,3.9851,3.9772,3.9802,3.9887,4.0346,4.0834,4.1182,4.1005,4.0824,4.0831,4.058,4.0338,4.0096,4.0044,3.9788,3.9102,3.8998,3.873,3.802,3.7401,3.6888,3.6578,3.5498,3.4525,3.4113,3.3205,3.2083,3.1147,3.0846,3.0713,4.555,4.555,4.5712,4.5696,4.555,4.5696,4.5615,4.5306,4.5306,4.5306,4.5306,4.5306,4.5306,4.5306,4.5306,4.4962,4.434,4.4324,4.3947,4.326,4.3244,4.2979,4.2492,4.2413,4.2142,4.172,4.1621,4.1588,4.1588,4.129,4.1138,4.1104,4.073,4.0558,4.047,3.9874,3.9532,3.9517,3.9481,3.9496,3.9496,3.9409,3.9388,3.9388,3.9388,3.9388,3.9373,3.8841,3.8212,3.7569,3.7064,3.6499,3.5854,3.5782,3.5416,0.0,3.4728,0.0,0.0,0.0,0.0,0.0,0.0,0.0,0.0,3.5317,3.5718,3.5769,3.7441,3.857,3.8627,3.9802,4.086,4.1467,4.2141,4.2515,4.2521,4.2455,4.2415,4.243,4.1908,4.1547,4.1478,4.1421,4.1169,4.0546,4.0218,4.0122,4.024,4.0608,4.0971,4.1157,4.1141,4.0976,4.107,4.1128,4.0967,4.0655,4.0593,4.0427,3.9867,3.9776,3.9762,3.9546,3.8695,3.7998,3.7974,3.6795,3.571,3.5183,3.4298,3.3225,3.1991,3.1368,3.1156,4.6817,4.6915,4.7893,4.7745,4.6915,4.7876,4.7143,4.5306,4.5306,4.5306,4.5306,4.5306,4.5306,4.5306,4.5306,4.5224,4.5078,4.5093,4.4684,4.3996,4.3996,4.3606,4.2976,4.2555,4.2349,4.2206,4.1834,4.1588,4.1588,4.1555,4.1357,4.1104,4.1037,4.0833,4.0524,0.0,0.0,0.0,3.9945,3.9889,3.9854,3.9568,3.9388,3.9388,3.9388,0.0,3.9388,3.929,3.8901,3.8257,3.8247,0.0,0.0,0.0,0.0,0.0,0.0,0.0,0.0,0.0,0.0,0.0,3.7759,3.7369,3.6955,3.7488,3.8126,3.863,3.9066,3.9592,4.0329,4.1126,4.1784,4.2179,4.2761,4.3095,4.311,4.3081,4.3115,4.309,4.2996,4.2699,4.2211,4.2129,4.1867,4.1197,4.0252,3.9828,4.0239,4.0316,4.0521,4.1011,4.077,4.0529,4.055,4.0628,4.0785,4.1015,4.1172,4.0889,4.0363,4.0284,4.0121,3.9764,3.9487,3.929,3.9265,3.787,3.6604,3.642,3.5123,3.365,3.2718,3.1924,3.1349,4.8104,4.8169,4.874,4.8658,0.0,4.8757,4.8315,4.711,4.7126,4.7126,4.7126,4.7126,4.7126,4.7126,4.7126,4.6926,4.661,4.6562,4.5979,4.4963,4.493,4.4411,4.3446,4.3188,4.3186,4.3278,4.3024,4.3073,4.3412,4.3412,4.3023,4.2276,4.2292,4.1869,4.107,4.1055,4.0817,4.037,4.0281,4.0242,4.0261,4.0051,3.9945,3.993,3.993,0.0,0.0,0.0,0.0,0.0,0.0,0.0,0.0,3.7701,0.0,3.794,3.7354,3.7356,3.8149,3.8243,3.8462,3.8949,3.934,3.924,3.8527,3.8802,3.928,3.9924,4.0293,4.0666,4.1179,4.1799,4.226,4.2439,4.2735,4.2962,4.3072,4.3109,4.3181,4.3284,4.3305,4.317,4.2835,4.2795,4.2496,4.1893,4.1275,4.0772,4.0675,3.9924,3.9604,4.0499,4.0761,4.0723,4.0754,4.0739,4.071,4.0808,4.0826,4.0561,4.0043,4.0008,3.9889,3.9594,3.9571,3.9601,3.9259,3.8429,3.7691,3.706,3.5953,3.483,3.4075,3.3005,3.2071,4.9018,4.9018,4.9018,4.9018,4.9018,4.9018,4.9018,4.9018,0.0,0.0,0.0,4.9018,4.9018,4.9018,4.9018,4.868,4.8091,4.8075,4.7365,4.6109,4.6092,4.5467,4.4348,4.4227,4.4288,4.4496,4.4435,4.4732,4.529,4.5306,4.4804,4.3913,4.3832,4.3298,4.2314,4.2249,4.1855,4.1072,4.0758,4.0593,4.0593,4.0539,4.0489,4.0489,4.0489,4.0489,4.0489,4.0489,4.0247,3.9693,3.9714,3.9501,3.8978,3.8331,3.8255,3.8798,3.8225,3.8291,3.92,3.9343,3.9597,3.9992,4.0595,4.0621,3.9915,3.9849,4.0096,4.065,4.1206,4.1527,4.161,4.2104,4.2453,4.2489,4.2519,4.2603,4.278,4.2849,4.294,4.3172,4.3214,4.3249,4.3275,4.3265,4.313,4.2563,4.2117,4.1898,4.1137,3.9869,3.9297,4.0131,4.0454,4.0724,4.0887,4.09,4.0802,4.0589,4.0508,4.026,3.9789,3.9638,3.9629,3.949,3.9534,3.9396,3.9015,3.8761,3.839,3.7507,3.6638,3.5954,3.5405,3.4239,3.3224,4.9018,4.9018,4.9018,4.9018,4.9018,4.9018,4.9018,4.9018,4.9018,4.9018,4.9018,4.9018,4.9018,4.9018,4.9018,4.8951,4.8849,4.8849,4.8409,4.7584,4.7597,4.7132,4.6364,4.5892,4.5713,4.5704,4.5332,4.5208,4.529,4.5323,4.5225,4.5096,4.5031,4.4933,4.4788,4.4771,4.4237,4.307,4.1738,4.1037,4.1003,4.0696,4.0489,4.0489,4.0524,4.0489,4.0489,4.0489,4.0443,4.0401,4.0507,4.0631,4.0725,4.0186,4.0019,4.0227,3.9629,3.955,4.0339,4.0737,4.1276,4.1916,4.2093,4.1901,4.1365,4.1299,4.1362,4.1423,4.15,4.1698,4.1953,4.2105,4.2244,4.2453,4.2489,4.2514,4.2569,4.2533,4.2646,4.291,4.2962,4.3051,4.3259,4.3299,4.3245,4.2986,4.24,4.1383,4.0888,4.028,4.0104,4.0168,3.9867,3.9811,4.0323,4.0309,4.0499,4.0949,4.0902,4.0593,4.0056,4.0001,3.9887,3.9482,3.9454,3.9429,3.9316,3.8621,3.8114,3.7747,3.7001,3.6341,3.6168,3.5415,3.4629,4.9018,4.9018,4.9018,4.9018,4.9018,4.9018,4.9018,4.9018,4.9018,4.9018,4.9018,4.9018,4.9018,4.9018,4.9018,4.9018,4.9018,4.9018,4.8612,4.7922,4.7906,4.7483,4.6836,4.6561,4.6639,4.6996,4.6798,4.6922,4.7273,4.7306,4.698,4.6346,4.5647,4.5306,4.5306,4.5306,4.5031,4.4496,4.3767,4.3053,4.2406,4.2224,4.2124,4.2124,4.1494,4.1088,4.1104,4.1088,4.1088,4.1104,4.1189,4.129,4.1341,4.0778,4.0686,4.1099,4.1087,4.139,4.2125,4.2604,4.3016,4.3342,4.3374,4.3263,4.3025,4.2139,4.1588,4.1588,4.1588,4.1649,4.1828,4.181,4.1868,4.1994,4.2025,4.2077,4.2244,4.2266,4.2386,4.2643,4.2692,4.2765,4.3051,4.3087,4.3151,4.3195,4.2723,4.2282,4.1946,4.1608,4.1226,4.0873,4.0589,4.0529,4.0721,4.047,4.0432,4.0649,4.0345,4.0056,3.9726,3.9771,3.9653,3.9414,3.9422,3.9308,3.915,3.8663,3.8225,3.7821,3.7313,3.6841,3.6687,3.625,3.5463,4.9018,4.9018,4.9018,4.9018,4.9018,4.9018,4.9018,4.9018,4.9018,4.9018,4.9018,4.9018,4.9018,4.9018,4.9018,4.9018,4.9018,4.9018,4.8697,4.8189,4.8156,4.7851,4.7344,4.7276,4.7597,4.8105,4.8142,4.8413,4.8951,4.9018,4.8529,4.7598,4.6621,4.6118,4.615,4.6118,4.6004,4.5777,4.6004,4.5404,4.3978,4.3897,4.3897,4.3832,4.2975,4.2427,4.2443,4.2443,4.2443,4.2443,4.2443,4.2443,4.2411,4.1948,4.1901,4.2412,4.28,4.3346,4.4009,4.4407,4.4609,4.4593,4.4609,4.4578,4.4341,4.3235,4.2443,4.2427,4.2249,4.2055,4.2071,4.1765,4.1588,4.1588,4.1762,4.1913,4.2006,4.2125,4.2361,4.2582,4.2489,4.259,4.3091,4.3145,4.319,4.3416,4.3463,4.3423,4.329,4.2835,4.2333,4.1893,4.1505,4.1268,4.1254,4.0901,4.0588,4.0503,4.0184,3.9933,3.973,3.9571,3.9438,3.9386,3.9357,3.9232,3.8839,3.8707,3.8464,3.8103,3.7631,3.7248,3.7062,3.6781,3.6061,4.9018,4.9018,4.9001,4.9018,4.9018,4.9018,4.9018,4.9018,4.9018,4.9018,4.9018,4.9018,4.9018,4.9018,4.9018,4.9018,4.9018,4.9018,4.8951,4.8883,4.89,4.8849,4.8731,4.8765,4.8832,4.8883,4.8866,4.8883,4.9001,4.9018,4.892,4.8838,4.8692,4.8577,4.861,4.8593,4.8104,4.7062,4.8104,4.7517,4.5306,4.5144,4.5144,4.5112,4.5014,4.495,4.4804,4.495,4.4933,4.495,4.4869,4.4917,4.4885,4.4852,4.4852,4.4869,4.4997,4.5269,4.5709,4.5832,4.5832,4.5832,4.5832,4.5663,4.5303,4.5095,4.495,4.4804,4.3978,4.3331,4.325,4.2377,4.1781,4.1781,4.2206,4.2363,4.1901,4.225,4.2726,4.2985,4.2622,4.2678,4.3932,4.3813,4.3631,4.3881,4.3934,4.3817,4.3488,4.329,4.317,4.2875,4.2181,4.1463,4.1421,4.1296,4.1212,4.1226,4.1127,4.0802,4.0374,4.0172,4.0055,3.9615,3.9404,3.9342,3.9136,3.8926,3.8637,3.8506,3.8109,3.7638,3.7248,3.7062,3.6439,4.9307,4.9277,4.9094,4.9018,4.9018,4.9018,4.9018,4.9018,4.9018,4.9018,4.9018,4.9018,4.9018,4.9018,4.9018,4.9018,4.9018,4.9018,4.9018,4.9018,4.9018,4.9018,4.9018,4.9018,4.9018,4.9018,4.9018,4.9018,4.9018,4.9018,4.9018,4.9018,4.9018,4.9018,4.9018,4.9018,4.874,4.8284,4.8757,4.8512,4.7534,4.6784,4.6411,4.6346,4.5696,4.5306,4.5306,4.5306,4.5306,4.5306,4.5306,4.5306,4.5306,4.5306,4.5306,4.5339,4.6021,4.683,4.7715,4.7393,4.711,4.7124,4.711,4.7049,4.6882,4.7235,4.75,4.7273,4.5712,4.4577,4.4512,4.3798,4.3164,4.2828,4.2755,4.2568,4.2299,4.2521,4.2879,4.3321,4.3242,4.3322,4.4085,4.4192,4.4211,4.4312,4.4358,4.4243,4.4089,4.3895,4.3738,4.3621,4.2981,4.2563,4.24,4.2114,4.1949,4.1825,4.1561,4.1127,4.1,4.0887,4.0674,4.0012,3.9938,3.9719,3.9305,3.9216,3.8993,3.8904,3.8634,3.8109,3.7605,3.7281,3.6815,4.9607,4.9577,4.926,4.9094,4.9018,4.9018,4.9018,4.9018,4.9018,4.9018,4.9018,4.9018,4.9018,4.9018,4.9018,4.9018,4.9018,4.9018,4.9018,4.9018,4.9018,4.9018,4.9018,4.9018,4.9018,4.9018,4.9018,4.9018,4.9018,4.9018,4.9018,4.9018,4.9018,4.9018,4.9018,4.9018,4.9018,4.9001,4.9018,4.9018,4.8855,4.8121,4.7697,4.7615,4.6801,4.6329,4.6329,4.6313,4.6329,4.6329,4.6329,4.6329,4.6313,4.6329,4.6329,4.6346,4.7143,4.8087,4.8937,4.8511,4.8206,4.8193,4.8223,4.8206,4.8308,4.8714,4.8984,4.8821,4.7371,4.6265,4.5778,4.5179,4.4496,4.4026,4.3647,4.3423,4.3266,4.3226,4.3469,4.3911,4.3747,4.387,4.4246,4.4631,4.488,4.4799,4.4761,4.4685,4.4625,4.432,4.4166,4.4166,4.3778,4.3448,4.329,4.2915,4.2592,4.2496,4.2196,4.1893,4.1645,4.1603,4.1338,4.076,4.0645,4.0345,3.9881,3.9631,3.9424,3.9261,3.8993,3.8589,3.8122,3.7756,3.7433,4.9895,4.9854,4.959,4.9307,4.9001,4.9032,4.9018,4.9032,4.9001,4.9018,4.9018,4.9018,4.9018,4.9018,4.9018,4.9018,4.9018,4.9018,4.9018,4.9018,4.9018,4.9018,4.9018,4.9018,4.9018,4.9018,4.9018,4.9018,4.9018,4.9018,4.9018,4.9018,4.9018,4.9018,4.9018,4.9018,4.9018,4.9018,4.9018,4.9018,4.9001,4.8937,4.8838,4.8821,4.8804,4.8658,4.8709,4.8773,4.8757,4.8773,4.8675,4.874,4.8757,4.874,4.8675,4.874,4.8821,4.8903,4.8984,4.8934,4.89,4.8917,4.8866,4.8917,4.8866,4.8951,4.9001,4.9001,4.874,4.8169,4.7208,4.6137,4.5422,4.5275,4.529,4.5039,4.449,4.4466,4.4594,4.4626,4.4243,4.4192,4.4646,4.5313,4.5421,4.5247,4.5173,4.5061,4.4799,4.4648,4.4572,4.4496,4.4243,4.3817,4.3423,4.317,4.317,4.309,4.2875,4.29,4.2537,4.217,4.1825,4.1519,4.1352,4.1015,4.0503,4.0085,3.9793,3.9587,3.9349,3.8948,3.8634,3.8589,3.8226,5.0114,4.9895,4.9779,4.9661,4.956,4.9398,4.9354,4.9307,4.9077,4.9018,4.9018,4.9018,4.9018,4.9018,4.9018,4.9018,4.9018,4.9018,4.9018,4.9018,4.9018,4.9018,4.9018,4.9018,4.9018,4.9018,4.9018,4.9018,4.9018,4.9018,4.9018,4.9018,4.9018,4.9018,4.9018,4.9018,4.9018,4.9018,4.9018,4.9018,4.9018,4.9018,4.9018,4.9018,4.9018,4.9018,4.9018,4.9018,4.9018,4.9018,4.9018,4.9018,4.9018,4.9018,4.9018,4.9018,4.9018,4.9018,4.9018,4.9018,4.9018,4.9018,4.9018,4.9018,4.9018,4.9018,4.9018,4.9018,4.9018,4.874,4.8385,4.7608,4.6989,4.6578,4.6274,4.6027,4.5732,4.5443,4.5371,4.5703,4.5393,4.5191,4.5317,4.5665,4.5719,4.5609,4.5573,4.5499,4.5373,4.5151,4.4986,4.4911,4.4663,4.432,4.4189,4.3606,4.329,4.329,4.321,4.317,4.293,4.2875,4.2578,4.2114,4.1949,4.1686,4.1141,4.0503,4.0201,3.9631,3.938,3.9394,3.9096,3.8859,3.8544,5.0387,5.0068,5.004,4.9982,4.9866,4.9708,4.9619,4.959,4.9381,4.9246,4.9185,4.9155,4.9111,4.9001,4.9018,4.9018,4.9018,4.9018,4.9018,4.9018,4.9018,4.9018,4.9018,4.9018,4.9018,4.9018,4.9018,4.9018,4.9018,4.9018,4.9018,4.9018,4.9018,4.9018,4.9018,4.9018,4.9018,4.9018,4.9018,4.9018,4.9018,4.9018,4.9018,4.9018,4.9018,4.9018,4.9018,4.9018,4.9018,4.9018,4.9018,4.9018,4.9018,4.9018,4.9018,4.9018,4.9018,4.9018,4.9018,4.9018,4.9018,4.9018,4.9018,4.9018,4.9018,4.9018,4.9018,4.9018,4.9018,4.9018,4.894,4.8639,4.8249,4.7799,4.7302,4.6995,4.693,4.6468,4.629,4.6368,4.602,4.5796,4.5807,4.5807,4.5807,4.5807,4.5807,4.5807,4.5771,4.5609,4.5373,4.5373,4.5061,4.4836,4.4685,4.4212,4.3762,4.3699,4.3384,4.3344,4.3305,4.3305,4.317,4.2754,4.2456,4.2196,4.1728,4.1085,4.0417,3.9793,3.9675,3.9719,3.938,3.9038,3.8769,5.071,5.0415,5.0415,5.0228,5.0011,4.9924,4.9895,4.9913,4.9866,4.9679,4.95,4.9471,4.9337,4.9124,4.9124,4.9063,4.9094,4.9094,4.9063,4.9018,4.9018,4.9018,4.9018,4.9018,4.9018,4.9018,4.9018,4.9018,4.9018,4.9018,4.9018,4.9018,4.9086,4.9103,4.9018,4.9069,4.9052,4.9018,4.9018,4.9018,4.9018,4.9018,4.9018,4.9018,4.9018,4.9018,4.9018,4.9018,4.9018,4.9018,4.9018,4.9018,4.9018,4.9018,4.9018,4.9018,4.9018,4.9018,4.9018,4.9018,4.9018,4.9018,4.9018,4.9018,4.9018,4.9018,4.9018,4.9018,4.9018,4.9018,4.9018,4.897,4.8906,4.8923,4.8364,4.8093,4.8046,4.7704,4.7186,4.6722,4.6243,4.5828,4.5807,4.5807,4.5807,4.5807,4.5807,4.5807,4.5807,4.5735,4.5771,4.5682,4.5447,4.521,4.5061,4.4874,4.4458,4.4089,4.366,4.3423,4.3344,4.3305,4.3305,4.301,4.301,4.2754,4.2155,4.1519,4.1099,4.0546,4.0388,4.0099,3.9706,3.9411,3.9114,5.0836,5.0754,5.0737,5.0665,5.0554,5.0359,5.0257,5.0228,5.0011,4.9837,4.9779,4.9796,4.9691,4.9649,4.9619,4.9602,4.9619,4.9602,4.9411,4.9063,4.9001,4.9001,4.9018,4.9018,4.9018,4.9018,4.9018,4.9018,4.9018,4.9018,4.9018,4.9086,4.9492,4.9475,4.9052,4.9458,4.9543,4.9052,4.9018,4.9018,4.9018,4.9018,4.9018,4.9018,4.9018,4.9018,4.9018,4.9018,4.9018,4.9018,4.9018,4.9018,4.9018,4.9018,4.9018,4.9018,4.9018,4.9018,4.9018,4.9018,4.9018,4.9018,4.9018,4.9018,4.9018,4.9018,4.9018,4.9018,4.9018,4.9018,4.9018,4.9018,4.9018,4.9001,4.8829,4.8736,4.8656,4.8258,4.7721,4.7202,4.6668,4.6404,4.6262,4.6136,4.59,4.5844,4.5844,4.5859,4.5807,4.5807,4.5807,4.5771,4.5646,4.5557,4.541,4.5225,4.4964,4.4549,4.4112,4.366,4.3503,4.3423,4.3384,4.3305,4.3305,4.309,4.2552,4.2129,4.1686,4.1339,4.1114,4.0674,4.0142,3.9991,3.9994,5.0891,5.0891,5.0891,5.0891,5.0891,5.0682,5.0582,5.0554,5.0387,5.02,5.0097,5.0086,5.0011,4.9924,4.9895,4.9895,4.9895,4.9895,4.9691,4.935,4.9216,4.9124,4.9049,4.9018,4.9018,4.9018,4.9018,4.9018,4.9018,4.9018,4.9018,4.912,4.9475,4.9458,4.9103,4.9695,4.9746,4.9137,4.9272,4.9289,4.9069,4.9018,4.9018,4.9018,4.9018,4.9018,4.9018,4.9018,4.9018,4.9018,4.9018,4.9018,4.9018,4.9018,4.9018,4.9018,4.9018,4.9018,4.9018,4.9018,4.9018,4.9018,4.9018,4.9018,4.9018,4.9018,4.9018,4.9018,4.9018,4.9018,4.9018,4.9018,4.9018,4.9018,4.9001,4.9018,4.8923,4.853,4.8113,4.7655,4.7236,4.6963,4.6791,4.6668,4.6314,4.6171,4.61,4.5952,4.588,4.5807,4.5807,4.5807,4.5771,4.5735,4.5771,4.5573,4.5389,4.5002,4.4587,4.4127,4.3778,4.3699,4.366,4.3384,4.3305,4.3305,4.2835,4.2795,4.2496,4.2158,4.1774,4.1696,4.1453,4.1563,4.1485,5.0891,5.0891,5.0891,5.0891,5.0891,5.0863,5.0863,5.0891,5.0863,5.0665,5.0471,5.0415,5.0285,5.004,5.0086,5.0086,4.9982,5.0028,4.9999,4.9854,4.9679,4.9441,4.9185,4.9155,4.9185,4.9155,4.9124,4.9124,4.9155,4.9155,4.9063,4.9141,4.9308,4.9114,4.9308,4.9822,4.9853,4.928,4.974,4.9757,4.9187,4.9238,4.9171,4.9154,4.9154,4.912,4.9018,4.9018,4.9018,4.9018,4.9018,4.9018,4.9018,4.9018,4.9018,4.9018,4.9018,4.9018,4.9018,4.9018,4.9018,4.9018,4.9018,4.9018,4.9018,4.9018,4.9018,4.9018,4.9018,4.9018,4.9018,4.9018,4.9018,4.9018,4.9018,4.9018,4.897,4.8562,4.8322,4.8194,4.7803,4.7438,4.7438,4.7354,4.7082,4.6807,4.6633,4.6439,4.6116,4.5972,4.588,4.5844,4.5807,4.5807,4.5771,4.5771,4.5573,4.5426,4.5039,4.4663,4.4127,4.3972,4.3817,4.3581,4.3344,4.3305,4.3265,4.313,4.297,4.2592,4.2544,4.276,4.281,4.2768,4.2666,5.0891,5.0891,5.0891,5.0891,5.0891,5.0891,5.0891,5.0891,5.0891,5.0819,5.0764,5.0782,5.071,5.061,5.0627,5.0637,5.0582,5.061,5.0471,5.0302,5.0217,4.9971,4.9737,4.9661,4.9649,4.9632,4.9619,4.9661,4.9661,4.9619,4.9649,4.9696,5.0082,5.0129,4.9884,5.0369,5.0245,4.9602,5.007,5.0266,4.9944,5.0302,5.0338,4.9847,4.9763,4.9492,4.9086,4.9018,4.9018,4.9018,4.9018,4.9018,4.9018,4.9018,4.9018,4.9018,4.9018,4.9018,4.9018,4.9018,4.9018,4.9018,4.9018,4.9018,4.9018,4.9018,4.9018,4.9018,4.9018,4.9018,4.9018,4.9018,4.9018,4.9018,4.9018,4.9018,4.897,4.8909,4.8815,4.8736,4.829,4.8048,4.7918,4.7704,4.7438,4.7286,4.715,4.7014,4.658,4.6404,4.6369,4.5936,4.5844,4.5807,4.5807,4.5807,4.5771,4.5735,4.5463,4.5188,4.4663,4.4189,4.405,4.3856,4.3542,4.3463,4.3344,4.3265,4.305,4.2915,4.3453,4.3735,4.3533,4.3454,4.3517,5.1681,5.1365,5.1347,5.1171,5.0908,5.0891,5.0891,5.0891,5.0891,5.0891,5.0891,5.0891,5.0891,5.0891,5.0891,5.0891,5.0891,5.0891,5.0764,5.0655,5.0599,5.0331,5.0011,4.9895,4.9895,4.9895,4.9895,4.9866,4.9866,4.9895,4.9895,4.9935,5.0326,5.0309,4.9952,5.0585,5.0595,4.9953,5.0369,5.0522,5.0097,5.0438,5.0328,4.9926,4.9828,4.9559,4.9083,4.9018,4.9018,4.9018,4.9018,4.9018,4.9018,4.9018,4.9018,4.9018,4.9018,4.9018,4.9018,4.9018,4.9018,4.9018,4.9018,4.9018,4.9018,4.9018,4.9018,4.9018,4.9018,4.9018,4.9018,4.9018,4.9018,4.9018,4.9018,4.9018,4.9018,4.9001,4.9018,4.894,4.8736,4.853,4.853,4.8243,4.8,4.7803,4.7737,4.7438,4.7066,4.6997,4.6842,4.6474,4.6314,4.6385,4.6278,4.6207,4.6008,4.5936,4.5828,4.5594,4.5114,4.4496,4.4281,4.405,4.3778,4.3542,4.3463,4.3344,4.325,4.3394,4.4127,4.4508,4.4356,4.4636,4.4645,5.2769,5.2137,5.2021,5.1628,5.1066,5.0926,5.0891,5.0891,5.0891,5.0891,5.0891,5.0891,5.0891,5.0891,5.0891,5.0891,5.0891,5.0891,5.0891,5.0863,5.0836,5.0599,5.0154,5.0143,5.0114,5.0114,5.0011,5.004,5.0114,5.0086,5.004,5.0132,5.0138,5.0092,5.0184,5.0708,5.0569,5.0212,5.0695,5.0757,5.0341,5.0415,5.0395,5.0005,4.9701,4.9517,4.9202,4.908,4.9063,4.9018,4.9018,4.9018,4.9018,4.9018,4.9018,4.9018,4.9018,4.9018,4.9018,4.9018,4.9018,4.9018,4.9018,4.9018,4.9018,4.9018,4.9018,4.9018,4.9018,4.9018,4.9018,4.9018,4.9018,4.9018,4.9018,4.9018,4.9018,4.9018,4.9018,4.9001,4.9001,4.9001,4.9018,4.897,4.8798,4.8339,4.8275,4.8,4.7704,4.7505,4.7371,4.7168,4.7066,4.7116,4.6911,4.6687,4.6369,4.6171,4.61,4.5884,4.5447,4.4964,4.4587,4.432,4.4205,4.3895,4.3542,4.3463,4.3438,4.3648,4.4242,4.4811,4.5251,4.5945,4.6207,5.3113,5.2874,5.2277,5.1899,5.1698,5.1154,5.0926,5.0943,5.0926,5.0961,5.0908,5.0908,5.0891,5.0891,5.0891,5.0891,5.0891,5.0891,5.0891,5.0891,5.0891,5.0863,5.0655,5.0627,5.0655,5.0637,5.0665,5.0665,5.0655,5.0599,5.0682,5.0655,5.0599,5.0682,5.0707,5.0756,5.0718,5.048,5.1014,5.1124,5.0932,5.1196,5.1166,5.0582,5.0054,4.9696,4.9458,4.9398,4.9277,4.9063,4.9032,4.9032,4.9001,4.9018,4.9018,4.9018,4.9018,4.9018,4.9018,4.9018,4.9018,4.9018,4.9018,4.9018,4.9018,4.9018,4.9018,4.9018,4.9018,4.9018,4.9018,4.9018,4.9018,4.9018,4.9018,4.9018,4.9018,4.9018,4.9018,4.9018,4.9018,4.9018,4.9018,4.9018,4.8909,4.8846,4.8704,4.8578,4.8339,4.8065,4.7902,4.777,4.7704,4.7638,4.7371,4.7134,4.6807,4.6493,4.6369,4.6227,4.5796,4.5373,4.5002,4.4814,4.4685,4.4343,4.3918,4.3844,4.3904,4.4113,4.4362,4.502,4.5783,4.6741,4.7251,5.405,5.3682,5.326,5.2874,5.2541,5.2137,5.1961,5.1874,5.154,5.1417,5.1329,5.1084,5.0908,5.0891,5.0891,5.0891,5.0891,5.0891,5.0891,5.0891,5.0891,5.0891,5.0891,5.0891,5.0891,5.0891,5.0891,5.0891,5.0891,5.0891,5.0863,5.0891,5.0891,5.0863,5.0891,5.0891,5.0827,5.0735,5.0976,5.1137,5.1082,5.1343,5.135,5.0755,5.0207,4.9825,4.9708,4.9679,4.953,4.932,4.9246,4.9155,4.9032,4.9018,4.9018,4.9018,4.9018,4.9018,4.9018,4.9018,4.9018,4.9018,4.9018,4.9018,4.9018,4.9018,4.9018,4.9018,4.9018,4.9018,4.9018,4.9018,4.9018,4.9018,4.9018,4.9018,4.9018,4.9018,4.9018,4.9018,4.9018,4.9018,4.9018,4.9018,4.9001,4.8909,4.8909,4.8784,4.8815,4.8578,4.8515,4.8371,4.8307,4.8146,4.7836,4.7538,4.7236,4.6929,4.6687,4.6528,4.6246,4.5832,4.5426,4.5225,4.5002,4.4776,4.4412,4.4396,4.4367,4.4609,4.4935,4.5447,4.6052,4.6815,4.7204,5.5121,5.4472,5.4366,5.3928,5.3383,5.3218,5.3085,5.3043,5.2348,5.1926,5.1856,5.1207,5.0891,5.0891,5.0891,5.0891,5.0891,5.0891,5.0891,5.0891,5.0891,5.0891,5.0891,5.0891,5.0891,5.0891,5.0891,5.0891,5.0891,5.0891,5.0891,5.0891,5.0891,5.0891,5.0891,5.0891,5.0891,5.0871,5.0906,5.0942,5.0942,5.0994,5.0822,5.0575,5.0337,5.0114,5.0011,4.9953,4.9837,4.9607,4.956,4.9398,4.9155,4.9001,4.9018,4.9018,4.9018,4.9018,4.9018,4.9018,4.9018,4.9018,4.9018,4.9018,4.9018,4.9018,4.9018,4.9018,4.9018,4.9018,4.9018,4.9018,4.9018,4.9018,4.9018,4.9018,4.9018,4.9018,4.9018,4.9018,4.9018,4.9018,4.9018,4.9018,4.9018,4.9018,4.9018,4.9018,4.9018,4.897,4.8846,4.8815,4.8673,4.861,4.8339,4.8211,4.7869,4.7489,4.7152,4.6894,4.6687,4.6282,4.5868,4.552,4.5262,4.5039,4.4861,4.4795,4.4879,4.5084,4.5379,4.5778,4.6299,4.6845,4.71,5.542,5.5244,5.4577,5.4226,5.4033,5.3471,5.3278,5.3078,5.247,5.2004,5.1944,5.1242,5.0961,5.0891,5.0891,5.0891,5.0891,5.0891,5.0891,5.0891,5.0891,5.0891,5.0891,5.0891,5.0891,5.0891,5.0891,5.0891,5.0891,5.0891,5.0891,5.0891,5.0891,5.0891,5.0891,5.0891,5.0891,5.0891,5.0891,5.0891,5.0891,5.0891,5.0891,5.0764,5.0655,5.0526,5.0359,5.0285,5.0171,4.9884,4.9854,4.9679,4.9458,4.9185,4.9063,4.9018,4.9018,4.9018,4.9018,4.9018,4.9018,4.9018,4.9018,4.9018,4.9018,4.9018,4.9018,4.9018,4.9018,4.9018,4.9018,4.9018,4.9018,4.9018,4.9018,4.9018,4.9018,4.9018,4.9018,4.9018,4.9018,4.9018,4.9018,4.9018,4.9018,4.9018,4.9018,4.9018,4.9018,4.9018,4.897,4.894,4.897,4.894,4.8861,4.8767,4.8578,4.8162,4.7787,4.7388,4.7084,4.6687,4.6317,4.5941,4.563,4.5463,4.5319,4.5219,4.5203,4.5299,4.5652,4.6048,4.6455,4.6854,4.7113,5.5525,5.5472,5.5086,5.4928,5.4858,5.4559,5.4384,5.4261,5.3559,5.2962,5.247,5.1821,5.1242,5.0996,5.0891,5.0891,5.0891,5.0891,5.0891,5.0891,5.0891,5.0891,5.0891,5.0891,5.0891,5.0891,5.0891,5.0891,5.0891,5.0891,5.0891,5.0891,5.0891,5.0891,5.0891,5.0891,5.0891,5.0891,5.0891,5.0891,5.0891,5.0891,5.0891,5.0891,5.0891,5.0819,5.071,5.0655,5.0499,5.0228,5.0154,4.9982,4.9767,4.956,4.932,4.9094,4.9049,4.9018,4.9018,4.9018,4.9018,4.9018,4.9018,4.9018,4.9018,4.9018,4.9018,4.9018,4.9018,4.9018,4.9018,4.9018,4.9018,4.9018,4.9018,4.9018,4.9018,4.9018,4.9018,4.9018,4.9018,4.9018,4.9018,4.9018,4.9018,4.9018,4.9018,4.9018,4.9018,4.9018,4.9018,4.9018,4.9018,4.9001,4.9001,4.897,4.897,4.8656,4.8322,4.7918,4.7522,4.7118,4.6722,4.6317,4.61,4.6047,4.5725,4.5622,4.5578,4.5565,4.5944,4.629,4.6554,4.6858,4.7056,5.5525,5.5525,5.5525,5.5525,5.5525,5.5525,5.549,5.5349,5.4612,5.391,5.3331,5.2435,5.1645,5.1207,5.0978,5.0891,5.0891,5.0891,5.0891,5.0891,5.0891,5.0891,5.0891,5.0891,5.0891,5.0891,5.0891,5.0891,5.0891,5.0891,5.0891,5.0891,5.0891,5.0891,5.0891,5.0891,5.0891,5.0891,5.0891,5.0891,5.0891,5.0891,5.0891,5.0891,5.0891,5.0891,5.0863,5.0863,5.0754,5.0554,5.0453,5.0341,5.0068,4.9982,4.972,4.9307,4.9155,4.9063,4.9018,4.9018,4.9018,4.9018,4.9018,4.9018,4.9018,4.9018,4.9018,4.9018,4.9018,4.9018,4.9018,4.9018,4.9018,4.9018,4.9018,4.9018,4.9018,4.9018,4.9018,4.9018,4.9018,4.9018,4.9018,4.9018,4.9018,4.9018,4.9018,4.9018,4.9018,4.9018,4.9018,4.9018,4.9018,4.9018,4.9001,4.9001,4.9001,4.8909,4.8625,4.8322,4.7918,4.7555,4.7152,4.6858,4.6988,4.6888,4.6453,4.6013,4.585,4.5934,4.6268,4.6487,4.6615,4.6655,4.6796,5.5525,5.5525,5.5525,5.5525,5.5525,5.5525,5.5525,5.5402,5.47,5.4296,5.398,5.2769,5.2067,5.1786,5.1189,5.0961,5.0943,5.0891,5.0891,5.0891,5.0891,5.0891,5.0891,5.0891,5.0891,5.0891,5.0891,5.0891,5.0891,5.0891,5.0891,5.0891,5.0891,5.0891,5.0891,5.0891,5.0891,5.0891,5.0891,5.0891,5.0891,5.0891,5.0891,5.0891,5.0891,5.0891,5.0891,5.0891,5.0836,5.0836,5.0836,5.0682,5.0397,5.0341,5.0171,4.9854,4.959,4.932,4.9124,4.9063,4.9063,4.9063,4.9001,4.9001,4.9018,4.9018,4.9018,4.9018,4.9018,4.9018,4.9018,4.9018,4.9018,4.9018,4.9018,4.9018,4.9018,4.9018,4.9018,4.9018,4.9018,4.9018,4.9018,4.9018,4.9018,4.9018,4.9018,4.9018,4.9018,4.9018,4.9018,4.9018,4.9018,4.9018,4.9018,4.9018,4.9018,4.9018,4.8877,4.8656,4.8354,4.7983,4.7754,4.7536,4.7642,4.744,4.6865,4.6432,4.616,4.6156,4.6403,4.6462,4.6502,4.6551,4.6588,5.5525,5.5525,5.5525,5.5525,5.5525,5.5525,5.5525,5.5455,5.5156,5.4735,5.4279,5.3682,5.3085,5.2558,5.1874,5.154,5.1435,5.1136,5.0908,5.0943,5.0943,5.0926,5.0891,5.0891,5.0891,5.0943,5.0891,5.0891,5.0891,5.0891,5.0891,5.0891,5.0891,5.0891,5.0891,5.0891,5.0891,5.0891,5.0891,5.0891,5.0891,5.0891,5.0891,5.0891,5.0891,5.0891,5.0891,5.0891,5.0891,5.0891,5.0891,5.0846,5.0737,5.0682,5.0526,5.0228,5.0086,4.9854,4.959,4.9398,4.9277,4.9216,4.9124,4.9001,4.9018,4.9018,4.9018,4.9018,4.9018,4.9018,4.9018,4.9018,4.9018,4.9018,4.9018,4.9018,4.9018,4.9018,4.9018,4.9018,4.9018,4.9018,4.9018,4.9018,4.9018,4.9018,4.9018,4.9018,4.9018,4.9018,4.9018,4.9018,4.9018,4.9018,4.9018,4.9018,4.9018,4.9018,4.9001,4.8829,4.8688,4.8435,4.8162,4.7869,4.7719,4.746,4.7174,4.6981,4.6821,4.6634,4.6466,4.6369,4.6261,4.633,4.6384,5.5525,5.5525,5.5525,5.5525,5.5525,5.5525,5.5525,5.5525,5.5507,5.5156,5.4665,5.4331,5.384,5.3208,5.2593,5.2312,5.2277,5.1716,5.1523,5.1435,5.1312,5.1382,5.14,5.1329,5.1013,5.1136,5.0961,5.0926,5.0891,5.0891,5.0891,5.0891,5.0891,5.0891,5.0891,5.0891,5.0891,5.0891,5.0891,5.0891,5.0891,5.0891,5.0891,5.0891,5.0891,5.0891,5.0891,5.0891,5.0891,5.0891,5.0891,5.0891,5.0863,5.0836,5.0764,5.0554,5.0488,5.0397,5.0057,4.9813,4.9577,4.9398,4.9216,4.9018,4.9018,4.9018,4.9018,4.9018,4.9018,4.9018,4.9018,4.9018,4.9018,4.9018,4.9018,4.9018,4.9018,4.9018,4.9018,4.9018,4.9018,4.9018,4.9018,4.9018,4.9018,4.9018,4.9018,4.9018,4.9018,4.9018,4.9018,4.9018,4.9018,4.9018,4.9018,4.9018,4.9018,4.9018,4.9018,4.897,4.8829,4.8736,4.853,4.8211,4.8017,4.8597,4.8993,4.8213,4.7452,4.7133,4.6743,4.6187,4.6022,4.6088,4.618,5.5525,5.5525,5.5525,5.5525,5.5525,5.5525,5.5525,5.5525,5.5525,5.5472,5.5227,5.47,5.4015,5.3401,5.3243,5.3102,5.3102,5.306,5.285,5.2593,5.24,5.233,5.2207,5.1751,5.1259,5.1628,5.1242,5.0908,5.0891,5.0891,5.0891,5.0891,5.0891,5.0891,5.0891,5.0891,5.0891,5.0891,5.0891,5.0891,5.0891,5.0891,5.0891,5.0891,5.0891,5.0891,5.0891,5.0891,5.0891,5.0891,5.0891,5.0891,5.0891,5.0891,5.0836,5.0809,5.0782,5.0737,5.0544,5.0074,4.9607,4.9428,4.9246,4.9094,4.9155,4.9063,4.9001,4.9094,4.9155,4.9063,4.9032,4.9018,4.9018,4.9018,4.9018,4.9018,4.9018,4.9018,4.9018,4.9018,4.9018,4.9018,4.9018,4.9018,4.9018,4.9018,4.9018,4.9018,4.9018,4.9018,4.9018,4.9018,4.9018,4.9018,4.9018,4.9018,4.9018,4.9018,4.9018,4.9018,4.897,4.8861,4.8767,4.8921,4.8882,4.9865,5.0404,4.9225,4.8207,4.7571,4.6965,4.6207,4.5866,4.594,4.6022,5.5525,5.5525,5.5525,5.5525,5.5525,5.5525,5.5525,5.5525,5.5525,5.5525,5.549,5.5174,5.4893,5.4542,5.405,5.3875,5.3805,5.3348,5.3296,5.3138,5.2944,5.2944,5.2734,5.2348,5.1733,5.1821,5.1312,5.0891,5.0891,5.0891,5.0891,5.0891,5.0891,5.0891,5.0891,5.0891,5.0891,5.0891,5.0891,5.0891,5.0891,5.0891,5.0891,5.0891,5.0891,5.0891,5.0891,5.0891,5.0891,5.0891,5.0891,5.0891,5.0891,5.0891,5.0891,5.0891,5.0891,5.0891,5.0836,5.0359,5.0017,4.9708,4.9518,4.9367,4.9424,4.9381,4.9441,4.9441,4.9398,4.9307,4.9307,4.9155,4.9018,4.9018,4.9018,4.9018,4.9052,4.9069,4.9171,4.9238,4.9103,4.9018,4.9018,4.9018,4.9018,4.9018,4.9018,4.9018,4.9018,4.9018,4.9018,4.9018,4.9018,4.9018,4.9018,4.9018,4.9018,4.9018,4.9018,4.9018,4.9018,4.9001,4.899,4.9272,4.9576,5.0156,5.0236,4.966,4.9052,4.8516,4.7293,4.6006,4.5839,4.5807,4.5898,5.5525,5.5525,5.5525,5.5525,5.5525,5.5525,5.5525,5.5525,5.5525,5.5525,5.5525,5.5525,5.5525,5.5332,5.4981,5.4665,5.4559,5.4226,5.3998,5.384,5.3734,5.3699,5.3454,5.298,5.2383,5.2172,5.1628,5.1242,5.0891,5.0891,5.0891,5.0891,5.0891,5.0891,5.0891,5.0891,5.0891,5.0891,5.0891,5.0891,5.0891,5.0891,5.0891,5.0891,5.0891,5.0891,5.0891,5.0891,5.0891,5.0891,5.0891,5.0891,5.0891,5.0891,5.0891,5.0891,5.0891,5.0891,5.0809,5.0599,5.0257,4.9895,4.972,4.972,4.9779,4.972,4.9708,4.9796,4.9708,4.9607,4.9577,4.9307,4.9094,4.9094,4.9001,4.9018,4.9171,4.9238,4.9373,4.9475,4.9526,4.9813,4.9695,4.9712,4.9289,4.9204,4.9018,4.9018,4.9018,4.9018,4.9018,4.9018,4.9018,4.9018,4.9018,4.9018,4.9018,4.9018,4.9018,4.9018,4.9018,4.9018,4.9018,4.912,4.9526,5.0185,5.02,4.9826,4.9673,4.954,4.78,4.5823,4.5807,4.5807,4.5807,5.5525,5.5525,5.5525,5.5525,5.5525,5.5525,5.5525,5.5525,5.5525,5.5525,5.5525,5.5525,5.5525,5.549,5.5332,5.5279,5.5297,5.5262,5.5191,5.4981,5.4559,5.477,5.4542,5.3963,5.3138,5.2944,5.24,5.1698,5.1119,5.1294,5.1189,5.1101,5.1207,5.0996,5.0926,5.0891,5.0891,5.0891,5.0891,5.0891,5.0891,5.0891,5.0891,5.0891,5.0891,5.0891,5.0891,5.0891,5.0891,5.0891,5.0891,5.0891,5.0891,5.0891,5.0891,5.0891,5.0891,5.0891,5.0863,5.0582,5.0296,5.0068,5.0011,4.9982,4.9953,4.9924,4.9971,5.0114,4.9953,4.9796,4.9649,4.9509,4.9379,4.9359,4.9348,4.9475,4.9678,4.9796,4.9999,5.0084,5.0659,5.1082,5.0828,5.0524,4.9847,4.9458,4.9137,4.9018,4.9052,4.9018,4.9018,4.9018,4.9018,4.9018,4.9018,4.9018,4.9018,4.9018,4.9018,4.9018,4.9018,4.9018,4.9018,4.9018,4.9441,5.0067,5.0163,5.0123,4.9691,4.9042,4.7312,4.5823,4.5823,4.5807,4.5807,5.5525,5.5525,5.5525,5.5525,5.5525,5.5525,5.5525,5.5525,5.5525,5.5525,5.5525,5.5525,5.5525,5.5525,5.5525,5.5525,5.5525,5.5525,5.5525,5.5472,5.5139,5.5262,5.5104,5.4577,5.391,5.3717,5.3173,5.2699,5.2498,5.227,5.2375,5.2365,5.1786,5.1365,5.1031,5.0891,5.0891,5.0891,5.0891,5.0891,5.0908,5.0943,5.0961,5.0978,5.0961,5.0943,5.0908,5.0891,5.0891,5.0891,5.0891,5.0891,5.0891,5.0891,5.0891,5.0891,5.0891,5.0891,5.0891,5.0764,5.0692,5.0526,5.0341,5.0341,5.0481,5.0313,5.0369,5.0425,5.0313,5.0171,5.0114,5.0198,5.0178,5.0243,5.032,5.0553,5.071,5.076,5.0845,5.0845,5.1168,5.1337,5.1285,5.1217,5.0676,5.0152,4.9847,4.9373,4.9255,4.9103,4.9018,4.9018,4.9018,4.9018,4.9018,4.9018,4.9018,4.9018,4.9018,4.9018,4.9018,4.9018,4.9018,4.9018,4.9441,4.9898,4.9961,4.9855,4.9193,4.8213,4.711,4.6115,4.5823,4.5807,4.5807,5.5525,5.5525,5.5525,5.5525,5.5525,5.5525,5.5525,5.5525,5.5525,5.5525,5.5525,5.5525,5.5525,5.5525,5.5525,5.5525,5.5525,5.5525,5.5525,5.5525,5.5507,5.549,5.5297,5.4981,5.4524,5.4279,5.3875,5.3454,5.3078,5.3166,5.3085,5.2909,5.2681,5.2277,5.1751,5.1417,5.0891,5.0978,5.1101,5.1365,5.1435,5.1523,5.161,5.1435,5.1294,5.1189,5.0978,5.0908,5.0908,5.0926,5.0908,5.0908,5.0891,5.0891,5.0891,5.0891,5.0891,5.0891,5.0891,5.0891,5.0836,5.0836,5.0682,5.071,5.0819,5.0682,5.0692,5.071,5.0637,5.0544,5.0469,5.0617,5.0836,5.0868,5.1014,5.1229,5.1319,5.1336,5.1606,5.1606,5.181,5.1861,5.186,5.1708,5.1522,5.1048,5.0608,5.0135,4.9678,4.9492,4.939,4.9373,4.9221,4.9137,4.9103,4.9018,4.9018,4.9018,4.9103,4.9238,4.9018,4.9018,4.9018,4.9035,4.934,4.9613,4.9759,4.9588,4.9244,4.8755,4.8028,4.7059,4.6047,4.5891,4.5975,5.5525,5.5525,5.5525,5.5525,5.5525,5.5525,5.5525,5.5525,5.5525,5.5525,5.5525,5.5455,5.542,5.546,5.5472,5.5455,5.5525,5.5525,5.5525,5.5525,5.5525,5.5525,5.5525,5.5402,5.5016,5.4612,5.4314,5.4121,5.3401,5.3629,5.3612,5.3331,5.3278,5.2997,5.2541,5.1989,5.14,5.154,5.1803,5.2032,5.2119,5.2435,5.233,5.2102,5.1891,5.1645,5.1417,5.1207,5.1084,5.1013,5.0961,5.0908,5.0891,5.0891,5.0891,5.0891,5.0891,5.0891,5.0926,5.0926,5.1084,5.1171,5.1162,5.1013,5.0873,5.0836,5.0863,5.0863,5.0809,5.0724,5.0652,5.0928,5.1202,5.1306,5.1454,5.1566,5.1673,5.1877,5.2232,5.252,5.2926,5.3027,5.2909,5.2739,5.2283,5.2147,5.1792,5.1606,5.1082,5.0304,5.0185,5.005,4.9813,4.9373,4.9323,4.9543,4.9644,4.9847,4.9644,4.9644,4.9357,4.934,4.9627,4.9695,4.934,4.9446,5.0075,5.002,4.9609,4.9126,4.8685,4.7753,4.6694,4.6382,4.633,5.5525,5.5525,5.5525,5.5525,5.5525,5.5507,5.5525,5.5525,5.5525,5.5525,5.546,5.4911,5.4998,5.5437,5.4928,5.5104,5.5349,5.5525,5.5525,5.5525,5.5525,5.5525,5.5525,5.5507,5.5332,5.5227,5.5086,5.4946,5.4858,5.477,5.4349,5.4086,5.398,5.3734,5.3324,5.2779,5.2639,5.2541,5.2786,5.2804,5.2716,5.2804,5.2769,5.2751,5.24,5.2225,5.226,5.1874,5.1733,5.1628,5.1154,5.0926,5.0891,5.0891,5.0891,5.0891,5.0891,5.0908,5.0961,5.1382,5.1645,5.1751,5.2067,5.1716,5.1329,5.0996,5.1013,5.1049,5.1066,5.1,5.1291,5.1593,5.1855,5.2022,5.2258,5.2563,5.2634,5.2604,5.2942,5.3027,5.345,5.345,5.3416,5.3331,5.2942,5.3027,5.2959,5.2739,5.2317,5.1471,5.098,5.0845,5.0541,5.0135,5.0371,5.0608,5.0642,5.0642,5.0388,5.0287,5.0371,5.0422,5.0524,5.0439,5.0168,5.0371,5.0796,5.0521,4.9991,4.9726,4.9288,4.8309,4.7474,4.718,4.6718,5.5525,5.5472,5.5174,5.4875,5.4612,5.4595,5.4595,5.463,5.4911,5.4911,5.4577,5.4401,5.4577,5.4928,5.4893,5.5086,5.549,5.5525,5.5525,5.5525,5.5525,5.5525,5.5525,5.5525,5.549,5.5525,5.5525,5.5385,5.5525,5.5472,5.5121,5.484,5.477,5.4507,5.4261,5.4156,5.4138,5.3963,5.3857,5.3699,5.3489,5.3383,5.3647,5.3436,5.305,5.3138,5.3166,5.2646,5.24,5.2084,5.1452,5.1171,5.1049,5.0891,5.0891,5.0891,5.0891,5.0891,5.0996,5.1593,5.1891,5.2225,5.2769,5.2593,5.2119,5.1716,5.1558,5.1452,5.14,5.1478,5.1945,5.238,5.2599,5.2804,5.3283,5.3714,5.3634,5.3484,5.3467,5.3467,5.3501,5.3501,5.3501,5.3518,5.3501,5.3382,5.3331,5.3247,5.2858,5.2215,5.1809,5.1606,5.1302,5.098,5.1285,5.1437,5.1252,5.1117,5.0963,5.0947,5.1234,5.1185,5.1016,5.1065,5.1082,5.1251,5.1337,5.0853,5.0357,5.0309,5.0459,5.0055,4.9124,4.8055,4.7477,5.5297,5.5209,5.4524,5.3822,5.3201,5.3254,5.3218,5.3131,5.3752,5.3857,5.3559,5.4015,5.4419,5.477,5.4928,5.5209,5.5455,5.5525,5.5525,5.5525,5.5525,5.5525,5.5525,5.5525,5.5525,5.5525,5.5525,5.5525,5.5525,5.549,5.549,5.5478,5.542,5.5244,5.5156,5.5139,5.5069,5.4963,5.4665,5.4437,5.4542,5.484,5.5139,5.4524,5.4191,5.4015,5.3594,5.3225,5.2909,5.24,5.1926,5.161,5.1136,5.0891,5.0891,5.1013,5.1049,5.1171,5.1435,5.2049,5.2365,5.2646,5.2909,5.3383,5.3296,5.2242,5.1839,5.1663,5.1575,5.1505,5.1826,5.2571,5.3037,5.3233,5.3533,5.3712,5.3618,5.3501,5.3518,5.3518,5.3518,5.3518,5.3518,5.3518,5.3518,5.3518,5.3518,5.3518,5.3298,5.2773,5.257,5.235,5.2198,5.1961,5.1911,5.1978,5.1758,5.1574,5.1572,5.1691,5.2046,5.1793,5.1438,5.1709,5.2063,5.176,5.1675,5.1325,5.1392,5.1814,5.1933,5.1917,5.1008,4.9622,4.8608,5.3717,5.3717,5.3541,5.3015,5.2418,5.2944,5.2516,5.154,5.2242,5.312,5.3928,5.4226,5.4577,5.4928,5.4805,5.5016,5.5455,5.5525,5.5525,5.5525,5.5525,5.5525,5.5525,5.5525,5.5525,5.5525,5.5525,5.5525,5.5525,5.5525,5.5525,5.5525,5.5525,5.5525,5.5525,5.5525,5.5507,5.5472,5.5297,5.5086,5.5156,5.4788,5.463,5.4753,5.4788,5.4682,5.4401,5.4261,5.3682,5.3015,5.2312,5.1663,5.0961,5.0908,5.0908,5.0978,5.14,5.161,5.2067,5.2751,5.3366,5.3822,5.4261,5.4717,5.4384,5.2909,5.2039,5.1899,5.1821,5.1751,5.1916,5.2768,5.3399,5.3567,5.3762,5.3657,5.3568,5.3501,5.3518,5.3518,5.3518,5.3518,5.3518,5.3518,5.3518,5.3518,5.3518,5.3518,5.3518,5.3213,5.3162,5.3027,5.3145,5.2993,5.2807,5.2638,5.2452,5.257,5.2672,5.2773,5.2824,5.2638,5.2435,5.2824,5.3027,5.2672,5.2384,5.2267,5.2453,5.2841,5.2808,5.2555,5.2455,5.1408,5.0327,5.3309,5.3387,5.287,5.2207,5.1681,5.1997,5.1645,5.1136,5.1698,5.247,5.3296,5.3647,5.4086,5.4717,5.4665,5.4963,5.549,5.5507,5.5525,5.5525,5.5525,5.5525,5.5525,5.5525,5.5525,5.5525,5.5525,5.5525,5.5525,5.5525,5.5525,5.5525,5.5525,5.5525,5.5525,5.5525,5.5525,5.5525,5.5525,5.5507,5.5507,5.5156,5.4998,5.5244,5.5244,5.5174,5.5156,5.4998,5.4472,5.3541,5.2664,5.1698,5.1101,5.0908,5.1084,5.1382,5.1786,5.2172,5.2769,5.3506,5.4314,5.4612,5.5033,5.5262,5.5156,5.3857,5.3348,5.319,5.3155,5.3102,5.3032,5.3631,5.3642,5.3683,5.3949,5.4057,5.3751,5.3501,5.3518,5.3518,5.3518,5.3518,5.3518,5.3518,5.3518,5.3518,5.3518,5.3518,5.3518,5.3518,5.3518,5.3518,5.3518,5.3518,5.3264,5.3213,5.323,5.3416,5.3518,5.3365,5.3179,5.3348,5.3467,5.3433,5.3433,5.3382,5.3145,5.2926,5.2976,5.323,5.3162,5.2977,5.2944,5.2893,5.2049,5.3195,5.3328,5.2313,5.1505,5.0943,5.0926,5.0926,5.0996,5.1575,5.1909,5.226,5.2944,5.3183,5.3822,5.4753,5.5227,5.5525,5.5525,5.5525,5.5525,5.5525,5.5525,5.5525,5.5525,5.5525,5.5525,5.5525,5.5525,5.5525,5.5525,5.5525,5.5525,5.5525,5.5525,5.5525,5.5525,5.5525,5.5525,5.5525,5.5525,5.5525,5.5525,5.549,5.5507,5.5525,5.5525,5.5507,5.5385,5.5033,5.4138,5.3032,5.2242,5.1733,5.1558,5.1751,5.2102,5.2488,5.2892,5.3366,5.4086,5.4437,5.4717,5.5244,5.5402,5.5279,5.5016,5.4507,5.4314,5.4279,5.4015,5.3928,5.4028,5.3908,5.3742,5.4003,5.4192,5.3817,5.3518,5.3518,5.3518,5.3518,5.3518,5.3518,5.3518,5.3518,5.3518,5.3518,5.3518,5.3518,5.3518,5.3518,5.3518,5.3518,5.3518,5.3518,5.3518,5.3518,5.3518,5.3518,5.3518,5.3518,5.3518,5.3518,5.3501,5.3501,5.3518,5.3518,5.3331,5.345,5.3501,5.3399,5.3247,5.3264,5.3247,5.3349,5.2223,5.1877,5.1315,5.1013,5.0891,5.0891,5.0891,5.0926,5.1066,5.1417,5.2172,5.2839,5.3482,5.4121,5.5033,5.5507,5.5525,5.5525,5.5525,5.5525,5.5525,5.5525,5.5525,5.5525,5.5525,5.5525,5.5525,5.5525,5.5525,5.5525,5.5525,5.5525,5.5525,5.5525,5.5525,5.5525,5.5525,5.5525,5.5525,5.5525,5.5525,5.5525,5.5525,5.5525,5.5525,5.5525,5.5525,5.5525,5.5033,5.4296,5.3506,5.2927,5.2593,5.247,5.2664,5.2909,5.3296,5.3699,5.4208,5.4735,5.5016,5.5121,5.5507,5.549,5.542,5.542,5.5051,5.4893,5.4647,5.3892,5.3787,5.4226,5.4261,5.3829,5.3796,5.3795,5.3635,5.3534,5.3518,5.3518,5.3518,5.3518,5.3518,5.3518,5.3518,5.3518,5.3518,5.3518,5.3518,5.3518,5.3518,5.3518,5.3518,5.3518,5.3518,5.3518,5.3518,5.3518,5.3518,5.3518,5.3518,5.3518,5.3518,5.3518,5.3518,5.3518,5.3518,5.3518,5.3518,5.3501,5.3501,5.3467,5.3518,5.3518,5.3518]}]]